Date StartTime U_cm/s V_cm/s W_cm/s Ustd_cm/s Vstd_cm/s Wstd_cm/s Uvar_(cm/s)^2 Vvar_(cm/s)^2 Wvar_(cm/s)^2 KE_(m/s)^2 TurbulentKE_(m/s)^2 HorizWindSpeed_cm/s FrictionSpeec_cm/s DragCoef SpeedOfSound_m/s SonicTemperature_C Pressure_mb 
05/02/2013  00:00:00     -103.452      -30.512      -23.862       20.301       10.338       10.109      412.119      106.878      102.185        0.641        0.031      107.858        5.118        0.002      336.955        8.603      872.906
05/02/2013  00:01:00     -117.004      -18.037      -21.041       16.676       18.232       12.687      278.101      332.412      160.959        0.761        0.039      118.387        9.651        0.007      336.817        8.373      872.902
05/02/2013  00:02:00      -77.969      -24.120       -6.859       31.224       28.951       19.505      974.908      838.145      380.449        0.445        0.110       81.615       13.547        0.028      336.912        8.532      872.914
05/02/2013  00:03:00     -126.334      -30.792      -15.357       25.384       25.805       17.653      644.353      665.907      311.646        0.938        0.081      130.033       12.232        0.009      336.946        8.589      872.901
05/02/2013  00:04:00     -115.682      -41.677      -23.266       23.313       21.972       17.933      543.480      482.773      321.582        0.850        0.067      122.961       14.867        0.015      336.798        8.342      872.908
05/02/2013  00:05:00     -125.000      -30.188      -21.571       43.829       29.903       19.822     1921.018      894.177      392.915        1.010        0.160      128.594       18.557        0.021      336.774        8.302      872.920
05/02/2013  00:06:00     -139.572        0.069      -21.301       40.691       15.018       14.307     1655.748      225.526      204.688        1.101        0.104      139.572       16.936        0.015      336.798        8.343      872.891
05/02/2013  00:07:00      -59.099       -7.897      -10.545       15.180       14.792       11.793      230.439      218.800      139.082        0.213        0.029       59.624        6.500        0.012      336.825        8.386      872.908
05/02/2013  00:08:00      -75.213      -24.293      -10.292       15.835       18.900       12.909      250.742      357.199      166.647        0.356        0.039       79.039        7.351        0.009      336.904        8.518      872.919
05/02/2013  00:09:00      -63.191      -19.346      -10.113       12.323       13.710        8.002      151.866      187.974       64.030        0.244        0.020       66.086        4.938        0.006      336.822        8.381      872.918
05/02/2013  00:10:00      -58.375      -25.934      -21.374       16.089       11.012       12.615      258.867      121.254      159.150        0.254        0.027       63.876        5.608        0.008      336.844        8.417      872.940
05/02/2013  00:11:00      -74.095       -1.921      -17.720       16.596       15.846        9.257      275.424      251.090       85.696        0.321        0.031       74.120        7.216        0.009      336.773        8.300      872.954
05/02/2013  00:12:00      -67.496      -16.123       -8.089       32.506       22.629       16.109     1056.645      512.079      259.512        0.335        0.091       69.395       12.466        0.032      336.693        8.168      872.967
05/02/2013  00:13:00      -82.101      -40.458      -22.059       51.192       27.440       19.573     2620.634      752.938      383.093        0.631        0.188       91.528       21.982        0.058      336.675        8.137      872.981
05/02/2013  00:14:00     -137.227      -37.842      -21.266       20.188       25.501       13.305      407.559      650.325      177.033        1.097        0.062      142.349        7.116        0.002      336.672        8.133      872.971
05/02/2013  00:15:00     -115.977      -20.985       -7.163       31.953       34.688       20.580     1020.963     1203.287      423.526        0.829        0.132      117.860       12.345        0.011      336.582        7.981      872.968
05/02/2013  00:16:00      -73.076      -33.183      -16.014       46.204       26.164       14.435     2134.834      684.561      208.359        0.486        0.151       80.257        5.343        0.004      336.640        8.078      872.971
05/02/2013  00:17:00      -93.350      -14.158      -12.211       29.129       21.603       17.065      848.506      466.669      291.219        0.533        0.080       94.417       12.962        0.019      337.023        8.719      872.969
05/02/2013  00:18:00     -109.878      -51.748      -14.626       22.452       26.326       16.019      504.078      693.061      256.618        0.821        0.073      121.454       10.761        0.008      336.727        8.224      872.968
05/02/2013  00:19:00      -71.880      -26.407      -14.410       47.996       40.122       22.485     2303.626     1609.786      505.594        0.524        0.221       76.577       23.947        0.098      336.771        8.297      872.970
05/02/2013  00:20:00      -80.670      -31.242      -11.433       27.052       27.531       17.305      731.800      757.983      299.449        0.470        0.089       86.508        7.101        0.007      336.748        8.259      872.981
05/02/2013  00:21:00      -84.305      -13.256      -19.417       17.669       20.562       14.712      312.179      422.776      216.429        0.431        0.048       85.341       11.947        0.020      336.748        8.259      872.988
05/02/2013  00:22:00      -91.133      -34.119      -17.542       22.431       22.259       19.944      503.166      495.475      397.766        0.559        0.070       97.310       11.013        0.013      336.706        8.190      873.004
05/02/2013  00:23:00     -116.631      -39.826      -17.690       38.328       23.031       19.768     1469.041      530.422      390.780        0.895        0.120      123.243       13.095        0.011      336.642        8.082      873.009
05/02/2013  00:24:00      -74.272      -42.046      -10.936       46.266       30.899       22.854     2140.507      954.761      522.325        0.551        0.181       85.348       10.924        0.016      336.576        7.973      873.010
05/02/2013  00:25:00      -56.414      -37.651       -6.117       51.079       31.293       25.045     2609.050      979.226      627.240        0.443        0.211       67.824       26.585        0.154      336.498        7.841      873.009
05/02/2013  00:26:00     -116.274      -53.948      -16.988       29.611       30.321       21.564      876.832      919.393      465.014        0.949        0.113      128.180       16.215        0.016      336.457        7.770      873.005
05/02/2013  00:27:00      -64.590      -44.568      -15.201       22.891       31.547       18.466      523.995      995.196      341.005        0.412        0.093       78.474       13.101        0.028      336.579        7.975      873.002
05/02/2013  00:28:00      -86.412      -33.331      -14.690       24.850       29.407       21.140      617.545      864.784      446.879        0.536        0.096       92.617       11.698        0.016      336.551        7.929      873.011
05/02/2013  00:29:00      -77.139      -38.943       -4.678       28.338       29.564       21.604      803.069      874.059      466.746        0.482        0.107       86.412        9.160        0.011      336.456        7.770      873.006
05/02/2013  00:30:00     -100.088      -32.871      -18.493       23.849       21.263       15.920      568.792      452.110      253.462        0.636        0.064      105.347       12.757        0.015      336.482        7.814      873.011
05/02/2013  00:31:00     -106.155      -18.278      -18.936       22.799       32.100       14.079      519.817     1030.390      198.208        0.685        0.087      107.717        4.280        0.002      336.536        7.905      873.018
05/02/2013  00:32:00      -95.132      -38.449      -12.986       20.276       34.534       15.159      411.135     1192.600      229.789        0.626        0.092      102.608       13.857        0.018      336.603        8.014      873.013
05/02/2013  00:33:00      -91.472      -41.468      -15.450       23.975       22.647       18.499      574.800      512.864      342.197        0.588        0.071      100.432        7.308        0.005      336.449        7.759      873.030
05/02/2013  00:34:00     -103.398      -34.290      -21.834       28.663       26.125       16.054      821.548      682.524      257.729        0.705        0.088      108.935       10.942        0.010      336.584        7.984      873.027
05/02/2013  00:35:00      -79.264      -19.685      -10.457       28.718       26.159       19.054      824.714      684.288      363.061        0.433        0.094       81.671       17.501        0.046      336.576        7.971      873.036
05/02/2013  00:36:00      -89.329      -36.358      -13.932       20.526       25.142       14.901      421.302      632.127      222.047        0.539        0.064       96.444        4.703        0.002      336.629        8.060      873.042
05/02/2013  00:37:00      -87.279      -19.483       -7.667       19.100       22.680       17.925      364.803      514.388      321.320        0.463        0.060       89.427        7.959        0.008      336.519        7.875      873.021
05/02/2013  00:38:00      -71.145      -25.029      -17.768       18.883       18.248       11.157      356.570      332.975      124.477        0.341        0.041       75.419        5.183        0.005      336.531        7.895      873.021
05/02/2013  00:39:00      -92.037      -16.011       -7.808       26.239       27.944       13.808      688.502      780.892      190.669        0.522        0.083       93.419       13.160        0.020      336.695        8.171      873.014
05/02/2013  00:40:00      -64.081      -11.238      -15.133       18.689       13.379       14.168      349.274      179.007      200.741        0.260        0.036       65.059        6.564        0.010      336.580        7.978      873.012
05/02/2013  00:41:00      -46.608      -33.141      -11.520       25.304       17.120       14.213      640.273      293.087      202.008        0.227        0.057       57.190        8.743        0.023      336.763        8.285      873.027
05/02/2013  00:42:00      -70.967      -30.412      -17.722       18.328       16.307       11.445      335.934      265.933      130.993        0.350        0.037       77.209        3.870        0.003      336.603        8.015      873.020
05/02/2013  00:43:00      -96.275      -35.004      -16.962       22.723       12.677       11.120      516.351      160.702      123.665        0.579        0.040      102.441        5.322        0.003      336.457        7.773      873.015
05/02/2013  00:44:00     -116.754      -10.573      -18.080       25.047       20.832       16.930      627.336      433.976      286.611        0.771        0.067      117.232       16.356        0.019      336.389        7.657      873.021
05/02/2013  00:45:00     -116.421      -23.928      -16.456       19.148       21.361       15.712      366.635      456.313      246.856        0.773        0.053      118.855       10.716        0.008      336.331        7.561      873.014
05/02/2013  00:46:00     -132.557      -21.683      -13.539       10.824       22.549       10.749      117.154      508.476      115.538        0.948        0.037      134.318        9.485        0.005      336.296        7.502      873.011
05/02/2013  00:47:00     -121.766      -10.613      -21.879       20.127       20.871       15.552      405.113      435.585      241.860        0.825        0.054      122.227        9.488        0.006      336.415        7.701      873.018
05/02/2013  00:48:00     -114.635      -10.738      -18.014       18.805       21.616       17.041      353.643      467.248      290.401        0.735        0.056      115.137       15.264        0.018      336.491        7.828      873.014
05/02/2013  00:49:00     -117.349      -23.992      -17.212       19.514       18.598       15.175      380.796      345.899      230.275        0.780        0.048      119.776       10.274        0.007      336.392        7.662      873.005
05/02/2013  00:50:00     -151.204       -2.532      -18.680       29.121       23.816       17.049      848.007      567.180      290.665        1.246        0.085      151.225       15.186        0.010      336.210        7.360      873.011
05/02/2013  00:51:00      -93.228      -24.889      -19.680       21.323       24.261       14.680      454.668      588.611      215.508        0.548        0.063       96.494       12.197        0.016      336.226        7.386      873.018
05/02/2013  00:52:00     -108.240      -21.378      -19.442       20.310       19.324       15.985      412.492      373.429      255.520        0.680        0.052      110.331        7.823        0.005      336.239        7.408      873.015
05/02/2013  00:53:00      -95.252      -33.010      -17.946       21.015       34.949       20.014      441.623     1221.457      400.545        0.627        0.103      100.810       14.759        0.021      336.262        7.444      873.008
05/02/2013  00:54:00     -137.480      -31.856      -22.434       33.158       20.265       16.525     1099.427      410.672      273.070        1.110        0.089      141.122        9.059        0.004      336.168        7.287      873.015
05/02/2013  00:55:00     -115.609      -54.336       -8.694       28.539       33.905       23.703      814.501     1149.558      561.850        0.946        0.126      127.741       16.486        0.017      336.159        7.274      873.011
05/02/2013  00:56:00     -119.290      -30.443      -19.389       25.642       28.028       21.120      657.488      785.592      446.053        0.871        0.094      123.113       15.014        0.015      336.214        7.363      873.018
05/02/2013  00:57:00     -107.742      -17.793      -17.418       32.079       28.525       20.485     1029.055      813.686      419.629        0.724        0.113      109.201       18.822        0.030      336.260        7.442      873.023
05/02/2013  00:58:00      -87.147      -26.961      -20.501       21.521       26.545       19.744      463.165      704.618      389.838        0.515        0.078       91.222       17.277        0.036      336.348        7.589      873.027
05/02/2013  00:59:00     -117.274      -16.624      -21.149       21.924       27.762       14.366      480.674      770.732      206.392        0.797        0.073      118.446        7.072        0.004      336.235        7.401      873.039
05/02/2013  01:00:00     -130.157      -53.077      -22.668       36.306       28.161       18.670     1318.154      793.058      348.556        1.137        0.123      140.563        8.080        0.003      336.221        7.376      873.036
05/02/2013  01:01:00     -170.257      -36.011      -28.043       31.777       20.270       17.397     1009.762      410.872      302.671        1.640        0.086      174.023       13.858        0.006      336.063        7.114      873.040
05/02/2013  01:02:00     -135.822      -28.454      -22.840       22.949       26.731       17.196      526.677      714.527      295.703        1.066        0.077      138.770       12.281        0.008      336.045        7.083      873.044
05/02/2013  01:03:00     -114.832      -10.453      -21.598       21.929       17.186       17.101      480.880      295.360      292.430        0.742        0.053      115.307        9.367        0.007      336.066        7.117      873.035
05/02/2013  01:04:00     -130.643      -33.834      -18.705       18.112       24.559       18.097      328.035      603.152      327.515        0.991        0.063      134.953        7.722        0.003      336.143        7.246      873.025
05/02/2013  01:05:00     -114.463      -37.989      -20.369       38.248       29.407       18.445     1462.914      864.772      340.232        0.881        0.133      120.602       18.873        0.024      335.978        6.971      873.014
05/02/2013  01:06:00     -114.943      -12.805      -18.661       27.533       30.297       21.277      758.080      917.917      452.706        0.793        0.106      115.654       14.354        0.015      336.087        7.153      873.004
05/02/2013  01:07:00      -81.867      -33.398       -9.360       25.359       29.916       18.698      643.096      894.977      349.624        0.490        0.094       88.418        7.901        0.008      336.121        7.211      873.010
05/02/2013  01:08:00     -123.414      -24.450      -21.434       16.579       21.368       16.275      274.857      456.571      264.880        0.864        0.050      125.813        7.284        0.003      336.070        7.125      873.001
05/02/2013  01:09:00      -98.957      -37.911      -18.204       26.277       25.625       15.145      690.496      656.627      229.377        0.657        0.079      105.971       12.702        0.014      336.103        7.180      872.999
05/02/2013  01:10:00      -92.971      -34.727      -22.807       24.255       22.158       14.816      588.294      490.981      219.516        0.583        0.065       99.246       10.023        0.010      336.030        7.058      873.009
05/02/2013  01:11:00     -105.924      -44.255      -18.205       26.986       22.267       15.064      728.229      495.841      226.931        0.748        0.073      114.798       10.893        0.009      335.998        7.004      873.006
05/02/2013  01:12:00     -123.261      -20.935      -20.810       15.371       16.334       13.982      236.261      266.788      195.486        0.838        0.035      125.026        9.162        0.005      335.979        6.973      873.005
05/02/2013  01:13:00     -128.222      -31.029      -25.099       22.469       28.794       17.510      504.848      829.118      306.609        0.984        0.082      131.923        7.671        0.003      335.946        6.918      873.013
05/02/2013  01:14:00     -118.476      -59.985       -9.396       28.174       30.976       24.500      793.773      959.489      600.257        1.004        0.118      132.796       19.206        0.021      335.959        6.938      873.011
05/02/2013  01:15:00     -126.494      -40.015      -27.624       27.460       26.539       20.384      754.066      704.331      415.497        1.012        0.094      132.672       18.871        0.020      335.962        6.943      873.017
05/02/2013  01:16:00     -105.285      -19.891      -28.216       21.462       27.894       22.261      460.632      778.077      495.568        0.701        0.087      107.148       14.557        0.018      336.032        7.061      873.023
05/02/2013  01:17:00     -104.478      -52.442      -18.516       30.874       23.249       17.516      953.195      540.505      306.818        0.790        0.090      116.901       12.718        0.012      335.953        6.930      873.015
05/02/2013  01:18:00      -94.917      -14.239      -20.879       25.945       27.493       19.616      673.128      755.891      384.771        0.573        0.091       95.979       10.892        0.013      335.955        6.932      873.012
05/02/2013  01:19:00      -73.539      -25.406      -30.658       20.492       35.536       17.026      419.941     1262.823      289.895        0.448        0.099       77.804       10.505        0.018      336.005        7.015      873.014
05/02/2013  01:20:00      -89.374      -66.258      -13.912       31.032       22.003       19.985      962.983      484.134      399.415        0.721        0.092      111.256       13.125        0.014      336.059        7.106      873.002
05/02/2013  01:21:00     -120.939      -40.356      -18.947       32.359       27.462       20.458     1047.113      754.147      418.530        0.942        0.111      127.494       14.230        0.012      336.025        7.050      873.000
05/02/2013  01:22:00     -127.084      -16.406      -23.896       20.960       18.885       20.333      439.323      356.626      413.440        0.910        0.060      128.139       13.003        0.010      335.928        6.886      872.994
05/02/2013  01:23:00     -126.141      -19.600      -18.866       20.201       19.937       16.748      408.077      397.465      280.508        0.887        0.054      127.655       13.422        0.011      335.847        6.754      872.980
05/02/2013  01:24:00     -115.912      -42.747      -18.151       25.768       29.387       21.804      663.977      863.614      475.413        0.880        0.100      123.543        9.038        0.005      335.905        6.849      872.986
05/02/2013  01:25:00     -127.384      -22.132      -17.753       27.200       21.831       20.372      739.832      476.572      415.012        0.933        0.082      129.293       16.776        0.017      335.914        6.864      872.985
05/02/2013  01:26:00      -87.581      -22.674      -14.941       29.420       27.215       16.995      865.522      740.663      288.820        0.515        0.095       90.468       15.131        0.028      335.930        6.891      872.986
05/02/2013  01:27:00     -100.337      -20.628      -23.803       19.904       19.969       16.941      396.173      398.767      287.005        0.607        0.054      102.435       10.037        0.010      335.934        6.900      872.982
05/02/2013  01:28:00     -108.943      -43.008      -23.040       18.469       20.695       14.054      341.110      428.268      197.506        0.761        0.048      117.125       10.210        0.008      335.984        6.981      872.964
05/02/2013  01:29:00      -95.847      -22.832      -15.272       22.437       21.162       16.406      503.432      447.824      269.160        0.558        0.061       98.529       13.721        0.019      335.820        6.709      872.967
05/02/2013  01:30:00     -109.927      -15.977      -18.610       17.475       19.688       18.375      305.375      387.620      337.635        0.686        0.052      111.082       14.065        0.016      335.798        6.670      872.965
05/02/2013  01:31:00     -113.577      -35.472      -13.662       20.198       25.426       16.621      407.949      646.503      276.243        0.784        0.067      118.988        9.851        0.007      335.801        6.677      872.947
05/02/2013  01:32:00     -131.151      -43.201      -19.315       28.421       25.181       16.021      807.729      634.106      256.688        1.057        0.085      138.083       14.016        0.010      335.747        6.588      872.955
05/02/2013  01:33:00     -130.876      -33.428      -21.637       25.989       31.874       24.283      675.411     1015.959      589.652        1.050        0.114      135.077       14.480        0.011      335.783        6.647      872.957
05/02/2013  01:34:00     -146.588      -24.943      -22.168       33.292       34.460       18.996     1108.344     1187.513      360.850        1.263        0.133      148.695       16.870        0.013      335.849        6.756      872.951
05/02/2013  01:35:00     -117.313      -19.987      -19.791       38.056       25.956       20.182     1448.222      673.706      407.329        0.854        0.126      119.004       15.570        0.017      335.932        6.895      872.952
05/02/2013  01:36:00     -124.097       -7.588      -20.685       21.197       21.568       18.441      449.332      465.181      340.078        0.857        0.063      124.329       13.759        0.012      335.802        6.679      872.964
05/02/2013  01:37:00     -146.375      -16.530      -21.516       26.581       25.871       16.381      706.548      669.312      268.331        1.190        0.082      147.305       13.297        0.008      335.879        6.806      872.961
05/02/2013  01:38:00     -123.516      -11.809      -19.081       24.102       20.981       17.829      580.900      440.188      317.856        0.855        0.067      124.080       14.932        0.014      335.761        6.609      872.974
05/02/2013  01:39:00     -139.518      -28.662      -20.919       21.330       26.700       17.365      454.982      712.885      301.535        1.110        0.073      142.432       10.757        0.006      335.732        6.562      872.988
05/02/2013  01:40:00     -109.087      -20.597      -20.830       23.549       17.436       14.914      554.573      304.011      222.429        0.692        0.054      111.014       11.773        0.011      335.761        6.611      872.996
05/02/2013  01:41:00     -114.756      -32.125      -19.597       16.295       20.971       22.189      265.536      439.765      492.353        0.789        0.060      119.168       10.367        0.008      335.833        6.728      872.994
05/02/2013  01:42:00      -97.822      -56.647      -18.370       25.400       31.544       22.834      645.135      995.034      521.392        0.764        0.108      113.040       11.263        0.010      335.728        6.555      872.993
05/02/2013  01:43:00      -73.590      -49.317      -25.521       35.972       35.201       25.416     1293.980     1239.141      645.976        0.584        0.159       88.587       16.963        0.037      335.656        6.435      872.978
05/02/2013  01:44:00      -71.893      -45.657      -17.075       40.007       38.497       27.371     1600.549     1482.051      749.161        0.569        0.192       85.166       23.681        0.077      335.601        6.343      872.967
05/02/2013  01:45:00      -90.581      -41.434      -31.108       27.910       26.051       22.316      778.948      678.662      497.985        0.642        0.098       99.608       15.121        0.023      335.684        6.483      872.968
05/02/2013  01:46:00     -140.154      -36.599      -20.799       32.816       33.673       18.654     1076.878     1133.881      347.970        1.199        0.128      144.854       13.356        0.009      335.597        6.338      872.967
05/02/2013  01:47:00      -93.293      -32.379      -22.370       35.983       31.223       21.668     1294.759      974.857      469.483        0.650        0.137       98.752       18.252        0.034      335.691        6.494      872.959
05/02/2013  01:48:00     -110.680      -26.210      -26.339       19.524       20.310       16.284      381.204      412.497      265.183        0.734        0.053      113.741       11.966        0.011      335.792        6.662      872.965
05/02/2013  01:49:00     -125.696      -37.779      -29.496       34.542       34.044       20.774     1193.147     1159.022      431.580        1.044        0.139      131.251       17.005        0.017      335.697        6.504      872.961
05/02/2013  01:50:00     -104.194      -24.682      -26.201       27.317       32.983       19.511      746.226     1087.883      380.676        0.718        0.111      107.078       11.429        0.011      335.821        6.710      872.952
05/02/2013  01:51:00     -147.726      -36.164      -18.136       30.548       18.720       18.979      933.165      350.448      360.221        1.255        0.082      152.088       11.179        0.005      335.542        6.245      872.947
05/02/2013  01:52:00     -171.106       -2.896      -27.938       28.291       22.917       16.015      800.359      525.208      256.480        1.582        0.079      171.131        8.624        0.003      335.508        6.188      872.932
05/02/2013  01:53:00     -143.850      -18.664      -26.142       34.442       29.410       16.050     1186.217      864.968      257.587        1.202        0.115      145.056       14.699        0.010      335.520        6.208      872.908
05/02/2013  01:54:00     -108.385      -21.586      -28.389       18.297       22.210       21.133      334.790      493.285      446.618        0.715        0.064      110.514        5.844        0.003      335.718        6.539      872.909
05/02/2013  01:55:00     -126.624      -33.905      -19.599       13.330       17.900       13.627      177.684      320.400      185.690        0.913        0.034      131.084        5.113        0.002      335.872        6.797      872.895
05/02/2013  01:56:00     -111.438      -16.244      -10.252       26.374       25.147       16.478      695.586      632.384      271.512        0.719        0.080      112.616       11.302        0.010      335.639        6.409      872.897
05/02/2013  01:57:00     -110.582      -24.595      -18.378       19.720       19.348       19.922      388.879      374.348      396.889        0.717        0.058      113.284       14.769        0.017      335.714        6.532      872.895
05/02/2013  01:58:00     -123.731      -39.977      -17.798       23.857       20.896       15.683      569.169      436.640      245.955        0.924        0.063      130.029       10.851        0.007      335.683        6.480      872.891
05/02/2013  01:59:00     -118.584      -20.010      -17.424       25.150       30.333       22.554      632.504      920.108      508.673        0.841        0.103      120.261       15.944        0.018      335.510        6.191      872.886
05/02/2013  02:00:00      -79.113      -20.679      -20.361       30.259       29.907       20.325      915.636      894.451      413.113        0.466        0.111       81.771       10.999        0.018      335.509        6.190      872.863
05/02/2013  02:01:00      -94.157      -10.483      -16.515       26.532       18.805       11.719      703.957      353.612      137.330        0.522        0.060       94.739        9.056        0.009      335.556        6.268      872.865
05/02/2013  02:02:00     -116.103      -11.200      -17.153       32.730       27.194       24.605     1071.252      739.502      605.418        0.816        0.121      116.642       15.513        0.018      335.657        6.436      872.852
05/02/2013  02:03:00      -40.475      -28.382       -9.967       43.393       26.870       16.212     1882.995      722.001      262.830        0.270        0.143       49.434       14.732        0.089      335.662        6.447      872.862
05/02/2013  02:04:00     -107.390      -24.240      -15.569       18.253       23.344       12.893      333.187      544.940      166.222        0.670        0.052      110.092        7.898        0.005      335.821        6.710      872.851
05/02/2013  02:05:00      -80.864      -32.619      -14.206       21.390       26.215       14.175      457.548      687.207      200.944        0.458        0.067       87.195       11.455        0.017      335.882        6.814      872.859
05/02/2013  02:06:00      -68.347      -28.426       -7.699       13.934       21.542       13.206      194.148      464.050      174.405        0.319        0.042       74.023       10.613        0.021      335.936        6.901      872.860
05/02/2013  02:07:00      -51.790      -25.245      -11.067       24.603       19.115       13.263      605.307      365.396      175.914        0.229        0.057       57.615       10.497        0.033      335.867        6.787      872.862
05/02/2013  02:08:00      -75.165      -27.540      -14.971       12.556       20.627       12.222      157.648      425.459      149.376        0.368        0.037       80.051        7.587        0.009      335.824        6.715      872.873
05/02/2013  02:09:00      -63.370      -34.687      -12.311       15.457       11.901       11.040      238.912      141.623      121.874        0.294        0.025       72.242        2.805        0.002      335.787        6.654      872.876
05/02/2013  02:10:00      -62.004      -30.699      -16.970       21.803       13.036       10.336      475.350      169.947      106.828        0.291        0.038       69.187        7.049        0.010      335.941        6.910      872.867
05/02/2013  02:11:00      -86.458      -35.158      -18.844       15.157       16.615        9.826      229.733      276.059       96.552        0.483        0.030       93.333        5.985        0.004      335.718        6.539      872.844
05/02/2013  02:12:00      -56.588       -1.707      -13.326       15.812       18.752        7.277      250.007      351.630       52.950        0.202        0.033       56.614        5.627        0.010      336.027        7.055      872.840
05/02/2013  02:13:00      -69.938      -34.833      -18.585       13.403       14.312       10.851      179.646      204.841      117.751        0.348        0.025       78.133        8.597        0.012      335.873        6.796      872.835
05/02/2013  02:14:00      -74.442      -35.288      -23.477       14.792       11.703        9.187      218.799      136.954       84.405        0.389        0.022       82.382        5.891        0.005      335.827        6.719      872.824
05/02/2013  02:15:00      -56.193      -40.265      -14.279       15.333       16.665       12.689      235.114      277.737      161.017        0.283        0.034       69.130        7.635        0.012      335.761        6.611      872.818
05/02/2013  02:16:00      -78.235      -37.485      -14.692       27.831       13.783       11.393      774.543      189.976      129.806        0.442        0.055       86.751        3.059        0.001      335.592        6.328      872.822
05/02/2013  02:17:00      -75.224      -39.440      -18.689       11.620       10.481       11.398      135.035      109.850      129.923        0.397        0.019       84.936        7.055        0.007      335.570        6.292      872.815
05/02/2013  02:18:00      -81.859      -32.188      -13.175       21.366       18.842       10.002      456.511      355.017      100.041        0.441        0.046       87.960        4.441        0.003      335.587        6.321      872.806
05/02/2013  02:19:00      -64.457      -18.635       -9.069        9.031       11.702        7.988       81.552      136.930       63.808        0.243        0.014       67.097        4.920        0.005      335.849        6.757      872.779
05/02/2013  02:20:00      -78.027      -15.203      -13.936       12.968       10.539        9.310      168.164      111.070       86.676        0.344        0.018       79.494        4.794        0.004      335.777        6.636      872.741
05/02/2013  02:21:00      -77.636      -31.631      -15.929        8.617       12.375        8.713       74.246      153.147       75.912        0.379        0.015       83.832        5.507        0.004      335.758        6.607      872.718
05/02/2013  02:22:00      -71.651      -34.591      -22.742       16.217       19.475       11.652      262.993      379.259      135.772        0.381        0.039       79.564        8.021        0.010      335.562        6.278      872.707
05/02/2013  02:23:00      -47.709      -16.538      -10.172       11.862       12.041        8.329      140.716      144.977       69.378        0.150        0.018       50.494        4.620        0.008      335.718        6.540      872.703
05/02/2013  02:24:00      -47.047      -28.632      -17.127       21.413       17.177       17.215      458.511      295.041      296.341        0.219        0.052       55.074        7.392        0.018      335.708        6.522      872.699
05/02/2013  02:25:00     -114.242      -43.780      -20.578       28.474       21.616       15.830      810.762      467.232      250.600        0.846        0.076      122.343        6.998        0.003      335.450        6.091      872.699
05/02/2013  02:26:00     -115.997      -12.438      -15.786       16.810       16.869       13.347      282.563      284.552      178.134        0.730        0.037      116.662        9.901        0.007      335.330        5.891      872.687
05/02/2013  02:27:00     -108.185       -7.370      -21.906       15.826       11.813       12.445      250.450      139.552      154.879        0.639        0.027      108.436        9.123        0.007      335.361        5.942      872.682
05/02/2013  02:28:00      -94.451      -40.544      -11.232       15.144       21.778       12.672      229.335      474.296      160.572        0.578        0.043      102.785        5.490        0.003      335.395        6.000      872.687
05/02/2013  02:29:00      -96.645      -19.136      -16.212       13.241       22.834       11.381      175.329      521.381      129.528        0.540        0.041       98.521        9.101        0.009      335.448        6.088      872.685
05/02/2013  02:30:00      -71.763      -21.151      -20.258       12.159       18.339       10.830      147.835      336.328      117.296        0.330        0.030       74.815        6.910        0.009      335.819        6.708      872.680
05/02/2013  02:31:00      -88.896      -35.699      -19.662       16.096       17.998       10.564      259.073      323.923      111.599        0.513        0.035       95.797        7.089        0.005      335.475        6.133      872.674
05/02/2013  02:32:00      -98.605      -29.227      -16.998       17.055       18.305       12.056      290.863      335.069      145.344        0.582        0.039      102.845        9.499        0.009      335.405        6.018      872.663
05/02/2013  02:33:00     -101.196      -42.412      -21.323       19.898       19.079       15.025      395.931      364.016      225.738        0.674        0.049      109.724       12.189        0.012      335.396        6.002      872.669
05/02/2013  02:34:00     -102.551      -33.449      -17.938       35.776       25.764       20.243     1279.897      663.807      409.792        0.716        0.118      107.868        9.385        0.008      335.363        5.947      872.672
05/02/2013  02:35:00      -91.879      -22.106      -15.518       27.887       27.390       17.206      777.700      750.228      296.054        0.550        0.091       94.501        9.887        0.011      335.342        5.912      872.682
05/02/2013  02:36:00     -101.202      -21.412      -20.867       16.066       20.811       13.837      258.109      433.080      191.467        0.601        0.044      103.443       12.510        0.015      335.381        5.977      872.693
05/02/2013  02:37:00      -89.035      -46.655      -17.705       22.475       19.302       16.290      505.129      372.565      265.372        0.578        0.057      100.518       10.609        0.011      335.377        5.969      872.684
05/02/2013  02:38:00      -93.500      -31.759      -15.009       25.413       21.210       13.683      645.843      449.870      187.216        0.563        0.064       98.746        9.197        0.009      335.343        5.912      872.674
05/02/2013  02:39:00      -84.205       -9.058      -13.955       12.815       21.249       14.706      164.231      451.534      216.272        0.410        0.042       84.691       10.224        0.015      335.361        5.943      872.687
05/02/2013  02:40:00      -75.451       -7.452      -17.320       13.664       16.719       14.843      186.693      279.512      220.320        0.337        0.034       75.818        4.688        0.004      335.614        6.366      872.677
05/02/2013  02:41:00      -42.414      -15.757      -12.075       18.947       13.853       12.363      359.007      191.909      152.833        0.145        0.035       45.246        8.112        0.032      335.626        6.385      872.672
05/02/2013  02:42:00      -82.640      -36.068      -18.266       18.787       14.136       14.754      352.939      199.822      217.695        0.462        0.039       90.168        5.398        0.004      335.547        6.254      872.666
05/02/2013  02:43:00     -120.560      -27.406      -22.379       12.275       18.666       11.516      150.685      348.403      132.624        0.821        0.032      123.635        6.009        0.002      335.302        5.844      872.644
05/02/2013  02:44:00      -90.565      -17.049      -14.723       21.970       18.632        9.549      482.668      347.169       91.178        0.482        0.046       92.156        9.333        0.010      335.258        5.771      872.641
05/02/2013  02:45:00      -86.392      -33.497      -16.708       21.719       15.120       10.378      471.706      228.614      107.705        0.484        0.040       92.658        7.014        0.006      335.287        5.819      872.632
05/02/2013  02:46:00     -102.662      -38.975      -20.484       20.154       21.302       13.586      406.165      453.793      184.590        0.676        0.052      109.811        8.703        0.006      335.316        5.869      872.620
05/02/2013  02:47:00      -94.032      -20.117      -16.064       14.270       19.826       17.342      203.633      393.080      300.742        0.520        0.045       96.160       13.234        0.019      335.330        5.890      872.620
05/02/2013  02:48:00      -89.290      -22.441      -17.025       17.055       17.002       11.584      290.860      289.078      134.193        0.474        0.036       92.067       10.202        0.012      335.351        5.928      872.631
05/02/2013  02:49:00      -79.136      -39.022      -17.985       10.143       16.099       11.341      102.888      259.183      128.621        0.430        0.025       88.234        7.583        0.007      335.482        6.145      872.648
05/02/2013  02:50:00      -62.863      -41.455      -18.050       12.749       17.616       11.679      162.545      310.318      136.391        0.330        0.030       75.301        7.592        0.010      335.500        6.174      872.641
05/02/2013  02:51:00      -99.736      -42.636      -24.250       16.452       16.773       15.173      270.678      281.318      230.222        0.657        0.039      108.467       10.322        0.009      335.265        5.784      872.640
05/02/2013  02:52:00     -123.060      -34.668      -16.518       18.285       24.938       17.934      334.335      621.923      321.615        0.895        0.064      127.850       12.489        0.010      335.175        5.634      872.649
05/02/2013  02:53:00     -108.268       -7.178      -12.186       20.930       19.293       12.085      438.084      372.228      146.043        0.644        0.048      108.505        5.614        0.003      335.297        5.837      872.647
05/02/2013  02:54:00      -77.572      -24.561      -17.039       15.414       21.283       12.102      237.584      452.963      146.465        0.387        0.042       81.367        9.875        0.015      335.411        6.025      872.649
05/02/2013  02:55:00      -72.118      -44.064      -13.519       33.399       19.138       13.853     1115.513      366.272      191.893        0.450        0.084       84.514        5.033        0.004      335.425        6.050      872.647
05/02/2013  02:56:00     -120.220      -47.759      -20.254       23.746       19.910       21.689      563.863      396.415      470.397        0.929        0.072      129.359       15.339        0.014      335.268        5.788      872.646
05/02/2013  02:57:00     -130.514      -50.284      -26.837       27.774       22.536       16.907      771.376      507.883      285.848        1.092        0.078      139.865       11.823        0.007      335.281        5.810      872.648
05/02/2013  02:58:00     -153.721      -18.311      -29.142       25.070       19.265       14.488      628.505      371.137      209.898        1.301        0.060      154.808        5.248        0.001      335.277        5.803      872.637
05/02/2013  02:59:00     -106.723      -22.284       -8.798       24.468       31.834       18.360      598.670     1013.433      337.073        0.696        0.097      109.024       13.926        0.016      335.337        5.905      872.647
05/02/2013  03:00:00      -81.677       -1.855       -1.912       33.991       23.878       15.895     1155.420      570.153      252.641        0.433        0.099       81.698       14.671        0.032      335.432        6.062      872.659
05/02/2013  03:01:00      -89.779        6.324      -11.801       23.502       18.644       10.486      552.331      347.604      109.965        0.462        0.050       90.002        7.182        0.006      335.826        6.718      872.666
05/02/2013  03:02:00      -73.720      -21.317      -19.639       18.236       12.975        9.569      332.541      168.352       91.559        0.343        0.030       76.740        7.733        0.010      335.764        6.615      872.668
05/02/2013  03:03:00     -113.809      -45.637      -19.438       13.712       18.188        9.602      188.006      330.815       92.206        0.801        0.031      122.618        6.155        0.003      335.359        5.941      872.661
05/02/2013  03:04:00     -157.341      -74.816      -16.823       20.896       26.683       17.906      436.633      711.965      320.637        1.605        0.073      174.223       11.791        0.005      335.368        5.954      872.660
05/02/2013  03:05:00     -139.945      -25.988      -10.516       31.973       22.860       17.354     1022.257      522.592      301.147        1.111        0.092      142.338       15.215        0.011      335.306        5.851      872.671
05/02/2013  03:06:00      -87.640       -6.137       -3.908       25.407       20.412       16.830      645.511      416.661      283.249        0.454        0.067       87.854       14.901        0.029      335.220        5.707      872.689
05/02/2013  03:07:00     -121.474        3.483      -15.542       12.546       12.072        9.487      157.397      145.727       90.011        0.770        0.020      121.524        4.792        0.002      335.231        5.727      872.683
05/02/2013  03:08:00      -94.619       -6.363      -10.336       26.068       20.657       16.167      679.529      426.697      261.373        0.523        0.068       94.833       16.122        0.029      335.144        5.582      872.711
05/02/2013  03:09:00     -115.360      -15.211      -13.639       37.818       19.051       17.467     1430.173      362.941      305.110        0.791        0.105      116.359       20.657        0.032      335.322        5.877      872.716
05/02/2013  03:10:00     -111.029      -35.891      -19.020       17.893       24.526       10.877      320.169      601.503      118.317        0.751        0.052      116.686        6.791        0.003      335.205        5.685      872.705
05/02/2013  03:11:00     -126.753      -27.046      -20.075       19.443       29.876       15.543      378.042      892.605      241.591        0.936        0.076      129.607       12.020        0.009      335.168        5.624      872.695
05/02/2013  03:12:00     -100.214       17.223       -5.859       31.302       29.326       15.899      979.822      859.989      252.788        0.623        0.105      101.683        5.473        0.003      335.278        5.806      872.701
05/02/2013  03:13:00      -78.160        7.084       -9.580       34.055       39.543       13.659     1159.759     1563.677      186.577        0.458        0.146       78.481        6.457        0.007      335.555        6.267      872.695
05/02/2013  03:14:00      -12.898      -28.667      -12.556       21.282       20.991       12.422      452.940      440.608      154.297        0.110        0.052       31.435        7.592        0.058      335.347        5.918      872.713
05/02/2013  03:15:00      -77.188      -40.056      -12.447       15.385       24.997       11.022      236.709      624.829      121.484        0.435        0.049       86.962        4.606        0.003      335.301        5.842      872.717
05/02/2013  03:16:00      -79.525      -49.464      -10.259       31.586       24.138       21.465      997.674      582.632      460.728        0.546        0.102       93.653       13.578        0.021      335.163        5.613      872.702
05/02/2013  03:17:00      -55.160       -6.093       -7.721       27.868       18.155       14.921      776.638      329.607      222.643        0.223        0.066       55.495       14.316        0.067      335.212        5.695      872.723
05/02/2013  03:18:00      -43.095      -33.646      -11.316       23.358       15.283       10.724      545.587      233.566      115.013        0.201        0.045       54.673        6.345        0.013      335.358        5.939      872.729
05/02/2013  03:19:00     -107.937      -46.674      -16.262       19.734       22.560       11.450      389.425      508.946      131.101        0.756        0.051      117.596        8.482        0.005      335.139        5.573      872.728
05/02/2013  03:20:00      -94.005      -18.769      -10.758       21.701       13.350       14.186      470.950      178.211      201.256        0.508        0.043       95.861       10.580        0.012      335.020        5.377      872.727
05/02/2013  03:21:00      -90.331      -11.314      -18.347       11.358       13.595       10.088      129.005      184.812      101.767        0.452        0.021       91.036        6.850        0.006      335.182        5.646      872.743
05/02/2013  03:22:00      -63.741      -16.905      -11.762       14.735       11.347       10.119      217.135      128.745      102.387        0.247        0.022       65.944        6.582        0.010      335.297        5.837      872.738
05/02/2013  03:23:00      -68.138      -25.055      -16.709        9.459       13.653        9.811       89.471      186.404       96.250        0.296        0.019       72.598        7.685        0.011      335.281        5.808      872.734
05/02/2013  03:24:00      -72.269      -31.308      -15.403       17.276       18.310       10.735      298.452      335.271      115.244        0.359        0.037       78.759        4.555        0.003      335.232        5.729      872.731
05/02/2013  03:25:00      -84.781      -30.862      -16.317       12.560       15.087       11.644      157.760      227.615      135.578        0.446        0.026       90.223        6.946        0.006      335.206        5.685      872.738
05/02/2013  03:26:00      -80.632      -16.175      -17.771       11.946       17.109       10.385      142.706      292.723      107.850        0.381        0.027       82.239        4.834        0.003      335.178        5.638      872.742
05/02/2013  03:27:00      -72.924      -29.908      -11.251       17.484       20.611       10.798      305.678      424.802      116.608        0.359        0.042       78.819        4.880        0.004      335.127        5.555      872.740
05/02/2013  03:28:00      -69.715      -35.336      -10.987       11.835       12.405       13.029      140.060      153.880      169.767        0.335        0.023       78.159        7.862        0.010      335.143        5.581      872.744
05/02/2013  03:29:00      -75.830      -36.419      -13.978       14.659       18.781       10.770      214.878      352.725      116.001        0.398        0.034       84.122        6.251        0.006      335.184        5.650      872.739
05/02/2013  03:30:00      -81.798      -22.164      -16.224       15.247       13.968        8.671      232.465      195.117       75.181        0.397        0.025       84.748        5.301        0.004      335.432        6.063      872.741
05/02/2013  03:31:00     -120.213      -37.772      -20.440       21.473       20.098       11.336      461.070      403.910      128.495        0.864        0.050      126.007        6.008        0.002      335.019        5.376      872.729
05/02/2013  03:32:00     -129.962      -22.717      -28.478       25.378       22.544       13.892      644.068      508.228      192.980        0.978        0.067      131.932        9.011        0.005      334.950        5.262      872.731
05/02/2013  03:33:00     -150.823      -14.807      -26.060       22.379       17.439       17.328      500.824      304.121      300.266        1.238        0.055      151.548       11.520        0.006      334.901        5.179      872.724
05/02/2013  03:34:00     -138.992       -2.458      -22.317       24.765       14.658       13.290      613.325      214.869      176.615        1.041        0.050      139.014        7.530        0.003      335.009        5.359      872.733
05/02/2013  03:35:00      -80.847       -0.407      -15.819       12.633       31.691       11.210      159.594     1004.312      125.656        0.404        0.064       80.848        9.666        0.014      335.190        5.659      872.729
05/02/2013  03:36:00      -53.363      -38.096      -13.383       46.256       15.338       17.386     2139.645      235.258      302.266        0.358        0.134       65.567       15.980        0.059      335.094        5.501      872.741
05/02/2013  03:37:00      -30.991      -41.435      -15.904       27.408       16.713       13.285      751.189      279.325      176.495        0.207        0.060       51.742       11.607        0.050      335.333        5.897      872.766
05/02/2013  03:38:00      -69.319      -22.622      -17.141       14.163        9.621        8.891      200.583       92.572       79.043        0.299        0.019       72.917        7.841        0.012      335.259        5.773      872.767
05/02/2013  03:39:00      -73.555      -19.344      -15.891       15.521       14.829       12.599      240.894      219.885      158.747        0.333        0.031       76.056       10.614        0.019      335.163        5.615      872.785
05/02/2013  03:40:00      -83.450      -22.413      -16.708       16.807       17.133       12.387      282.478      293.547      153.436        0.424        0.036       86.408        9.373        0.012      335.094        5.499      872.797
05/02/2013  03:41:00      -89.575      -36.490      -19.036       18.067       13.511       10.463      326.426      182.537      109.470        0.517        0.031       96.722        7.224        0.006      335.097        5.505      872.801
05/02/2013  03:42:00     -112.599      -28.374      -20.204       19.440       21.497       13.846      377.927      462.106      191.724        0.746        0.052      116.119       12.676        0.012      334.927        5.223      872.806
05/02/2013  03:43:00     -120.549      -12.792      -18.858       27.274       21.460       18.506      743.880      460.548      342.482        0.830        0.077      121.225       17.002        0.020      334.912        5.198      872.807
05/02/2013  03:44:00     -128.292        0.781      -18.937       22.665       18.706       13.741      513.722      349.919      188.821        0.894        0.053      128.294       11.515        0.008      334.963        5.283      872.802
05/02/2013  03:45:00     -120.868       -4.769      -21.441       14.614       13.962       13.467      213.578      194.926      181.355        0.784        0.029      120.962        8.251        0.005      335.083        5.481      872.785
05/02/2013  03:46:00     -109.855       -1.321      -26.581       14.462       17.825       11.096      209.158      317.732      123.114        0.671        0.033      109.863        8.389        0.006      335.095        5.501      872.778
05/02/2013  03:47:00      -94.640      -37.930      -20.451       17.018       26.381       12.522      289.601      695.980      156.810        0.598        0.057      101.958       12.389        0.015      335.046        5.419      872.780
05/02/2013  03:48:00     -110.877        5.468      -20.982       13.003       13.323       12.186      169.071      177.493      148.508        0.663        0.025      111.012        8.976        0.007      335.451        6.093      872.768
05/02/2013  03:49:00      -58.624      -35.531      -17.138       29.442       19.425       16.438      866.823      377.326      270.209        0.325        0.076       68.551        5.226        0.006      335.099        5.509      872.778
05/02/2013  03:50:00      -66.410      -31.505      -22.559       13.750       17.228        8.027      189.074      296.787       64.440        0.323        0.028       73.504        4.113        0.003      335.301        5.845      872.787
05/02/2013  03:51:00      -66.131      -15.628      -12.034       20.114       24.995        8.797      404.569      624.730       77.390        0.293        0.055       67.953        6.927        0.010      335.220        5.710      872.774
05/02/2013  03:52:00      -65.244      -10.714      -11.610       16.859       34.164        8.858      284.223     1167.200       78.472        0.302        0.076       66.118        6.973        0.011      335.429        6.056      872.768
05/02/2013  03:53:00      -65.435      -22.310      -15.010       14.350       21.047       13.211      205.922      442.974      174.529        0.291        0.041       69.134       10.078        0.021      335.276        5.802      872.774
05/02/2013  03:54:00      -76.252      -19.615      -18.750       13.119       16.773        8.840      172.106      281.337       78.143        0.354        0.027       78.735        6.660        0.007      335.156        5.604      872.765
05/02/2013  03:55:00      -67.415       -7.850       -7.106       12.081       12.308        7.743      145.954      151.479       59.949        0.251        0.018       67.870        5.907        0.008      335.291        5.827      872.762
05/02/2013  03:56:00      -59.202       -1.632      -10.396       12.503       15.984        7.997      156.320      255.496       63.948        0.205        0.024       59.225        7.979        0.018      335.385        5.983      872.765
05/02/2013  03:57:00      -57.951      -17.730      -14.167       10.926       11.936        8.878      119.374      142.476       78.812        0.211        0.017       60.603        3.049        0.003      335.187        5.655      872.759
05/02/2013  03:58:00      -51.579      -16.680      -10.792       19.575       10.850        9.927      383.165      117.733       98.547        0.183        0.030       54.208        8.355        0.024      335.289        5.824      872.753
05/02/2013  03:59:00      -55.303      -52.283      -16.175       21.299       21.047       14.829      453.635      442.976      219.907        0.358        0.056       76.105       11.631        0.023      335.093        5.499      872.763
05/02/2013  04:00:00      -77.338      -38.108       -9.999       29.507       18.811       11.910      870.642      353.873      141.842        0.445        0.068       86.217        8.627        0.010      334.930        5.228      872.768
05/02/2013  04:01:00     -102.142       -2.715      -19.745       15.103       13.762        8.348      228.106      189.381       69.693        0.566        0.024      102.178        3.987        0.002      334.962        5.280      872.767
05/02/2013  04:02:00      -79.949      -13.956      -11.068       27.996       19.895       13.199      783.758      395.822      174.211        0.403        0.068       81.158        9.056        0.012      335.152        5.597      872.777
05/02/2013  04:03:00      -74.717      -20.275      -15.944       21.792       18.937       12.625      474.908      358.624      159.401        0.362        0.050       77.419        6.969        0.008      335.278        5.806      872.770
05/02/2013  04:04:00      -67.683      -43.298      -14.901       17.672       18.403       12.520      312.297      338.685      156.757        0.374        0.040       80.347        4.067        0.003      335.230        5.727      872.767
05/02/2013  04:05:00      -66.901      -24.288      -19.005       18.100       17.225       10.111      327.615      296.687      102.224        0.308        0.036       71.174        5.863        0.007      335.364        5.949      872.765
05/02/2013  04:06:00      -79.917      -38.244      -10.627       18.363       20.981       10.324      337.204      440.197      106.579        0.442        0.044       88.597        3.907        0.002      335.263        5.782      872.767
05/02/2013  04:07:00      -80.712      -18.524      -17.566       11.474       12.478        8.210      131.653      155.690       67.403        0.376        0.018       82.810        5.236        0.004      335.185        5.651      872.772
05/02/2013  04:08:00      -69.742      -25.529      -15.396       19.974       24.270       10.851      398.976      589.056      117.737        0.343        0.055       74.267        3.029        0.002      335.343        5.914      872.774
05/02/2013  04:09:00      -72.259      -19.467      -11.896       29.514       14.066       17.570      871.070      197.855      308.700        0.356        0.069       74.835       17.351        0.054      335.347        5.920      872.775
05/02/2013  04:10:00      -72.689      -23.971      -17.495       21.059       23.114        8.708      443.474      534.275       75.822        0.361        0.053       76.539        5.679        0.006      335.176        5.637      872.774
05/02/2013  04:11:00      -76.650      -23.201       -9.994       29.316       14.768       13.358      859.444      218.081      178.443        0.388        0.063       80.085        8.569        0.011      335.413        6.034      872.760
05/02/2013  04:12:00      -48.874       -8.254       -7.484       27.240       20.221        9.103      742.008      408.886       82.868        0.187        0.062       49.566       10.846        0.048      335.527        6.220      872.741
05/02/2013  04:13:00      -16.747      -12.504       -0.173       19.162       13.684       13.737      367.194      187.254      188.718        0.059        0.037       20.900        7.585        0.132      335.736        6.570      872.728
05/02/2013  04:14:00      -39.672      -40.604       -7.793       18.939       18.298       12.240      358.703      334.814      149.823        0.206        0.042       56.768        4.861        0.007      335.460        6.108      872.710
05/02/2013  04:15:00      -16.666      -21.068       -9.753       10.070       19.666       10.772      101.397      386.769      116.042        0.071        0.030       26.863        9.471        0.124      335.392        5.996      872.706
05/02/2013  04:16:00      -22.834       -3.044       -3.317       17.136       14.911       11.729      293.638      222.330      137.573        0.060        0.033       23.036        7.089        0.095      335.668        6.455      872.701
05/02/2013  04:17:00      -11.499        1.584       -1.376       21.149       13.093        8.990      447.277      171.436       80.816        0.042        0.035       11.607       10.370        0.798      335.826        6.720      872.687
05/02/2013  04:18:00       -3.871        0.467       -0.647       27.779       25.468       15.659      771.689      648.595      245.214        0.084        0.083        3.899       16.117       17.083      335.695        6.500      872.691
05/02/2013  04:19:00      -19.536       10.615       -1.864       24.296       28.476       15.617      590.319      810.872      243.898        0.107        0.082       22.234       14.768        0.441      335.806        6.685      872.689
05/02/2013  04:20:00      -16.391       66.929       -8.059       31.056       48.870       15.762      964.461     2388.265      248.438        0.421        0.180       68.907       16.591        0.058      336.252        7.431      872.700
05/02/2013  04:21:00       15.266      117.334      -19.293       20.731       19.820       14.324      429.755      392.846      205.172        0.770        0.051      118.323       10.171        0.007      336.421        7.712      872.713
05/02/2013  04:22:00        5.602       97.783       -7.341       17.106       29.303       10.929      292.598      858.659      119.445        0.546        0.064       97.943        9.499        0.009      336.335        7.567      872.720
05/02/2013  04:23:00        9.087       35.406       -4.073       18.687       28.154       16.268      349.203      792.653      264.637        0.138        0.070       36.553       13.187        0.130      335.962        6.944      872.729
05/02/2013  04:24:00      -12.987       22.189       -0.929       25.484       31.981       17.921      649.454     1022.797      321.167        0.133        0.100       25.710       19.107        0.552      335.524        6.217      872.736
05/02/2013  04:25:00      -20.661       -2.699       -2.041       31.850       24.171       20.748     1014.440      584.228      430.480        0.123        0.101       20.836       10.903        0.274      335.717        6.537      872.724
05/02/2013  04:26:00       -5.530       96.319      -16.720       24.509       22.279       13.458      600.674      496.352      181.123        0.543        0.064       96.478       12.687        0.017      336.377        7.638      872.712
05/02/2013  04:27:00       21.491      124.673      -16.767       20.641       15.167       12.106      426.040      230.046      146.559        0.854        0.040      126.512       10.569        0.007      336.449        7.759      872.713
05/02/2013  04:28:00       14.723       91.310      -10.485       26.941       29.932       15.751      725.813      895.922      248.090        0.527        0.093       92.489       13.594        0.022      336.355        7.602      872.723
05/02/2013  04:29:00      -40.909        2.034       -3.836       23.502       35.197       14.669      552.359     1238.834      215.168        0.185        0.100       40.960       15.285        0.139      335.717        6.538      872.734
05/02/2013  04:30:00      -85.478      -13.616      -13.839       13.366       13.148        9.893      178.638      172.866       97.868        0.407        0.022       86.556        6.984        0.007      334.711        4.864      872.723
05/02/2013  04:31:00      -59.090        1.462       -9.707       18.892       11.169       10.143      356.919      124.740      102.890        0.209        0.029       59.108        7.247        0.015      335.035        5.402      872.713
05/02/2013  04:32:00      -32.692       -4.938       -6.627       24.525       20.100       14.014      601.462      404.028      196.383        0.117        0.060       33.063       12.986        0.154      335.536        6.236      872.713
05/02/2013  04:33:00      -87.843      -31.984      -15.769       15.404       15.176       12.099      237.298      230.320      146.377        0.480        0.031       93.484        7.254        0.006      334.734        4.903      872.723
05/02/2013  04:34:00     -104.577      -35.118      -21.204       20.313       26.194       11.606      412.628      686.150      134.689        0.693        0.062      110.316        6.499        0.003      334.753        4.934      872.747
05/02/2013  04:35:00     -124.661      -19.965      -23.855       21.246       16.755       14.240      451.410      280.746      202.780        0.872        0.047      126.250       13.272        0.011      334.805        5.020      872.768
05/02/2013  04:36:00     -121.510      -10.422      -18.644       26.619       17.828       14.672      708.550      317.842      215.255        0.823        0.062      121.956       14.598        0.014      334.806        5.023      872.779
05/02/2013  04:37:00     -118.183      -19.144      -20.489       25.667       24.891       13.852      658.802      619.557      191.872        0.811        0.074      119.723        8.358        0.005      334.818        5.041      872.795
05/02/2013  04:38:00     -134.820       -2.143      -24.639       20.834       19.122       15.604      434.052      365.657      243.493        0.992        0.052      134.838       10.819        0.006      334.887        5.156      872.810
05/02/2013  04:39:00      -91.215      -22.906      -12.422       30.883       27.685       15.302      953.767      766.461      234.143        0.548        0.098       94.047       14.165        0.023      334.864        5.117      872.813
05/02/2013  04:40:00      -79.664      -32.424      -11.010       19.022       22.249       15.817      361.835      495.027      250.171        0.431        0.055       86.010       10.749        0.016      334.904        5.185      872.817
05/02/2013  04:41:00     -107.792       -6.342      -18.069       27.872       31.005       14.477      776.864      961.339      209.575        0.697        0.097      107.978       12.667        0.014      334.982        5.313      872.826
05/02/2013  04:42:00      -85.844      -16.787      -16.196       24.450       21.766       14.959      597.779      473.774      223.780        0.460        0.065       87.470       10.288        0.014      334.877        5.140      872.819
05/02/2013  04:43:00      -96.046      -13.099      -20.944       11.797       16.158       11.510      139.166      261.085      132.479        0.518        0.027       96.935        2.728        0.001      334.823        5.048      872.830
05/02/2013  04:44:00      -84.146      -21.057      -12.149       18.311       17.223       15.448      335.284      296.645      238.627        0.427        0.044       86.740        9.659        0.012      334.823        5.048      872.831
05/02/2013  04:45:00      -96.883      -23.257      -20.069       13.736       23.541       15.710      188.668      554.186      246.815        0.566        0.049       99.635       13.631        0.019      334.826        5.055      872.837
05/02/2013  04:46:00     -102.717      -22.063      -16.835       23.275       15.640       15.346      541.736      244.620      235.515        0.617        0.051      105.059        9.895        0.009      334.735        4.904      872.831
05/02/2013  04:47:00      -87.147      -20.797      -15.914       21.894       16.173       13.640      479.363      261.581      186.049        0.460        0.046       89.594        4.511        0.003      334.814        5.035      872.831
05/02/2013  04:48:00     -104.174      -35.585      -21.187       12.533       17.255       12.732      157.068      297.719      162.101        0.659        0.031      110.084        5.135        0.002      334.744        4.918      872.832
05/02/2013  04:49:00     -113.862      -10.247      -21.761       16.188       14.642       15.442      262.045      214.389      238.446        0.713        0.036      114.322        8.823        0.006      334.742        4.916      872.833
05/02/2013  04:50:00      -94.728      -18.497      -15.711       17.452       21.856       15.565      304.567      477.701      242.275        0.529        0.051       96.517       13.844        0.021      334.798        5.009      872.836
05/02/2013  04:51:00      -97.870      -24.307      -19.765       24.982       27.397       17.434      624.094      750.605      303.961        0.612        0.084      100.843       13.941        0.019      334.866        5.120      872.840
05/02/2013  04:52:00     -101.042      -37.820      -17.653       12.368       14.577       14.101      152.958      212.480      198.834        0.626        0.028      107.888        4.439        0.002      334.827        5.056      872.848
05/02/2013  04:53:00     -109.452      -28.541      -20.252       17.421       20.442       14.886      303.482      417.885      221.607        0.707        0.047      113.112        9.087        0.006      334.733        4.900      872.853
05/02/2013  04:54:00     -128.912      -29.470      -21.632       20.802       21.219       17.067      432.714      450.233      291.282        0.956        0.059      132.238       10.935        0.007      334.758        4.942      872.854
05/02/2013  04:55:00     -105.787      -30.027      -14.129       39.829       35.658       22.229     1586.379     1271.510      494.129        0.782        0.168      109.966       17.162        0.024      334.659        4.776      872.859
05/02/2013  04:56:00     -126.208       -9.801      -16.537       35.310       36.729       23.506     1246.778     1349.032      552.522        0.972        0.157      126.588       14.012        0.012      334.693        4.833      872.866
05/02/2013  04:57:00     -141.342      -10.877      -21.663       34.132       24.803       19.337     1165.012      615.173      373.918        1.136        0.108      141.760        9.872        0.005      334.741        4.913      872.858
05/02/2013  04:58:00     -119.052      -36.944      -17.118       33.768       28.362       19.728     1140.268      804.425      389.175        0.908        0.117      124.652       14.592        0.014      334.643        4.750      872.855
05/02/2013  04:59:00      -71.804      -18.744       -6.040       37.931       35.667       20.763     1438.779     1272.123      431.113        0.434        0.157       74.211       18.155        0.060      334.674        4.803      872.862
05/02/2013  05:00:00      -52.619      -31.816        1.338       40.995       35.468       27.479     1680.571     1257.959      755.118        0.374        0.185       61.490       28.441        0.214      334.705        4.854      872.863
05/02/2013  05:01:00      -20.649      -32.477       21.655       34.636       32.882       28.107     1199.683     1081.199      790.015        0.251        0.154       38.485       25.437        0.437      334.644        4.753      872.856
05/02/2013  05:02:00      -75.075      -40.357       -3.761       33.948       33.797       19.907     1152.492     1142.255      396.283        0.498        0.135       85.234       16.291        0.037      334.723        4.882      872.858
05/02/2013  05:03:00     -106.094      -31.474      -17.967       36.548       32.937       18.414     1335.754     1084.822      339.077        0.766        0.138      110.664       14.926        0.018      334.853        5.100      872.855
05/02/2013  05:04:00      -97.388      -17.409      -13.775       30.061       26.871       15.063      903.634      722.030      226.904        0.591        0.093       98.932       15.245        0.024      334.763        4.949      872.849
05/02/2013  05:05:00     -120.452      -10.195      -15.284       32.312       37.577       22.422     1044.039     1412.043      502.751        0.890        0.148      120.883       17.938        0.022      334.820        5.044      872.847
05/02/2013  05:06:00     -112.443      -19.577      -16.618       39.226       30.482       20.948     1538.686      929.161      438.837        0.810        0.145      114.134       15.768        0.019      334.820        5.045      872.850
05/02/2013  05:07:00      -74.007       -8.403      -11.625       30.324       28.102       22.161      919.563      789.721      491.123        0.394        0.110       74.483       18.586        0.062      334.714        4.869      872.849
05/02/2013  05:08:00      -81.617      -29.277      -14.027       27.611       29.730       18.897      762.358      883.873      357.081        0.486        0.100       86.709       10.910        0.016      334.742        4.914      872.849
05/02/2013  05:09:00      -84.697      -24.073      -19.709       28.288       24.276       22.491      800.209      589.311      505.824        0.502        0.095       88.052       15.158        0.030      334.805        5.021      872.855
05/02/2013  05:10:00      -95.497       -9.669      -21.017       22.143       16.690       15.765      490.292      278.545      248.521        0.534        0.051       95.986        9.414        0.010      334.871        5.131      872.855
05/02/2013  05:11:00      -95.792      -38.334      -22.333       27.573       25.457       18.995      760.249      648.044      360.815        0.646        0.088      103.177       11.187        0.012      334.859        5.108      872.837
05/02/2013  05:12:00     -100.547      -32.483      -21.794       21.512       22.967       17.336      462.750      527.498      300.538        0.647        0.065      105.664        6.223        0.003      334.750        4.927      872.827
05/02/2013  05:13:00     -130.155      -32.054      -19.938       24.036       18.552       11.623      577.737      344.165      135.096        0.971        0.053      134.044        6.372        0.002      334.663        4.785      872.825
05/02/2013  05:14:00     -144.718      -38.495      -25.404       17.113       16.747       13.222      292.842      280.448      174.825        1.191        0.037      149.750        9.378        0.004      334.608        4.691      872.820
05/02/2013  05:15:00     -182.703       -6.282      -29.392       18.212       17.023        9.675      331.673      289.784       93.599        1.750        0.036      182.811        6.007        0.001      334.583        4.651      872.813
05/02/2013  05:16:00     -117.030      -18.070      -29.184       24.498       24.776       16.360      600.143      613.863      267.636        0.818        0.074      118.416        4.372        0.001      334.574        4.635      872.803
05/02/2013  05:17:00      -89.044      -12.813      -32.447       16.918       21.486       13.173      286.229      461.652      173.538        0.503        0.046       89.961       12.466        0.019      334.947        5.256      872.821
05/02/2013  05:18:00      -86.968      -30.820      -14.030       23.231       18.511       16.618      539.685      342.639      276.172        0.493        0.058       92.267       10.260        0.012      334.718        4.875      872.835
05/02/2013  05:19:00      -93.653      -34.325      -10.608       20.400       29.157       18.441      416.166      850.105      340.078        0.583        0.080       99.745       10.281        0.011      334.655        4.771      872.839
05/02/2013  05:20:00     -111.085      -36.507      -20.244       17.292       26.270       16.891      299.023      690.119      285.304        0.768        0.064      116.930       12.740        0.012      334.612        4.699      872.839
05/02/2013  05:21:00     -139.062      -25.413      -25.095       42.739       21.849       14.502     1826.644      477.396      210.319        1.156        0.126      141.365        9.159        0.004      334.552        4.601      872.849
05/02/2013  05:22:00      -92.691      -40.727      -18.654       32.291       25.292       23.258     1042.740      639.689      540.942        0.641        0.111      101.244       17.823        0.031      334.470        4.464      872.856
05/02/2013  05:23:00      -85.911      -12.202       -5.178       30.423       27.449       22.286      925.535      753.426      496.675        0.487        0.109       86.773       21.231        0.060      334.518        4.543      872.856
05/02/2013  05:24:00     -103.322       -3.654      -22.019       22.610       12.598       11.579      511.213      158.722      134.079        0.599        0.040      103.387       11.170        0.012      334.539        4.578      872.847
05/02/2013  05:25:00     -106.930      -16.272      -21.510       16.270       15.439       11.782      264.717      238.361      138.822        0.640        0.032      108.161        6.452        0.004      334.680        4.811      872.834
05/02/2013  05:26:00      -92.563      -31.953      -19.965       15.034       14.533       11.446      226.019      211.218      131.012        0.528        0.028       97.922        7.805        0.006      334.692        4.832      872.815
05/02/2013  05:27:00      -97.563      -40.924      -23.117       13.455       15.187       11.994      181.040      230.648      143.857        0.614        0.028      105.798        8.119        0.006      334.574        4.636      872.806
05/02/2013  05:28:00      -73.892      -51.526      -19.829       30.154       31.447       15.762      909.238      988.896      248.447        0.533        0.107       90.083       11.159        0.015      334.655        4.771      872.801
05/02/2013  05:29:00      -93.139      -29.357      -18.273       23.748       22.971       21.569      563.949      527.686      465.228        0.571        0.078       97.657        9.956        0.010      334.565        4.621      872.818
05/02/2013  05:30:00      -98.898      -18.743      -16.050       21.777       18.557       13.165      474.236      344.369      173.319        0.569        0.050      100.658        8.109        0.006      334.707        4.857      872.826
05/02/2013  05:31:00     -114.605       -6.523      -23.848       16.052       12.064       12.071      257.680      145.531      145.711        0.715        0.027      114.791        5.015        0.002      334.468        4.460      872.830
05/02/2013  05:32:00     -103.644      -14.980      -23.016       12.302       14.495        9.668      151.329      210.096       93.473        0.598        0.023      104.721        6.041        0.003      334.502        4.516      872.838
05/02/2013  05:33:00      -86.222       -5.002      -19.598       13.385       10.103       11.834      179.159      102.066      140.033        0.413        0.021       86.366        5.697        0.004      334.811        5.031      872.848
05/02/2013  05:34:00      -39.826      -34.144      -13.862       26.888       14.404       12.050      722.950      207.484      145.211        0.201        0.054       52.459        5.612        0.011      334.795        5.003      872.857
05/02/2013  05:35:00      -31.525      -31.418       -5.107       14.823       12.046       10.989      219.718      145.110      120.766        0.125        0.024       44.507        4.932        0.012      334.749        4.927      872.859
05/02/2013  05:36:00      -87.089      -23.479      -21.842       23.364       12.693       15.069      545.855      161.121      227.063        0.477        0.047       90.198       13.659        0.023      334.575        4.639      872.847
05/02/2013  05:37:00      -96.828      -22.006      -14.719       15.975       25.527       12.338      255.211      651.625      152.229        0.557        0.053       99.298        6.963        0.005      334.443        4.420      872.840
05/02/2013  05:38:00      -96.026      -22.804      -18.262       18.001       23.493       19.826      324.040      551.905      393.075        0.567        0.063       98.697       10.900        0.012      334.632        4.733      872.848
05/02/2013  05:39:00     -103.384      -29.077      -19.196       15.902       23.691       15.356      252.859      561.280      235.794        0.648        0.052      107.395       12.420        0.013      334.419        4.380      872.849
05/02/2013  05:40:00      -78.266      -24.701      -18.155       23.991       28.368       13.091      575.586      804.768      171.377        0.431        0.078       82.071        9.246        0.013      334.426        4.391      872.859
05/02/2013  05:41:00      -66.150      -50.726      -13.293       27.752       15.694       20.002      770.178      246.287      400.072        0.427        0.071       83.361       14.651        0.031      334.453        4.435      872.877
05/02/2013  05:42:00      -78.878      -65.518      -24.064       22.058       33.102       20.880      486.577     1095.773      435.981        0.656        0.101      102.540       13.637        0.018      334.435        4.405      872.900
05/02/2013  05:43:00     -117.542      -34.519      -21.867       27.554       29.149       22.179      759.230      849.665      491.892        0.879        0.105      122.505       11.309        0.009      334.379        4.312      872.927
05/02/2013  05:44:00      -91.695      -48.620      -17.891       20.943       32.576       14.951      438.614     1061.172      223.539        0.641        0.086      103.788        6.374        0.004      334.376        4.308      872.943
05/02/2013  05:45:00     -121.714      -36.118      -15.203       24.982       31.140       19.299      624.083      969.715      372.448        0.916        0.098      126.959        8.481        0.004      334.328        4.229      872.952
05/02/2013  05:46:00     -127.349      -41.217       -9.445       22.067       30.007       20.313      486.963      900.412      412.609        0.990        0.090      133.853       10.942        0.007      334.470        4.464      872.954
05/02/2013  05:47:00     -125.366      -20.528      -18.374       24.056       22.899       19.229      578.673      524.343      369.745        0.897        0.074      127.036       12.589        0.010      334.377        4.309      872.944
05/02/2013  05:48:00     -103.138      -46.931      -17.915       26.421       30.506       17.577      698.091      930.610      308.961        0.755        0.097      113.313        7.906        0.005      334.431        4.399      872.938
05/02/2013  05:49:00     -102.441      -67.595      -15.144       19.839       29.722       17.958      393.583      883.409      322.504        0.845        0.080      122.732       10.576        0.007      334.409        4.364      872.926
05/02/2013  05:50:00     -102.123      -37.278      -23.478       18.951       32.311       15.624      359.143     1044.020      244.110        0.701        0.082      108.714       10.131        0.009      334.611        4.699      872.916
05/02/2013  05:51:00      -78.529      -36.655      -24.109       27.081       25.124       17.415      733.389      631.218      303.270        0.488        0.083       86.663       17.101        0.039      334.590        4.662      872.911
05/02/2013  05:52:00      -65.323      -30.891      -14.802       20.334       19.933       13.731      413.457      397.322      188.539        0.322        0.050       72.258        5.889        0.007      334.567        4.625      872.911
05/02/2013  05:53:00      -71.076      -17.426       -3.070       22.400       21.314       18.183      501.778      454.303      330.627        0.333        0.064       73.181       13.822        0.036      334.712        4.866      872.920
05/02/2013  05:54:00      -89.055      -37.292      -12.695       16.137       24.670       15.894      260.390      608.631      252.609        0.530        0.056       96.548       12.599        0.017      334.551        4.599      872.909
05/02/2013  05:55:00      -73.206      -40.332      -32.083       20.611       24.692       11.431      424.810      609.696      130.673        0.459        0.058       83.581        8.896        0.011      334.433        4.403      872.913
05/02/2013  05:56:00      -66.701      -49.587       -5.598       32.846       24.109       18.391     1078.870      581.242      338.216        0.447        0.100       83.114       20.060        0.058      334.567        4.624      872.936
05/02/2013  05:57:00      -87.390      -66.475      -21.490       23.350       22.590       17.998      545.203      510.322      323.922        0.695        0.069      109.800       14.822        0.018      334.587        4.658      872.947
05/02/2013  05:58:00     -121.698      -39.502      -22.748       33.074       34.741       17.733     1093.889     1206.919      314.463        0.975        0.131      127.949       16.256        0.016      334.438        4.411      872.949
05/02/2013  05:59:00     -109.486      -45.455      -24.767       28.958       30.747       19.549      838.548      945.406      382.159        0.842        0.108      118.546       15.217        0.016      334.400        4.348      872.937
05/02/2013  06:00:00      -92.206      -61.764      -21.468       28.315       33.428       23.295      801.741     1117.457      542.648        0.762        0.123      110.980       17.209        0.024      334.423        4.386      872.934
05/02/2013  06:01:00      -93.273      -12.777      -28.947       27.505       25.187       18.984      756.534      634.402      360.406        0.573        0.088       94.144       13.405        0.020      334.619        4.711      872.940
05/02/2013  06:02:00      -79.448      -10.164      -12.900       16.799       13.832       10.151      282.218      191.313      103.044        0.358        0.029       80.095        7.138        0.008      334.672        4.799      872.951
05/02/2013  06:03:00      -70.224      -15.219      -16.826       12.624       14.934       13.265      159.377      223.010      175.962        0.300        0.028       71.854        4.779        0.004      334.705        4.854      872.961
05/02/2013  06:04:00      -71.385      -34.419      -18.846       15.696       13.110        9.418      246.361      171.869       88.696        0.357        0.025       79.250        4.946        0.004      334.624        4.719      872.969
05/02/2013  06:05:00     -106.839      -37.011      -17.504       18.221       18.374       12.524      331.991      337.615      156.846        0.696        0.041      113.068        9.360        0.007      334.573        4.634      872.974
05/02/2013  06:06:00     -125.686      -11.637      -27.091       21.512       15.392       14.361      462.758      236.904      206.225        0.879        0.045      126.224       10.374        0.007      334.399        4.347      872.975
05/02/2013  06:07:00     -107.990      -26.159      -14.806       29.138       21.839       19.404      849.050      476.950      376.527        0.713        0.085      111.113       14.522        0.017      334.424        4.387      872.967
05/02/2013  06:08:00     -101.610      -22.446      -13.006       20.389       28.240       21.416      415.696      797.496      458.654        0.633        0.084      104.060       13.180        0.016      334.505        4.522      872.970
05/02/2013  06:09:00     -110.547      -33.184      -19.450       27.977       26.548       21.609      782.721      704.793      466.942        0.783        0.098      115.421       16.218        0.020      334.510        4.530      872.968
05/02/2013  06:10:00     -119.662       -7.780      -20.051       20.937       18.289       16.579      438.369      334.489      274.865        0.791        0.052      119.914       14.258        0.014      334.548        4.594      872.983
05/02/2013  06:11:00      -88.133       -3.114      -18.366       14.447       17.172        9.086      208.702      294.873       82.557        0.435        0.029       88.188        3.558        0.002      334.846        5.089      872.993
05/02/2013  06:12:00      -84.088      -17.824      -14.424       11.924       14.687       11.247      142.174      215.698      126.499        0.404        0.024       85.957        6.683        0.006      334.941        5.245      873.017
05/02/2013  06:13:00      -92.278      -29.978      -25.378       15.616       13.453       11.575      243.849      180.971      133.987        0.531        0.028       97.025        9.641        0.010      334.629        4.727      873.027
05/02/2013  06:14:00      -79.835      -50.814      -19.563       18.366       24.479       14.387      337.327      599.244      207.000        0.524        0.057       94.635        5.944        0.004      334.683        4.818      873.042
05/02/2013  06:15:00      -91.191      -25.014      -19.899       10.872       15.618       11.009      118.206      243.916      121.198        0.491        0.024       94.559        5.070        0.003      334.713        4.867      873.071
05/02/2013  06:16:00      -88.166      -45.032      -21.600       23.666       21.459       13.968      560.088      460.487      195.108        0.574        0.061       99.000       13.061        0.017      334.620        4.712      873.075
05/02/2013  06:17:00     -126.253      -26.408      -21.156       21.512       25.461       17.278      462.751      648.262      298.525        0.925        0.070      128.985        9.025        0.005      334.580        4.647      873.077
05/02/2013  06:18:00     -138.507      -21.254      -27.708       26.404       23.587       18.541      697.162      556.345      343.782        1.100        0.080      140.128        7.990        0.003      334.510        4.531      873.080
05/02/2013  06:19:00     -108.571      -38.239      -13.105       34.444       32.758       21.125     1186.408     1073.098      446.251        0.806        0.135      115.108       18.817        0.027      334.529        4.561      873.090
05/02/2013  06:20:00     -108.842      -32.549       -9.474       26.206       26.766       21.587      686.743      716.426      465.981        0.743        0.093      113.605       15.405        0.018      334.591        4.665      873.108
05/02/2013  06:21:00     -109.301      -27.799      -15.444       28.715       24.064       18.562      824.559      579.097      344.533        0.735        0.087      112.781       10.985        0.009      334.654        4.768      873.122
05/02/2013  06:22:00     -108.126      -14.547      -22.505       12.340       13.336       11.360      152.285      177.839      129.043        0.643        0.023      109.100        5.336        0.002      334.679        4.811      873.137
05/02/2013  06:23:00     -100.444      -19.492      -23.516       18.267       13.831       11.217      333.666      191.306      125.820        0.584        0.033      102.318       10.150        0.010      334.813        5.034      873.154
05/02/2013  06:24:00      -84.947      -23.334      -16.903       22.161       19.739       15.159      491.131      389.619      229.786        0.458        0.056       88.094        7.806        0.008      334.892        5.164      873.169
05/02/2013  06:25:00      -95.886      -13.273      -14.884       20.128       20.008       15.719      405.138      400.336      247.083        0.532        0.053       96.800       13.266        0.019      334.737        4.906      873.185
05/02/2013  06:26:00      -77.384      -16.280      -14.449       19.508       20.231       10.035      380.546      409.300      100.697        0.368        0.045       79.078        5.984        0.006      334.706        4.855      873.202
05/02/2013  06:27:00      -78.102      -17.726      -11.760       14.974       13.085        9.153      224.213      171.211       83.782        0.352        0.024       80.088        4.235        0.003      334.794        5.002      873.202
05/02/2013  06:28:00      -47.801      -23.213      -14.380       22.291       14.857       15.857      496.898      220.725      251.435        0.200        0.048       53.140       13.277        0.062      335.095        5.503      873.217
05/02/2013  06:29:00      -17.507      -20.297        2.560        8.052       11.290        8.603       64.833      127.466       74.014        0.050        0.013       26.804        5.175        0.037      335.422        6.045      873.231
05/02/2013  06:30:00       12.365        2.369        5.329       21.263       15.771        6.247      452.109      248.734       39.027        0.046        0.037       12.590        3.463        0.076      335.367        5.953      873.242
05/02/2013  06:31:00       13.903       -2.270        0.733       15.064       11.633       11.447      226.928      135.320      131.041        0.035        0.025       14.087        8.504        0.364      335.886        6.818      873.252
05/02/2013  06:32:00      -65.337      -27.201      -10.696       21.132       12.232       14.023      446.580      149.632      196.639        0.296        0.040       70.773       12.772        0.033      335.204        5.684      873.237
05/02/2013  06:33:00      -96.939      -18.245      -17.976       17.808       20.888       13.707      317.119      436.297      187.885        0.550        0.047       98.641       10.601        0.012      334.905        5.187      873.248
05/02/2013  06:34:00      -86.405      -28.895      -18.966       12.048       16.263       13.435      145.164      264.473      180.488        0.463        0.030       91.109        4.952        0.003      334.931        5.228      873.244
05/02/2013  06:35:00      -81.099       -0.307      -14.677       13.745        9.041       10.089      188.926       81.732      101.794        0.358        0.019       81.100        5.477        0.005      335.099        5.508      873.250
05/02/2013  06:36:00      -56.265       21.555       -8.365       17.074       18.734       12.883      291.532      350.981      165.968        0.225        0.040       60.253        7.173        0.014      335.490        6.159      873.259
05/02/2013  06:37:00      -52.045        7.432       11.291       13.413       23.518       11.730      179.898      553.105      137.601        0.188        0.044       52.573        9.893        0.035      335.634        6.398      873.267
05/02/2013  06:38:00      -29.911      -31.406       -6.770       20.665       13.113       13.443      427.055      171.954      180.721        0.135        0.039       43.371        9.630        0.049      335.385        5.984      873.283
05/02/2013  06:39:00      -59.360      -26.044       -5.578       14.288       17.100       12.236      204.148      292.409      149.721        0.244        0.032       64.823        6.782        0.011      335.120        5.543      873.306
05/02/2013  06:40:00      -42.973      -18.057      -12.132        9.141        9.714        6.697       83.554       94.367       44.845        0.127        0.011       46.613        1.182        0.001      335.417        6.037      873.318
05/02/2013  06:41:00      -49.903        8.804       -5.172       14.149        9.741       10.685      200.184       94.880      114.164        0.150        0.020       50.674        5.448        0.012      335.677        6.470      873.323
05/02/2013  06:42:00      -33.785      -15.868       -0.807       15.117       20.473        8.305      228.528      419.143       68.971        0.106        0.036       37.326        8.942        0.057      335.719        6.540      873.332
05/02/2013  06:43:00      -33.817        3.607        2.536        8.559       15.354       10.041       73.252      235.757      100.826        0.079        0.020       34.009        9.658        0.081      335.775        6.634      873.334
05/02/2013  06:44:00      -45.831       -5.147        5.905        8.157       11.796        7.146       66.537      139.156       51.068        0.121        0.013       46.119        1.507        0.001      335.499        6.173      873.344
05/02/2013  06:45:00      -27.947      -10.260        6.006       10.481       15.758        7.072      109.849      248.309       50.012        0.067        0.020       29.771        4.823        0.026      335.742        6.578      873.359
05/02/2013  06:46:00       -7.929      -17.197        3.778       12.724       15.864       14.538      161.894      251.674      211.354        0.050        0.031       18.937       11.958        0.399      335.783        6.646      873.372
05/02/2013  06:47:00       -9.106       -9.007       13.959        7.953       12.662        8.808       63.248      160.322       77.580        0.033        0.015       12.808        1.574        0.015      335.943        6.913      873.382
05/02/2013  06:48:00       -5.472       16.442       37.217        8.376       15.038       10.639       70.153      226.131      113.185        0.105        0.020       17.329        9.313        0.289      336.646        8.087      873.392
05/02/2013  06:49:00       -5.300        5.879       30.657        9.716        9.365        8.547       94.395       87.705       73.043        0.063        0.013        7.916        2.829        0.128      336.647        8.088      873.393
05/02/2013  06:50:00      -10.146       11.995       38.504        8.116       15.580        8.908       65.862      242.737       79.349        0.106        0.019       15.711        8.480        0.291      336.608        8.024      873.391
05/02/2013  06:51:00       10.933       14.892       24.921       15.670       10.013       13.874      245.541      100.258      192.500        0.075        0.027       18.475       10.093        0.298      336.715        8.204      873.394
05/02/2013  06:52:00       29.086       23.636       27.939       22.383       21.786       13.494      501.006      474.645      182.082        0.167        0.058       37.478       14.499        0.150      336.585        7.986      873.388
05/02/2013  06:53:00       17.396        7.862       13.460       20.749       10.902       12.376      430.516      118.844      153.160        0.062        0.035       19.090       10.990        0.331      336.724        8.218      873.388
05/02/2013  06:54:00       19.807        2.861       16.165       15.542       11.443       13.208      241.564      130.936      174.443        0.060        0.027       20.013        7.043        0.124      336.804        8.353      873.403
05/02/2013  06:55:00       28.395        4.114        7.307       15.786       11.682       11.782      249.200      136.464      138.804        0.070        0.026       28.691        8.417        0.086      336.657        8.105      873.406
05/02/2013  06:56:00       -4.807        9.879        5.316       29.339       15.712       12.240      860.764      246.866      149.822        0.070        0.063       10.986       10.596        0.930      336.671        8.131      873.410
05/02/2013  06:57:00      -18.817      -27.266       -4.763       10.956       14.042       15.817      120.043      197.174      250.170        0.084        0.028       33.129       10.129        0.093      336.082        7.145      873.424
05/02/2013  06:58:00      -25.905      -22.916        4.602       10.811       22.261       11.055      116.871      495.533      122.207        0.098        0.037       34.586       13.295        0.148      336.038        7.071      873.433
05/02/2013  06:59:00       31.954       31.033        8.927       19.837       10.265       15.223      393.492      105.365      231.731        0.140        0.037       44.544       12.824        0.083      336.425        7.716      873.427
05/02/2013  07:00:00       16.298       24.967        7.131       18.189       10.220       10.485      330.835      104.452      109.933        0.074        0.027       29.816        7.110        0.057      336.547        7.921      873.412
05/02/2013  07:01:00       51.347       44.444        2.386       21.479       16.298       14.548      461.362      265.640      211.640        0.278        0.047       67.911        9.936        0.021      336.550        7.928      873.391
05/02/2013  07:02:00       45.026       48.546       30.233       24.353       24.789       18.910      593.062      614.487      357.581        0.343        0.078       66.212        5.704        0.007      336.671        8.131      873.386
05/02/2013  07:03:00       31.803       34.494       12.162       26.298       25.141       20.611      691.592      632.063      424.831        0.205        0.087       46.917       18.544        0.156      336.685        8.152      873.387
05/02/2013  07:04:00       38.013       56.230        8.118       26.932       24.312       21.696      725.358      591.081      470.708        0.323        0.089       67.874       17.643        0.068      336.623        8.050      873.382
05/02/2013  07:05:00       38.078       63.545       -4.521       28.881       24.628       20.167      834.133      606.549      406.713        0.368        0.092       74.081       14.221        0.037      336.501        7.845      873.375
05/02/2013  07:06:00       85.967       49.687        5.643       38.290       18.989       23.276     1466.125      360.574      541.776        0.613        0.118       99.293       19.741        0.040      336.545        7.919      873.372
05/02/2013  07:07:00       84.870       61.163       13.189       31.462       25.420       23.580      989.888      646.154      556.036        0.665        0.110      104.613       18.960        0.033      336.542        7.914      873.375
05/02/2013  07:08:00       56.886       36.728       -1.691       38.554       21.567       19.505     1486.390      465.141      380.437        0.346        0.117       67.712       21.339        0.099      336.675        8.137      873.379
05/02/2013  07:09:00       81.815       54.199        9.549       34.056       23.151       18.383     1159.796      535.969      337.944        0.588        0.102       98.139       19.420        0.039      336.621        8.046      873.377
05/02/2013  07:10:00       73.761       22.051        8.123       28.238       32.055       18.806      797.371     1027.506      353.675        0.409        0.109       76.987       14.592        0.036      336.670        8.127      873.381
05/02/2013  07:11:00       84.700       40.154        8.013       35.655       21.980       24.116     1271.305      483.142      581.569        0.559        0.117       93.736       12.260        0.017      336.742        8.249      873.402
05/02/2013  07:12:00       96.601       56.716       11.364       29.551       27.282       24.355      873.249      744.320      593.148        0.744        0.111      112.020       12.884        0.013      336.584        7.985      873.431
05/02/2013  07:13:00      105.287       47.430        3.329       25.460       25.049       22.897      648.236      627.470      524.257        0.757        0.090      115.477       14.854        0.017      336.585        7.986      873.442
05/02/2013  07:14:00      107.893       58.196        5.240       29.304       19.707       27.616      858.708      388.364      762.630        0.853        0.100      122.588       11.260        0.008      336.638        8.075      873.452
05/02/2013  07:15:00       77.887       28.995       20.038       38.989       26.093       24.348     1520.160      680.848      592.846        0.505        0.140       83.109       16.764        0.041      336.779        8.310      873.444
05/02/2013  07:16:00       70.768       44.385        7.488       31.034       27.623       23.646      963.122      763.042      559.130        0.466        0.114       83.535       18.869        0.051      336.852        8.433      873.445
05/02/2013  07:17:00       58.548       59.337       17.230       29.275       20.945       28.624      857.027      438.686      819.331        0.468        0.106       83.359       16.486        0.039      336.752        8.266      873.446
05/02/2013  07:18:00       64.041       65.652        4.314       33.644       28.248       27.200     1131.898      797.925      739.843        0.555        0.133       91.714       20.778        0.051      336.737        8.241      873.444
05/02/2013  07:19:00       81.152       57.652       11.196       28.149       20.536       24.306      792.350      421.726      590.802        0.592        0.090       99.546        9.487        0.009      336.642        8.081      873.458
05/02/2013  07:20:00       67.990       55.145        5.258       36.886       28.772       30.449     1360.590      827.805      927.146        0.540        0.156       87.543       14.740        0.028      336.749        8.261      873.470
05/02/2013  07:21:00       87.431       63.280        6.102       24.740       25.518       22.201      612.060      651.148      492.897        0.672        0.088      107.929        8.237        0.006      336.726        8.222      873.476
05/02/2013  07:22:00       58.295       58.845        7.450       36.811       24.563       29.282     1355.081      603.351      857.424        0.487        0.141       82.831       19.249        0.054      336.852        8.432      873.473
05/02/2013  07:23:00       44.430       52.547        9.268       25.236       24.849       22.730      636.855      617.466      516.646        0.330        0.089       68.813       10.406        0.023      336.934        8.567      873.474
05/02/2013  07:24:00       47.015       43.941        1.221       29.100       24.925       20.619      846.798      621.257      425.146        0.302        0.095       64.353       12.643        0.039      336.791        8.331      873.496
05/02/2013  07:25:00       72.607       51.127       24.655       27.673       21.472       26.753      765.775      461.034      715.730        0.522        0.097       88.802        9.617        0.012      336.919        8.544      873.490
05/02/2013  07:26:00       67.636       52.770        1.456       30.624       30.069       20.824      937.805      904.172      433.622        0.482        0.114       85.787        9.059        0.011      336.830        8.394      873.495
05/02/2013  07:27:00       67.025       39.086       -0.883       23.428       23.740       21.349      548.858      563.607      455.764        0.379        0.078       77.589       15.326        0.039      336.912        8.532      873.500
05/02/2013  07:28:00       18.926       44.103       14.563       17.333       30.301       26.572      300.440      918.149      706.073        0.222        0.096       47.992       16.335        0.116      336.932        8.566      873.510
05/02/2013  07:29:00       59.426       40.272       18.541       28.553       19.890       23.183      815.279      395.632      537.429        0.362        0.087       71.786        8.463        0.014      336.870        8.461      873.524
05/02/2013  07:30:00        1.991       25.670       42.878       16.873       40.464       26.246      284.698     1637.363      688.871        0.256        0.131       25.747       26.316        1.045      337.234        9.071      873.539
05/02/2013  07:31:00       -2.339       30.325       31.736       11.805       20.992       16.243      139.364      440.655      263.851        0.139        0.042       30.415       12.030        0.156      337.365        9.289      873.538
05/02/2013  07:32:00       -2.688       17.699       31.757        7.350       19.750        8.756       54.019      390.081       76.660        0.092        0.026       17.902        5.763        0.104      337.542        9.587      873.536
05/02/2013  07:33:00       10.425        6.965       22.862       17.111       13.387       19.946      292.784      179.201      397.857        0.077        0.043       12.538       11.956        0.909      337.451        9.434      873.544
05/02/2013  07:34:00       25.819       22.241       18.559       31.227       22.399       23.549      975.096      501.720      554.559        0.177        0.102       34.078       21.733        0.407      337.687        9.830      873.541
05/02/2013  07:35:00       40.093       75.149       10.707       25.421       39.450       22.134      646.215     1556.282      489.918        0.503        0.135       85.176       22.935        0.073      337.158        8.945      873.549
05/02/2013  07:36:00       72.236       50.844       31.843       22.593       27.773       25.555      510.454      771.326      653.074        0.538        0.097       88.335       13.273        0.023      337.241        9.082      873.554
05/02/2013  07:37:00        8.692       12.999       35.260       21.947       40.639       16.808      481.652     1651.503      282.494        0.195        0.121       15.637       11.802        0.570      337.487        9.494      873.561
05/02/2013  07:38:00      -18.824      -12.600        8.148       23.615       22.114       21.399      557.673      489.051      457.903        0.104        0.075       22.652       11.855        0.274      337.567        9.628      873.578
05/02/2013  07:39:00       21.816      -32.640       14.796       37.651       45.702       31.595     1417.604     2088.687      998.261        0.313        0.225       39.260       28.654        0.533      337.512        9.536      873.585
05/02/2013  07:40:00       18.691       -9.404       32.723       29.659       62.176       41.611      879.670     3865.828     1731.498        0.399        0.324       20.923       46.330        4.903      337.690        9.834      873.585
05/02/2013  07:41:00       28.649      -39.112       22.622       23.998       47.500       32.895      575.888     2256.234     1082.090        0.339        0.196       48.482       28.453        0.344      337.591        9.668      873.576
05/02/2013  07:42:00       12.092      -41.442       26.328       25.665       41.492       28.862      658.695     1721.568      833.012        0.288        0.161       43.170       27.490        0.405      337.718        9.881      873.570
05/02/2013  07:43:00        0.450       -4.343       41.517       21.535       44.486       26.279      463.767     1979.017      690.597        0.244        0.157        4.366       18.925       18.789      337.744        9.925      873.556
05/02/2013  07:44:00       16.419       55.157       45.895       31.905       29.702       31.192     1017.947      882.224      972.971        0.415        0.144       57.549       22.656        0.155      337.481        9.485      873.554
05/02/2013  07:45:00       64.028       49.552        5.043       32.169       25.150       28.048     1034.819      632.510      786.716        0.452        0.123       80.963        9.020        0.012      337.191        8.998      873.560
05/02/2013  07:46:00       24.304       64.036        1.036       19.608       21.921       20.256      384.470      480.518      410.315        0.298        0.064       68.493        8.480        0.015      337.299        9.178      873.572
05/02/2013  07:47:00       66.397       51.170       11.243       22.813       26.325       24.195      520.427      693.025      585.396        0.448        0.090       83.827       12.134        0.021      337.352        9.268      873.582
05/02/2013  07:48:00       64.060       24.617       46.226       44.410       38.285       34.224     1972.234     1465.721     1171.275        0.573        0.230       68.627       29.128        0.180      337.593        9.671      873.581
05/02/2013  07:49:00       59.488       29.819       20.601       30.469       34.644       23.831      928.338     1200.178      567.927        0.377        0.135       66.543       13.326        0.040      337.371        9.300      873.579
05/02/2013  07:50:00       25.870       26.558       33.212       29.271       38.450       26.457      856.770     1478.433      699.994        0.276        0.152       37.075       16.673        0.202      337.725        9.893      873.573
05/02/2013  07:51:00       23.541        8.605       29.098       26.801       51.680       34.197      718.269     2670.818     1169.436        0.302        0.228       25.064       37.522        2.241      337.721        9.887      873.562
05/02/2013  07:52:00       29.575       32.642       48.757       29.082       47.103       28.418      845.736     2218.686      807.584        0.409        0.194       44.047       32.374        0.540      337.697        9.846      873.545
05/02/2013  07:53:00       68.094       31.387       52.565       44.655       73.000       47.999     1994.108     5328.947     2303.879        0.900        0.481       74.980       48.615        0.420      337.631        9.735      873.542
05/02/2013  07:54:00       19.334       21.263       73.644       41.087       85.703       49.748     1688.131     7344.977     2474.884        0.888        0.575       28.739       52.056        3.281      337.889       10.169      873.537
05/02/2013  07:55:00       39.770        8.619       52.935       42.301       51.825       31.175     1789.372     2685.809      971.905        0.495        0.272       40.693       29.849        0.538      337.882       10.157      873.540
05/02/2013  07:56:00       66.271       70.725       58.819       33.015       23.816       32.147     1090.003      567.214     1033.450        0.777        0.135       96.921       10.109        0.011      337.787        9.996      873.523
05/02/2013  07:57:00       55.152       69.941       58.700       40.787       34.217       25.220     1663.553     1170.832      636.054        0.742        0.174       89.070       15.521        0.030      337.715        9.877      873.518
05/02/2013  07:58:00       19.131      -46.436       21.290       40.280       42.915       38.539     1622.459     1841.714     1485.257        0.396        0.247       50.223       30.361        0.365      338.189       10.672      873.513
05/02/2013  07:59:00       17.929       10.043       23.620       31.446       46.903       30.423      988.871     2199.935      925.573        0.255        0.206       20.550       27.854        1.837      338.310       10.874      873.509
05/02/2013  08:00:00       -9.117       49.453       53.498       24.283       27.293       25.774      589.686      744.885      664.278        0.369        0.100       50.286       11.085        0.049      338.452       11.113      873.510
05/02/2013  08:01:00       51.208       54.177       36.034       38.627       38.692       31.520     1492.022     1497.073      993.523        0.542        0.199       74.548       12.197        0.027      338.162       10.627      873.500
05/02/2013  08:02:00       73.820       45.207       30.327       60.477       43.054       40.707     3657.507     1853.678     1657.050        0.779        0.358       86.562       40.900        0.223      337.950       10.270      873.501
05/02/2013  08:03:00      151.338       80.117       17.884       53.158       47.532       37.115     2825.746     2259.312     1377.514        1.805        0.323      171.236       17.344        0.010      337.641        9.751      873.484
05/02/2013  08:04:00      142.817       94.877       16.379       60.749       50.549       33.919     3690.459     2555.245     1150.500        1.853        0.370      171.459       26.441        0.024      337.665        9.790      873.480
05/02/2013  08:05:00      162.262       71.288        4.820       65.992       44.437       38.135     4355.003     1974.625     1454.282        1.961        0.389      177.231       35.421        0.040      337.668        9.797      873.471
05/02/2013  08:06:00      127.307       84.984       -3.741       46.268       36.972       32.699     2140.721     1366.952     1069.230        1.401        0.229      153.066       20.882        0.019      337.683        9.823      873.455
05/02/2013  08:07:00       82.991       46.223       -6.782       33.020       41.899       23.652     1090.288     1755.563      559.428        0.624        0.170       94.995       18.886        0.040      337.696        9.843      873.435
05/02/2013  08:08:00       13.148       60.030       24.286       35.736       26.153       30.663     1277.076      683.998      940.219        0.363        0.145       61.452       20.864        0.115      338.095       10.515      873.426
05/02/2013  08:09:00        2.348      -33.797       23.033       25.867       36.974       21.892      669.114     1367.071      479.245        0.210        0.126       33.878       12.424        0.134      338.336       10.920      873.405
05/02/2013  08:10:00       56.558       69.026       20.398       64.167       38.700       48.638     4117.449     1497.716     2365.627        0.818        0.399       89.238       27.923        0.098      338.250       10.775      873.391
05/02/2013  08:11:00      140.646       59.280        6.619       46.163       38.472       37.989     2131.050     1480.111     1443.130        1.420        0.253      152.629       19.357        0.016      337.960       10.287      873.391
05/02/2013  08:12:00       96.227       60.873       40.939       60.096       53.679       45.474     3611.477     2881.466     2067.852        1.160        0.428      113.865       32.612        0.082      338.220       10.724      873.379
05/02/2013  08:13:00       47.483       57.218       52.088       58.844       50.005       47.549     3462.628     2500.531     2260.903        0.823        0.411       74.354       35.797        0.232      338.017       10.382      873.369
05/02/2013  08:14:00      118.624       78.901        3.553       42.139       37.524       32.768     1775.694     1408.017     1073.758        1.228        0.213      142.467       21.704        0.023      337.932       10.241      873.355
05/02/2013  08:15:00      113.867       83.676       17.564       75.326       42.419       49.289     5674.065     1799.353     2429.451        1.509        0.495      141.306       31.595        0.050      338.062       10.456      873.347
05/02/2013  08:16:00      241.757      132.433       27.424       80.696       50.713       49.837     6511.805     2571.797     2483.732        4.415        0.578      275.654       30.979        0.013      337.990       10.334      873.328
05/02/2013  08:17:00      174.837      108.220       72.555       82.010       69.110       66.532     6725.562     4776.166     4426.487        3.173        0.796      205.620       37.369        0.033      338.090       10.502      873.312
05/02/2013  08:18:00      107.487       50.296       -2.772       73.027       54.478       46.914     5332.874     2967.843     2200.921        1.229        0.525      118.673       40.246        0.115      338.206       10.701      873.299
05/02/2013  08:19:00        7.044       40.276       29.891       29.060       52.287       37.583      844.465     2733.944     1412.452        0.378        0.250       40.888       20.232        0.245      338.678       11.492      873.282
05/02/2013  08:20:00       24.679       -3.038       45.413       58.028       86.133       44.540     3367.254     7418.908     1983.768        0.772        0.638       24.865       47.005        3.574      338.534       11.252      873.263
05/02/2013  08:21:00       31.251       68.493       67.079       61.029       51.237       36.058     3724.594     2625.222     1300.144        0.891        0.382       75.285       15.284        0.041      338.445       11.102      873.232
05/02/2013  08:22:00        0.040       11.432       72.652       48.615       80.338       39.796     2363.439     6454.268     1583.714        0.790        0.520       11.433       36.473       10.178      338.645       11.438      873.209
05/02/2013  08:23:00       24.867       50.207       66.529       64.624       55.459       41.226     4176.222     3075.668     1699.546        0.826        0.448       56.028       27.530        0.241      338.639       11.428      873.196
05/02/2013  08:24:00       68.969      -31.383       39.418       84.237       91.189       58.002     7095.808     8315.368     3364.247        1.303        0.939       75.773       62.792        0.687      338.467       11.139      873.194
05/02/2013  08:25:00       48.731     -105.189       18.199       72.153       66.755       49.957     5206.020     4456.239     2495.728        1.296        0.608      115.929       38.631        0.111      338.255       10.782      873.181
05/02/2013  08:26:00       26.545        5.596       37.976       76.243       46.214       39.690     5812.932     2135.693     1575.264        0.585        0.476       27.129       30.144        1.235      338.673       11.485      873.177
05/02/2013  08:27:00       31.870        7.191       34.242       43.610       67.139       30.648     1901.869     4507.633      939.277        0.479        0.367       32.671       28.073        0.738      338.634       11.419      873.179
05/02/2013  08:28:00       14.953      -10.134       47.686       38.441       87.466       44.179     1477.679     7650.347     1951.826        0.684        0.554       18.064       29.240        2.620      338.734       11.586      873.165
05/02/2013  08:29:00       51.859      -38.501       59.140       55.071      130.994       64.936     3032.814    17159.338     4216.702        1.603        1.220       64.589       77.484        1.439      338.573       11.316      873.159
05/02/2013  08:30:00       56.342     -118.273       39.182       57.801      103.014       50.683     3340.949    10611.932     2568.768        1.761        0.826      131.007       54.876        0.175      338.696       11.522      873.165
05/02/2013  08:31:00       42.550      -36.662       32.288       36.816       98.120       45.394     1355.419     9627.455     2060.574        0.862        0.652       56.166       38.659        0.474      338.630       11.412      873.166
05/02/2013  08:32:00       51.807      -18.869       51.973       74.560       86.361       65.696     5559.232     7458.253     4315.929        1.153        0.867       55.136       62.307        1.277      338.610       11.379      873.167
05/02/2013  08:33:00      116.064       82.785       79.793       92.225       65.355       57.299     8505.397     4271.227     3283.220        2.137        0.803      142.563       35.946        0.064      338.605       11.370      873.162
05/02/2013  08:34:00       94.768       61.481       61.111       83.958       54.503       51.982     7048.969     2970.583     2702.104        1.461        0.636      112.964       40.035        0.126      338.455       11.117      873.151
05/02/2013  08:35:00      147.298      116.426       39.213       67.865       63.070       49.501     4605.612     3977.762     2450.390        2.391        0.552      187.754       27.633        0.022      338.561       11.295      873.147
05/02/2013  08:36:00      201.360      122.854       27.400       63.163       55.902       39.752     3989.611     3125.041     1580.228        3.254        0.435      235.879       22.123        0.009      338.357       10.949      873.144
05/02/2013  08:37:00      171.270       98.648       16.903       71.014       57.284       49.875     5042.991     3281.477     2487.515        2.508        0.541      197.648       20.079        0.010      338.403       11.028      873.121
05/02/2013  08:38:00      160.230       93.709       23.576       64.272       60.349       41.562     4130.937     3641.979     1727.434        2.225        0.475      185.620       31.281        0.028      338.419       11.057      873.118
05/02/2013  08:39:00      172.585      112.698       18.102       91.664       64.672       50.214     8402.284     4182.429     2521.412        2.896        0.755      206.122       29.951        0.021      338.460       11.123      873.113
05/02/2013  08:40:00      100.151       96.299        9.277       71.733       62.770       54.546     5145.638     3940.055     2975.281        1.572        0.603      138.938       42.340        0.093      338.689       11.509      873.111
05/02/2013  08:41:00      184.273       83.330       15.284      106.952       61.774       51.053    11438.707     3816.068     2606.366        2.949        0.893      202.238       39.993        0.039      338.582       11.329      873.114
05/02/2013  08:42:00      157.340      104.472       20.810      102.706       58.309       43.411    10548.496     3399.980     1884.495        2.597        0.792      188.866       33.400        0.031      338.549       11.273      873.109
05/02/2013  08:43:00       92.974       90.195       13.695       62.497       50.041       40.255     3905.919     2504.096     1620.444        1.250        0.402      129.535       25.043        0.037      338.672       11.482      873.110
05/02/2013  08:44:00      129.114       95.981       47.814       86.405       66.952       73.239     7465.856     4482.543     5363.884        2.274        0.866      160.881       51.077        0.101      338.804       11.704      873.094
05/02/2013  08:45:00      128.838      123.835      121.830       92.142       95.571       82.183     8490.204     9133.849     6754.037        3.557        1.219      178.702       77.588        0.189      338.546       11.269      873.103
05/02/2013  08:46:00      110.272      120.116      132.404      125.054       72.544       68.368    15638.557     5262.593     4674.223        3.484        1.279      163.057       74.205        0.207      338.612       11.379      873.099
05/02/2013  08:47:00       49.392      -24.871       33.671       84.811       93.271       56.143     7192.926     8699.522     3152.004        1.161        0.952       55.300       41.747        0.570      338.807       11.708      873.095
05/02/2013  08:48:00       64.009       -7.957       47.200       53.719       61.047       37.859     2885.763     3726.796     1433.330        0.722        0.402       64.502       38.654        0.359      338.903       11.872      873.089
05/02/2013  08:49:00       50.213       24.251       51.530       41.424       72.150       30.203     1715.937     5205.659      912.208        0.680        0.392       55.763       30.624        0.302      339.059       12.133      873.063
05/02/2013  08:50:00       12.521       10.235       46.507       27.183       46.284       27.169      738.901     2142.197      738.168        0.302        0.181       16.171       26.438        2.673      339.339       12.604      873.053
05/02/2013  08:51:00       -8.008      -15.606       30.691       31.424       62.661       31.916      987.443     3926.366     1018.654        0.359        0.297       17.541       10.938        0.389      339.385       12.683      873.044
05/02/2013  08:52:00      135.031      -43.287       48.291       96.798      114.285       56.548     9369.881    13061.088     3197.656        2.403        1.281      141.799       63.396        0.200      339.126       12.244      873.049
05/02/2013  08:53:00       71.122      101.573      146.676       89.451       95.743       75.217     8001.506     9166.770     5657.635        2.985        1.141      123.997       62.700        0.256      339.072       12.154      873.050
05/02/2013  08:54:00      102.109       71.260       92.015       78.799       80.065       57.681     6209.210     6410.456     3327.155        1.996        0.797      124.516       63.469        0.260      338.608       11.375      873.069
05/02/2013  08:55:00       35.404       56.900      116.129       60.630       86.981       57.454     3675.966     7565.744     3301.009        1.626        0.727       67.015       59.078        0.777      338.942       11.935      873.059
05/02/2013  08:56:00      147.624       53.588       98.851       88.173      116.446       77.996     7774.525    13559.780     6083.379        3.092        1.371      157.050       77.734        0.245      338.714       11.551      873.054
05/02/2013  08:57:00      171.934      135.991       53.268       85.697       66.811       76.345     7343.915     4463.705     5828.583        3.426        0.882      219.215       54.083        0.061      338.567       11.302      873.058
05/02/2013  08:58:00      167.049       86.214       35.839       78.934       56.758       55.455     6230.507     3221.438     3075.311        2.457        0.626      187.985       37.812        0.040      338.528       11.240      873.053
05/02/2013  08:59:00       84.024       53.892       31.077       60.839       54.497       41.978     3701.399     2969.938     1762.145        0.968        0.422       99.822       38.287        0.147      338.867       11.810      873.049
05/02/2013  09:00:00       82.960       51.331       56.904      109.566       70.660       70.820    12004.675     4992.862     5015.438        1.738        1.101       97.556       62.809        0.415      338.954       11.955      873.058
05/02/2013  09:01:00       57.381       44.627       48.916       88.815       55.421       46.813     7888.168     3071.533     2191.428        1.041        0.658       72.692       30.148        0.172      339.044       12.107      873.048
05/02/2013  09:02:00      107.795       58.006       49.607      118.362       76.204       48.735    14009.470     5807.107     2375.066        1.981        1.110      122.411       40.600        0.110      339.460       12.807      873.035
05/02/2013  09:03:00      258.804      134.001       58.290      109.493       72.189       77.626    11988.745     5211.275     6025.843        5.578        1.161      291.438       42.847        0.022      338.996       12.025      873.029
05/02/2013  09:04:00      258.231      173.043       64.058       91.511       62.956       81.025     8374.297     3963.416     6564.995        5.981        0.945      310.849       43.741        0.020      338.686       11.504      873.019
05/02/2013  09:05:00      131.849       91.772       44.353       73.495       47.970       53.933     5401.529     2301.080     2908.783        1.919        0.531      160.643       25.987        0.026      339.093       12.188      873.039
05/02/2013  09:06:00      174.641      117.471       32.744       99.380       70.709       60.944     9876.320     4999.832     3714.218        3.198        0.930      210.473       33.006        0.025      338.977       11.993      873.023
05/02/2013  09:07:00       70.960       76.187      107.227       84.748       63.594       59.442     7182.215     4044.195     3533.304        1.855        0.738      104.114       59.711        0.329      339.170       12.320      873.009
05/02/2013  09:08:00       93.669       48.532       47.973       59.868       68.206       56.137     3584.162     4652.051     3151.337        1.241        0.569      105.496       42.484        0.162      339.160       12.304      872.991
05/02/2013  09:09:00      130.286       76.737       61.871       95.926      108.581       84.166     9201.830    11789.791     7083.933        2.738        1.404      151.205       58.421        0.149      339.417       12.734      872.962
05/02/2013  09:10:00      165.319       85.832       61.444      136.981      102.832       73.750    18763.809    10574.444     5439.112        3.662        1.739      186.273       51.360        0.076      339.575       13.001      872.943
05/02/2013  09:11:00      291.923      153.863       30.972       95.885       83.015       68.084     9193.977     6891.431     4635.493        6.528        1.036      329.989       36.556        0.012      339.165       12.308      872.933
05/02/2013  09:12:00      304.978      170.030       27.243       75.913       68.034       61.640     5762.729     4628.567     3799.537        6.842        0.710      349.173       23.896        0.005      338.936       11.925      872.922
05/02/2013  09:13:00      170.601      103.264       36.485       68.786       64.877       42.614     4731.507     4208.972     1815.932        2.593        0.538      199.420       32.088        0.026      339.039       12.097      872.911
05/02/2013  09:14:00       77.404      -60.340        9.510       56.975      113.246       37.685     3246.107    12824.651     1420.165        1.360        0.875       98.144       37.613        0.147      339.316       12.565      872.894
05/02/2013  09:15:00       83.500     -124.207       11.884       89.174      108.993       73.714     7951.950    11879.516     5433.746        2.390        1.263      149.665       69.283        0.214      339.548       12.955      872.838
05/02/2013  09:16:00       79.970      -48.974       22.221       62.056       61.904       55.927     3850.893     3832.107     3127.831        1.005        0.541       93.774       45.102        0.231      339.737       13.276      872.840
05/02/2013  09:17:00       79.987       28.638       58.651       92.753       72.443       76.147     8603.110     5247.952     5798.415        1.515        0.982       84.960       58.273        0.470      339.835       13.441      872.822
05/02/2013  09:18:00      110.201      102.285      104.571       82.715       70.525       72.944     6841.824     4973.833     5320.815        2.534        0.857      150.354       49.568        0.109      339.317       12.566      872.801
05/02/2013  09:19:00       89.745       84.146       50.597       69.818       56.078       56.975     4874.516     3144.753     3246.102        1.448        0.563      123.023       40.289        0.107      339.392       12.693      872.785
05/02/2013  09:20:00      122.948       47.865       32.788      116.524       59.550       57.362    13577.936     3546.251     3290.382        1.945        1.021      131.937       37.917        0.083      339.708       13.225      872.768
05/02/2013  09:21:00      175.651       98.768       29.441       78.243       77.000       62.415     6121.965     5928.930     3895.583        2.871        0.797      201.515       29.624        0.022      339.597       13.037      872.767
05/02/2013  09:22:00      158.291      130.931      116.150      117.088       68.881       75.483    13709.672     4744.646     5697.742        3.992        1.208      205.424       64.438        0.098      339.746       13.288      872.764
05/02/2013  09:23:00      120.803       -1.937       81.777      117.190      147.457       98.911    13733.582    21743.520     9783.417        3.326        2.263      120.818      111.823        0.857      339.600       13.041      872.787
05/02/2013  09:24:00       77.858       40.668      107.218       88.274      121.851       79.345     7792.246    14847.698     6295.700        2.407        1.447       87.839       83.930        0.913      339.515       12.901      872.754
05/02/2013  09:25:00       86.263      -38.984       51.436      100.708      122.166       61.244    10142.156    14924.530     3750.805        2.021        1.441       94.663       89.488        0.894      339.555       12.968      872.756
05/02/2013  09:26:00       83.407      -34.454       64.905       86.931      122.141       73.455     7556.987    14918.540     5395.611        2.011        1.394       90.243       84.973        0.887      339.850       13.464      872.725
05/02/2013  09:27:00      132.663       77.922      126.551      125.675      165.784       97.342    15794.101    27484.311     9475.395        4.621        2.638      153.854       58.931        0.147      339.592       13.028      872.709
05/02/2013  09:28:00      132.261        2.764       35.654      131.623      124.980       79.594    17324.572    15619.929     6335.196        2.902        1.964      132.290       67.605        0.261      339.681       13.179      872.727
05/02/2013  09:29:00       61.014       -5.560      114.398       87.138      140.094       78.192     7592.980    19626.333     6114.028        2.508        1.667       61.267       87.354        2.033      339.934       13.606      872.709
05/02/2013  09:30:00      221.089      117.854       79.582      131.054       96.926       84.225    17175.170     9394.582     7093.789        5.138        1.683      250.539       67.128        0.072      339.655       13.134      872.703
05/02/2013  09:31:00      156.702      101.954       68.805       89.654       77.456       71.336     8037.765     5999.456     5088.774        2.940        0.956      186.949       45.445        0.059      339.433       12.760      872.710
05/02/2013  09:32:00       22.438       28.518       20.238       66.457       58.079       44.005     4416.590     3373.164     1936.447        0.572        0.486       36.287       28.190        0.604      339.653       13.135      872.696
05/02/2013  09:33:00       91.512       77.541       56.512       87.780       60.447       57.514     7705.411     3653.801     3307.831        1.612        0.733      119.947       51.309        0.183      339.710       13.229      872.672
05/02/2013  09:34:00       72.311       61.697       62.170       69.059       45.593       49.421     4769.115     2078.694     2442.439        1.109        0.465       95.055       36.459        0.147      340.010       13.737      872.665
05/02/2013  09:35:00      142.094       82.853       49.317      114.666       75.790       60.763    13148.182     5744.186     3692.104        2.603        1.129      164.485       33.616        0.042      339.985       13.691      872.657
05/02/2013  09:36:00      139.663      173.036      142.665       92.704       85.064       84.754     8594.043     7235.878     7183.260        4.640        1.151      222.368       64.672        0.085      339.683       13.180      872.660
05/02/2013  09:37:00       85.624       53.332       97.689       86.551      100.751       70.240     7491.096    10150.778     4933.701        2.114        1.129      100.875       53.317        0.279      339.724       13.252      872.645
05/02/2013  09:38:00       72.670        3.320       50.491       75.528      105.280       72.539     5704.447    11083.945     5261.843        1.494        1.103       72.745       69.970        0.925      340.001       13.720      872.633
05/02/2013  09:39:00       46.785       -8.447       69.579       78.226      131.787       82.883     6119.254    17367.711     6869.592        1.872        1.518       47.542      103.911        4.777      340.109       13.903      872.626
05/02/2013  09:40:00        6.117       47.839       77.582       30.244       51.013       39.832      914.677     2602.280     1586.590        0.672        0.255       48.228       32.621        0.458      340.519       14.596      872.627
05/02/2013  09:41:00       34.630       34.776       83.727       55.213       94.897       63.224     3048.511     9005.481     3997.243        1.273        0.803       49.077       62.003        1.596      340.598       14.728      872.607
05/02/2013  09:42:00       86.143      127.269      141.627       88.476      100.611       67.053     7827.952    10122.523     4496.082        3.306        1.122      153.682       62.918        0.168      340.059       13.817      872.595
05/02/2013  09:43:00      122.814      -39.290       67.001      119.553      153.245       74.847    14293.038    23484.059     5602.104        3.224        2.169      128.946       90.547        0.493      340.017       13.747      872.589
05/02/2013  09:44:00      168.213     -192.471      -15.385       57.638       72.614       40.956     3322.195     5272.764     1677.364        3.792        0.514      255.618       38.629        0.023      339.426       12.748      872.578
05/02/2013  09:45:00       17.454       14.394       62.074       38.439       77.294       49.284     1477.570     5974.372     2428.904        0.712        0.494       22.624       53.355        5.562      340.004       13.726      872.560
05/02/2013  09:46:00       34.389       20.018       56.343       48.849       60.362       38.400     2386.217     3643.575     1474.565        0.613        0.375       39.791       30.019        0.569      340.254       14.149      872.541
05/02/2013  09:47:00      155.573       81.020       23.387       76.976       72.480       43.127     5925.245     5253.312     1859.927        2.217        0.652      175.405       23.548        0.018      339.991       13.701      872.552
05/02/2013  09:48:00      149.832       97.904      109.655      118.960      108.971       92.093    14151.442    11874.666     8481.054        3.928        1.725      178.983       79.341        0.197      340.278       14.185      872.537
05/02/2013  09:49:00      129.603       99.062      105.009      118.536       81.065       70.667    14050.902     6571.581     4993.772        3.162        1.281      163.126       35.652        0.048      340.017       13.745      872.527
05/02/2013  09:50:00      152.218      142.281       94.292       82.208       60.274       62.203     6758.154     3632.984     3869.200        3.328        0.713      208.360       43.087        0.043      339.885       13.522      872.535
05/02/2013  09:51:00      129.391       73.489       18.770       53.039       50.998       40.871     2813.176     2600.815     1670.398        1.479        0.354      148.804        9.349        0.004      339.943       13.622      872.509
05/02/2013  09:52:00      114.794      122.501      120.302      111.083       81.117       79.295    12339.367     6579.944     6287.757        3.393        1.260      167.881       62.282        0.138      340.490       14.543      872.476
05/02/2013  09:53:00       16.922       15.322       71.977       94.434       87.935       68.958     8917.698     7732.483     4755.241        1.355        1.070       22.828       49.520        4.706      340.718       14.933      872.468
05/02/2013  09:54:00       89.450      100.271      141.868      109.272      103.450       61.806    11940.305    10701.964     3819.954        3.232        1.323      134.371       52.591        0.153      340.489       14.543      872.470
05/02/2013  09:55:00      120.442       46.167       71.035       80.957      107.087       68.733     6554.079    11467.636     4724.180        2.221        1.137      128.988       65.082        0.255      340.027       13.762      872.461
05/02/2013  09:56:00      120.742        0.476       48.672       94.159      113.031       75.405     8865.978    12775.943     5685.850        2.213        1.366      120.743       73.556        0.371      340.292       14.210      872.432
05/02/2013  09:57:00      121.759      157.525      128.088      132.304      100.337      100.799    17504.339    10067.493    10160.514        4.688        1.887      199.097       86.148        0.187      340.301       14.224      872.406
05/02/2013  09:58:00      137.381       70.713       58.350      106.386       71.650       64.453    11317.914     5133.770     4154.219        2.394        1.030      154.511       55.016        0.127      340.378       14.355      872.414
05/02/2013  09:59:00       89.258       45.059       28.884       72.559       52.476       48.409     5264.874     2753.771     2343.388        1.060        0.518       99.987       35.970        0.129      340.673       14.855      872.414
05/02/2013  10:00:00       80.004       44.281       64.485       75.023       59.891       55.073     5628.525     3586.964     3033.022        1.238        0.612       91.441       40.814        0.199      340.624       14.772      872.405
05/02/2013  10:01:00       81.578      -43.522        2.826       67.957      112.653       49.189     4618.087    12690.685     2419.515        1.414        0.986       92.462       27.172        0.086      340.448       14.476      872.344
05/02/2013  10:02:00       97.478      -59.369       72.231      112.883      182.638      105.814    12742.639    33356.542    11196.596        3.776        2.865      114.134      118.249        1.073      340.595       14.721      872.365
05/02/2013  10:03:00      161.829      -40.882       35.119      123.127      105.584       80.761    15160.294    11147.948     6522.320        3.096        1.642      166.913       85.527        0.263      340.215       14.080      872.396
05/02/2013  10:04:00      136.721       88.819      102.862      113.165       94.775       86.924    12806.292     8982.228     7555.759        3.325        1.467      163.038       71.185        0.191      340.364       14.331      872.384
05/02/2013  10:05:00       85.499      -13.214       75.243       78.135      116.865       81.957     6105.094    13657.428     6717.000        1.981        1.324       86.515       95.185        1.210      340.476       14.521      872.382
05/02/2013  10:06:00       36.728       47.057       81.146       75.761       60.561       48.883     5739.666     3667.622     2389.584        1.097        0.590       59.693       56.787        0.905      340.761       15.005      872.379
05/02/2013  10:07:00       97.063      -33.931       71.530       90.124      172.469       79.750     8122.255    29745.401     6360.107        2.995        2.211      102.823      104.470        1.032      340.614       14.753      872.365
05/02/2013  10:08:00       77.897       46.681      101.415       98.760      178.950       97.919     9753.464    32023.237     9588.175        3.494        2.568       90.814      121.842        1.800      340.665       14.839      872.373
05/02/2013  10:09:00        9.332       26.669       42.666       52.965       49.076       30.475     2805.245     2408.425      928.708        0.438        0.307       28.255       21.622        0.586      340.641       14.801      872.379
05/02/2013  10:10:00      153.972     -185.631      -17.217      156.904      148.172       85.207    24618.963    21955.089     7260.229        5.614        2.692      241.177       80.916        0.113      340.625       14.774      872.361
05/02/2013  10:11:00      228.341     -260.506      -28.897      123.868      178.477       83.691    15343.231    31854.013     7004.118        8.751        2.710      346.414      100.662        0.084      340.600       14.730      872.362
05/02/2013  10:12:00      229.950     -278.753      -41.839      117.145      114.247       48.841    13723.010    13052.346     2385.418        8.074        1.458      361.359       44.679        0.015      340.124       13.926      872.385
05/02/2013  10:13:00      155.658     -333.972      -41.466       97.788       99.454       59.581     9562.511     9891.195     3549.850        8.024        1.150      368.466       48.158        0.017      340.309       14.237      872.381
05/02/2013  10:14:00      210.634     -254.267      -27.908      128.023      144.138       82.381    16389.980    20775.675     6786.636        7.687        2.198      330.179       98.696        0.089      340.346       14.300      872.364
05/02/2013  10:15:00      180.198     -241.059      -51.006       78.290       77.452       42.056     6129.343     5998.797     1768.706        5.354        0.695      300.966       29.865        0.010      340.397       14.385      872.356
05/02/2013  10:16:00       70.238      -35.110       28.631       65.020      121.483       47.947     4227.599    14758.180     2298.931        1.413        1.064       78.525       69.279        0.778      340.383       14.365      872.356
05/02/2013  10:17:00       38.850       35.602       63.898       73.529       87.483       66.207     5406.532     7653.310     4383.391        1.215        0.872       52.696       58.480        1.232      340.667       14.845      872.341
05/02/2013  10:18:00      110.584     -126.089       -1.248       86.515      130.667       73.440     7484.765    17073.872     5393.423        2.904        1.498      167.712       79.766        0.226      340.719       14.932      872.338
05/02/2013  10:19:00       56.921      -88.301       20.940       69.004      139.601       70.627     4761.592    19488.335     4988.104        2.035        1.462      105.057       90.702        0.745      340.673       14.854      872.337
05/02/2013  10:20:00       57.488       18.303       52.131       55.711       54.320       44.566     3103.705     2950.715     1986.142        0.720        0.402       60.331       34.557        0.328      340.841       15.140      872.316
05/02/2013  10:21:00       68.167       22.776       70.577       87.016      114.486       92.829     7571.838    13107.086     8617.262        1.972        1.465       71.871       89.835        1.562      340.849       15.153      872.302
05/02/2013  10:22:00      233.251     -285.261      -28.214      173.372      211.012      117.577    30058.008    44526.035    13824.296       11.248        4.420      368.484      146.114        0.157      340.395       14.383      872.246
05/02/2013  10:23:00      118.233     -108.605       25.520      105.044      205.578      109.576    11034.159    42262.437    12006.918        4.585        3.265      160.543      131.651        0.672      340.874       15.194      872.278
05/02/2013  10:24:00      104.332       -8.974       72.346      142.891      130.868       82.654    20417.728    17126.452     6831.615        3.028        2.219      104.718       80.802        0.595      340.926       15.284      872.308
05/02/2013  10:25:00      147.298       80.255       32.373       99.645       78.542       71.562     9929.086     6168.829     5121.083        2.520        1.061      167.743       39.601        0.056      340.789       15.051      872.310
05/02/2013  10:26:00       83.272       64.293       57.564       82.755       64.979       46.797     6848.363     4222.294     2189.912        1.382        0.663      105.204       34.648        0.108      340.973       15.363      872.316
05/02/2013  10:27:00       23.700       25.966       37.978       49.797       45.806       30.365     2479.693     2098.194      922.048        0.409        0.275       35.156       27.450        0.610      341.269       15.865      872.296
05/02/2013  10:28:00      174.617       85.370       22.536       81.930       65.823       58.090     6712.560     4332.682     3374.433        2.635        0.721      194.369       29.941        0.024      340.478       14.524      872.280
05/02/2013  10:29:00       77.937     -117.837      -11.878       69.963      117.130       49.179     4894.875    13719.546     2418.527        2.056        1.052      141.279       45.476        0.104      340.964       15.346      872.255
05/02/2013  10:30:00       38.025      -35.158       72.244       76.437      128.793       83.174     5842.563    16587.636     6917.942        1.862        1.467       51.788       85.452        2.723      341.230       15.798      872.231
05/02/2013  10:31:00      134.020     -205.908       -3.685       97.288      123.967       73.894     9464.885    15367.926     5460.257        4.533        1.515      245.681       80.448        0.107      340.709       14.914      872.234
05/02/2013  10:32:00      200.120     -231.746      -16.251      116.750      170.713       86.997    13630.479    29142.832     7568.564        7.217        2.517      306.193      104.047        0.115      340.794       15.058      872.199
05/02/2013  10:33:00       63.830     -103.951       25.369       85.084      138.763       62.032     7239.279    19255.265     3848.031        2.293        1.517      121.984       73.739        0.365      340.875       15.196      872.228
05/02/2013  10:34:00      151.039     -242.981      -22.362       92.413      102.215       56.352     8540.229    10447.922     3175.598        5.225        1.108      286.099       50.629        0.031      340.597       14.723      872.223
05/02/2013  10:35:00      117.820      -85.919       26.402      111.739      134.382       95.820    12485.557    18058.617     9181.519        3.084        1.986      145.820       95.656        0.430      341.062       15.512      872.210
05/02/2013  10:36:00       13.522     -109.721       13.380       79.521      115.229       53.345     6323.583    13277.801     2845.699        1.742        1.122      110.551       53.822        0.237      341.187       15.725      872.237
05/02/2013  10:37:00       81.505     -191.261        7.856       97.787      115.941       67.323     9562.303    13442.329     4532.426        3.541        1.377      207.903       61.186        0.087      341.044       15.481      872.226
05/02/2013  10:38:00       59.779      -65.252       38.463       69.814      110.162       69.983     4873.964    12135.590     4897.668        1.561        1.095       88.496       68.660        0.602      341.151       15.664      872.226
05/02/2013  10:39:00      141.135      157.933      124.247      105.095       87.919       82.779    11044.940     7729.792     6852.387        4.296        1.281      211.806       55.352        0.068      340.963       15.342      872.224
05/02/2013  10:40:00      146.105       89.406       73.512      107.679       85.511       59.522    11594.695     7312.097     3542.914        2.859        1.122      171.290       45.451        0.070      341.065       15.517      872.223
05/02/2013  10:41:00      173.786       85.445       92.521      108.543       90.849       71.987    11781.483     8253.556     5182.116        3.564        1.261      193.656       48.269        0.062      340.886       15.214      872.214
05/02/2013  10:42:00      164.278      181.649      159.916      116.376       92.941       78.971    13543.473     8637.946     6236.458        5.698        1.421      244.916       65.099        0.071      340.770       15.016      872.205
05/02/2013  10:43:00      182.264      124.739       52.309       80.945       59.818       58.449     6552.077     3578.186     3416.311        3.253        0.677      220.862       44.969        0.041      340.654       14.822      872.207
05/02/2013  10:44:00       90.322       94.153       71.475       88.191       62.818       62.476     7777.693     3946.054     3903.300        1.888        0.781      130.472       45.810        0.123      340.880       15.205      872.221
05/02/2013  10:45:00       30.487      -69.964       15.134       68.501      109.019       51.553     4692.365    11885.108     2657.725        1.264        0.962       76.318       45.005        0.348      341.246       15.824      872.207
05/02/2013  10:46:00       24.745       47.356       81.462       55.488       95.541       54.903     3078.960     9128.036     3014.391        1.235        0.761       53.432       54.375        1.036      341.406       16.097      872.194
05/02/2013  10:47:00       69.570      102.477      104.195       94.522       66.210       48.162     8934.455     4383.772     2319.560        2.092        0.782      123.861       40.725        0.108      341.313       15.938      872.185
05/02/2013  10:48:00       86.048     -192.674       -0.842      107.666      166.808       82.480    11591.900    27824.765     6802.918        4.537        2.311      211.015      103.569        0.241      341.098       15.572      872.189
05/02/2013  10:49:00      152.242       77.718      120.866      152.608      129.263      104.685    23289.140    16708.903    10958.886        4.738        2.548      170.932       88.500        0.268      341.149       15.659      872.196
05/02/2013  10:50:00      138.067      143.991      114.701      119.595       82.606       64.226    14302.966     6823.769     4125.022        3.910        1.263      199.489       52.104        0.068      341.053       15.494      872.175
05/02/2013  10:51:00      253.653      151.042       73.484      112.901       94.090       94.934    12746.706     8852.974     9012.474        6.158        1.531      295.218       62.648        0.045      340.746       14.976      872.133
05/02/2013  10:52:00      156.183      101.159       24.537      122.955      122.759       65.939    15117.861    15069.720     4347.960        3.488        1.727      186.082       46.533        0.063      341.072       15.529      872.105
05/02/2013  10:53:00       59.916       -4.652       45.339      115.552      133.212       67.585    13352.245    17745.339     4567.718        2.066        1.783       60.096       63.607        1.120      341.072       15.531      872.098
05/02/2013  10:54:00       83.755       27.532       32.856       65.108       66.390       53.227     4238.994     4407.658     2833.158        1.016        0.574       88.164       36.343        0.170      341.468       16.202      872.085
05/02/2013  10:55:00      127.355       95.287       73.605       92.775       77.014       66.087     8607.158     5931.176     4367.447        2.481        0.945      159.056       55.555        0.122      341.131       15.630      872.102
05/02/2013  10:56:00      108.949       32.508       71.968       95.817      128.200       77.147     9180.940    16435.134     5951.629        2.483        1.578      113.696       79.414        0.488      341.134       15.633      872.064
05/02/2013  10:57:00       81.396       21.470       94.966       93.696      109.558       73.072     8778.986    12002.976     5339.560        2.111        1.306       84.180       79.274        0.887      341.201       15.747      872.053
05/02/2013  10:58:00       56.225      101.651      123.066       91.614       90.221       79.864     8393.173     8139.886     6378.262        2.577        1.146      116.164       68.664        0.349      341.439       16.151      872.044
05/02/2013  10:59:00      108.356      -51.460       34.213       97.373      126.063       71.352     9481.540    15891.874     5091.164        2.301        1.523      119.954       64.808        0.292      341.300       15.916      872.039
05/02/2013  11:00:00       56.556      -77.344       46.845      116.497      113.252       87.863    13571.477    12826.062     7719.884        2.274        1.706       95.816       78.774        0.676      341.608       16.438      872.011
05/02/2013  11:01:00       72.176      -21.821       53.650      119.676       77.426       65.539    14322.412     5994.751     4295.341        1.658        1.231       75.402       73.132        0.941      341.284       15.890      872.028
05/02/2013  11:02:00        1.239       35.808       52.421       38.300       48.746       33.256     1466.874     2376.207     1105.993        0.449        0.247       35.830       22.636        0.399      341.367       16.032      872.008
05/02/2013  11:03:00        7.509      -46.558       20.178       31.205       73.610       46.586      973.727     5418.498     2170.248        0.560        0.428       47.159       52.735        1.250      341.330       15.968      872.004
05/02/2013  11:04:00       99.886       74.741       30.113       86.112       57.868       62.223     7415.269     3348.665     3871.652        1.555        0.732      124.753       54.939        0.194      341.123       15.615      872.007
05/02/2013  11:05:00      294.383      154.363       80.675      150.789      101.842       90.812    22737.192    10371.869     8246.793        7.917        2.068      332.399       72.852        0.048      341.256       15.840      871.956
05/02/2013  11:06:00      270.592      185.469      109.840      138.643      130.523      108.123    19221.979    17036.289    11690.496        8.381        2.397      328.053       70.134        0.046      341.357       16.010      871.933
05/02/2013  11:07:00      250.206      132.184       48.664      154.995      144.168       90.037    24023.546    20784.303     8106.571        6.767        2.646      282.976       59.311        0.044      341.541       16.323      871.922
05/02/2013  11:08:00       44.037       29.179       26.302       72.484       99.899       65.691     5253.885     9979.842     4315.317        1.151        0.977       52.827       44.844        0.721      341.965       17.044      871.935
05/02/2013  11:09:00       64.648      -11.554       68.624       88.773      131.206       89.054     7880.677    17214.983     7930.563        2.102        1.651       65.672       90.995        1.920      341.697       16.589      871.953
05/02/2013  11:10:00       15.444       37.750       92.037       61.086       86.629       47.728     3731.472     7504.594     2277.967        1.182        0.676       40.787       46.991        1.327      341.491       16.240      871.950
05/02/2013  11:11:00      135.933      120.213      123.693      131.166      134.088      108.989    17204.484    17979.699    11878.573        4.764        2.353      181.463       86.820        0.229      341.453       16.174      871.935
05/02/2013  11:12:00      269.648      192.068       50.573      135.429       98.399       86.695    18340.883     9682.294     7515.980        7.384        1.777      331.059       69.216        0.044      341.060       15.507      871.917
05/02/2013  11:13:00      158.433       63.815       20.712       93.149       82.507       49.632     8676.775     6807.330     2463.295        2.377        0.897      170.802       33.588        0.039      341.312       15.935      871.921
05/02/2013  11:14:00       68.656       30.345       45.277       93.941       97.588       60.298     8824.987     9523.419     3635.798        1.483        1.099       75.063       51.407        0.469      342.012       17.124      871.911
05/02/2013  11:15:00       76.037       49.476       31.647       95.931       84.166       62.555     9202.807     7083.881     3913.163        1.471        1.010       90.717       41.482        0.209      342.076       17.231      871.919
05/02/2013  11:16:00      106.499       94.327       59.236       88.809       79.658       76.105     7887.063     6345.388     5791.957        2.188        1.001      142.266       39.100        0.076      341.551       16.340      871.889
05/02/2013  11:17:00      132.239       43.239       22.655      181.961      262.678       99.692    33109.805    68999.883     9938.578        6.594        5.602      139.128       43.003        0.096      341.544       16.327      871.734
05/02/2013  11:18:00      227.380     -212.716       -4.868      155.805      185.159      100.222    24275.201    34283.734    10044.497        8.278        3.430      311.367      123.155        0.156      341.551       16.341      871.838
05/02/2013  11:19:00       30.472       35.718       88.035       93.213      100.796       73.563     8688.665    10159.843     5411.501        1.710        1.213       46.951       65.835        1.966      341.945       17.009      871.892
05/02/2013  11:20:00       60.022      -35.970       49.287       95.921      147.807       66.257     9200.824    21846.769     4390.053        2.138        1.772       69.975       76.434        1.193      341.745       16.669      871.882
05/02/2013  11:21:00      103.340      -56.015       23.841       94.071      110.470       57.153     8849.328    12203.566     3266.475        1.935        1.216      117.546       68.651        0.341      341.377       16.047      871.883
05/02/2013  11:22:00       53.623       72.918       94.749       78.575       98.713       75.188     6174.020     9744.336     5653.269        1.937        1.079       90.512       68.968        0.581      341.893       16.921      871.885
05/02/2013  11:23:00       58.385       38.969       57.942      114.595       92.485       48.226    13132.045     8553.542     2325.764        1.614        1.201       70.196       43.105        0.377      341.821       16.799      871.859
05/02/2013  11:24:00      160.038      -38.775       78.086      131.890      140.519       94.974    17395.091    19745.583     9020.071        3.968        2.308      164.669       87.530        0.283      341.844       16.835      871.837
05/02/2013  11:25:00      201.577      161.641       88.410      176.068      117.294       82.435    30999.972    13757.794     6795.511        6.306        2.578      258.382       89.142        0.119      341.689       16.573      871.831
05/02/2013  11:26:00      265.715      172.871      105.333      151.314       82.805       75.994    22895.838     6856.706     5775.034        7.355        1.776      316.999       76.448        0.058      341.247       15.823      871.802
05/02/2013  11:27:00      149.331       41.456       31.780       90.214       82.803       54.854     8138.555     6856.396     3008.924        2.151        0.900      154.978       49.388        0.102      341.377       16.046      871.817
05/02/2013  11:28:00       10.109       45.770       86.876       58.202       90.618       64.731     3387.423     8211.583     4190.039        1.276        0.789       46.874       63.477        1.834      341.921       16.969      871.802
05/02/2013  11:29:00      166.375     -111.961       57.815      165.164      184.931      113.550    27279.152    34199.354    12893.671        5.895        3.719      200.539      137.045        0.467      342.016       17.128      871.769
05/02/2013  11:30:00      111.497       52.219      138.213      144.047      141.405      100.980    20749.576    19995.506    10196.899        4.259        2.547      123.120      112.011        0.828      341.551       16.340      871.782
05/02/2013  11:31:00      160.180      -31.992       81.601      155.841      121.078       79.125    24286.418    14659.877     6260.733        3.927        2.260      163.344       81.720        0.250      341.633       16.480      871.737
05/02/2013  11:32:00      196.461     -124.819       11.078      100.463       81.563       69.817    10092.823     6652.509     4874.436        3.796        1.081      232.759       29.468        0.016      341.306       15.925      871.704
05/02/2013  11:33:00       97.407      -97.318       50.103      103.630      122.287       70.762    10739.159    14954.216     5007.251        2.608        1.535      137.692       68.302        0.246      341.697       16.588      871.662
05/02/2013  11:34:00      110.459      -75.412       44.842       84.470      131.711       70.786     7135.200    17347.855     5010.728        2.469        1.475      133.746       72.953        0.298      341.952       17.021      871.662
05/02/2013  11:35:00      133.015     -124.176        6.499       90.621       99.039       58.919     8212.134     9808.667     3471.486        2.732        1.075      181.969       68.247        0.141      341.855       16.856      871.662
05/02/2013  11:36:00       68.690     -119.126       29.511       99.724      140.086       79.314     9944.872    19624.039     6290.753        2.781        1.793      137.511       83.391        0.368      342.089       17.253      871.652
05/02/2013  11:37:00      110.636     -297.027      -19.006       98.429       86.121       59.958     9688.304     7416.873     3594.932        6.076        1.035      316.963       43.584        0.019      341.811       16.778      871.638
05/02/2013  11:38:00      114.468     -137.792       37.537      119.636      175.017       96.450    14312.664    30630.868     9302.624        4.386        2.712      179.136      118.358        0.437      341.792       16.749      871.644
05/02/2013  11:39:00      112.763      -68.497       45.172       76.247       90.121       66.312     5813.634     8121.880     4397.225        1.889        0.917      131.937       47.945        0.132      342.126       17.317      871.601
05/02/2013  11:40:00       60.690     -115.414       -5.161       84.519       80.567       60.240     7143.532     6490.967     3628.849        1.714        0.863      130.398       40.825        0.098      342.049       17.187      871.599
05/02/2013  11:41:00      108.944     -253.585      -15.245      118.890      127.743       77.743    14134.903    16318.195     6043.995        5.645        1.825      275.997       71.643        0.067      341.737       16.656      871.574
05/02/2013  11:42:00       16.483     -120.667        7.392       89.485      104.583       50.946     8007.572    10937.681     2595.507        1.821        1.077      121.788       63.094        0.268      341.935       16.992      871.547
05/02/2013  11:43:00       39.250     -147.070       19.229      174.021      126.503       74.594    30283.207    16003.022     5564.255        3.769        2.593      152.217       98.209        0.416      341.960       17.034      871.545
05/02/2013  11:44:00      154.125     -136.315       46.986      111.392      210.756      107.734    12408.069    44417.987    11606.675        5.648        3.422      205.758      131.762        0.410      341.800       16.762      871.511
05/02/2013  11:45:00      182.474     -180.928       24.410      158.716      192.580      131.516    25190.756    37087.211    17296.541        7.309        3.979      256.966      145.593        0.321      341.857       16.857      871.522
05/02/2013  11:46:00       90.527      -73.357       68.182       83.105      171.226       98.427     6906.502    29318.209     9687.849        3.206        2.296      116.518      125.776        1.165      341.587       16.403      871.527
05/02/2013  11:47:00      131.963     -216.447      -15.386      143.918      123.523       67.502    20712.350    15257.862     4556.456        5.251        2.026      253.502       77.681        0.094      341.683       16.563      871.496
05/02/2013  11:48:00      101.879       86.696       74.476      141.982       78.865       63.571    20158.914     6219.660     4041.327        2.693        1.521      133.775       74.941        0.314      341.884       16.907      871.504
05/02/2013  11:49:00      112.528      111.127      109.205      106.252       87.654       73.656    11289.548     7683.264     5425.265        3.066        1.220      158.151       63.721        0.162      341.738       16.657      871.475
05/02/2013  11:50:00       34.121       42.867       57.073       68.530       84.108       52.594     4696.416     7074.182     2766.179        1.040        0.727       54.789       48.393        0.780      341.684       16.568      871.452
05/02/2013  11:51:00       41.546        5.424       20.039       65.478       84.399       37.569     4287.322     7123.169     1411.403        0.749        0.641       41.898       11.989        0.082      341.836       16.825      871.423
05/02/2013  11:52:00      110.352      -98.963       -5.541       96.801       85.281       65.037     9370.473     7272.766     4229.822        2.143        1.044      148.227       64.273        0.188      342.148       17.354      871.411
05/02/2013  11:53:00      170.994     -170.084       35.187      166.545      261.886      119.677    27737.116    68584.458    14322.623        8.501        5.532      241.179      169.898        0.496      341.971       17.051      871.392
05/02/2013  11:54:00      206.534     -181.541       35.380      158.839      198.276      100.771    25229.707    39313.434    10154.723        7.577        3.735      274.979      124.540        0.205      341.924       16.973      871.340
05/02/2013  11:55:00      177.755     -223.155        7.268      145.260      165.357       96.784    21100.562    27343.065     9367.049        6.962        2.891      285.299      117.115        0.169      341.807       16.775      871.363
05/02/2013  11:56:00       84.353     -133.452        8.403       98.653      116.083       61.631     9732.352    13475.169     3798.351        2.600        1.350      157.876       81.611        0.267      341.895       16.924      871.370
05/02/2013  11:57:00       20.062       26.783       66.949       35.753       64.175       41.903     1278.311     4118.442     1755.822        0.638        0.358       33.464       41.464        1.535      342.365       17.724      871.355
05/02/2013  11:58:00      119.588       53.232       52.578       89.686      116.009       69.256     8043.639    13458.162     4796.451        2.309        1.315      130.900       58.337        0.199      342.179       17.405      871.342
05/02/2013  11:59:00      152.172      164.425      193.122      111.029      127.861       98.571    12327.541    16348.452     9716.303        6.293        1.920      224.036       87.565        0.153      342.095       17.261      871.337
05/02/2013  12:00:00      159.320      173.465      167.374      142.632      126.831      117.055    20343.795    16086.148    13701.767        6.680        2.507      235.527       98.086        0.173      341.532       16.308      871.333
05/02/2013  12:01:00       84.534       11.506       74.632      136.231      101.695       72.203    18558.777    10341.931     5213.303        2.348        1.706       85.313       68.042        0.636      341.989       17.085      871.330
05/02/2013  12:02:00      137.161        0.123       80.974      125.362      188.828       83.308    15715.627    35655.951     6940.303        4.183        2.916      137.161      112.405        0.672      341.987       17.079      871.317
05/02/2013  12:03:00      172.390      122.904       49.359      119.951       87.363       83.936    14388.302     7632.375     7045.247        3.816        1.453      211.716       75.493        0.127      341.506       16.262      871.305
05/02/2013  12:04:00      170.987      130.636       76.730      102.416       69.043       75.258    10489.117     4766.909     5663.750        3.655        1.046      215.179       48.356        0.051      341.589       16.402      871.270
05/02/2013  12:05:00      153.771       44.326      102.698      113.802      133.818       87.203    12950.818    17907.293     7604.389        3.730        1.923      160.032       90.809        0.322      341.927       16.978      871.249
05/02/2013  12:06:00      206.630     -125.150       28.271      140.887      182.685       83.511    19849.247    33373.632     6974.092        5.967        3.010      241.575       94.038        0.152      341.948       17.012      871.212
05/02/2013  12:07:00      114.584       59.086      128.022      114.166      146.011       98.760    13033.932    21319.223     9753.500        3.855        2.205      128.921       90.123        0.489      342.129       17.321      871.225
05/02/2013  12:08:00      156.632      138.957      115.527      151.605      108.857       85.038    22984.099    11849.759     7231.527        4.962        2.103      209.386       50.294        0.058      341.949       17.015      871.205
05/02/2013  12:09:00      121.201      -99.445       52.877      125.159      171.087       88.659    15664.772    29270.625     7860.486        4.008        2.640      156.776      106.176        0.459      341.992       17.090      871.207
05/02/2013  12:10:00      132.715     -148.560       56.327      116.378      204.971      118.775    13543.920    42013.010    14107.508        5.625        3.483      199.206      146.699        0.542      342.144       17.346      871.196
05/02/2013  12:11:00      152.660     -209.769      -43.535      102.090      132.901       77.493    10422.366    17662.595     6005.113        5.164        1.705      259.438       67.115        0.067      341.992       17.086      871.179
05/02/2013  12:12:00       63.958     -182.487      -37.383      133.258      106.415       57.186    17757.574    11324.116     3270.260        3.557        1.618      193.370       49.228        0.065      342.110       17.289      871.148
05/02/2013  12:13:00       34.497      -77.113       11.186       59.575       80.628       43.704     3549.227     6500.953     1910.043        0.961        0.598       84.477       38.061        0.203      342.620       18.157      871.130
05/02/2013  12:14:00       31.268       -6.635       56.356       66.051      106.023       69.406     4362.778    11240.839     4817.237        1.231        1.021       31.965       78.638        6.052      342.535       18.012      871.116
05/02/2013  12:15:00      239.608      104.997       52.328      118.751      103.629       78.898    14101.831    10738.987     6224.877        5.112        1.553      261.604       44.023        0.028      342.127       17.316      871.085
05/02/2013  12:16:00      203.708      139.433       61.327      113.335       92.724       91.593    12844.852     8597.768     8389.343        4.726        1.492      246.857       75.909        0.095      341.920       16.967      871.075
05/02/2013  12:17:00      113.391      148.701      162.326       82.862      122.511       80.708     6866.176    15008.993     6513.761        4.485        1.419      187.001       81.778        0.191      341.565       16.363      871.064
05/02/2013  12:18:00      168.817      112.776       50.331       68.063       40.185       44.733     4632.636     1614.868     2001.064        2.600        0.412      203.021       20.919        0.011      341.621       16.458      871.032
05/02/2013  12:19:00       28.824      -24.553       28.428       68.137       44.239       41.175     4642.655     1957.102     1695.354        0.527        0.415       37.864       25.158        0.441      341.882       16.903      871.011
05/02/2013  12:20:00       62.299     -102.996       -4.542       69.091      140.292       44.768     4773.610    19681.882     2004.139        2.048        1.323      120.372       22.978        0.036      341.913       16.956      871.002
05/02/2013  12:21:00      191.343     -179.410       28.469      140.069      238.212      137.458    19619.321    56745.159    18894.748        8.242        4.763      262.298      162.451        0.384      342.275       17.567      870.955
05/02/2013  12:22:00       79.855      -78.964       49.245       90.970      203.364       93.311     8275.519    41357.107     8706.922        3.668        2.917      112.304      115.719        1.062      342.531       18.003      870.956
05/02/2013  12:23:00       18.384       22.721       59.431       74.107       83.370       43.557     5491.859     6950.526     1897.183        0.936        0.717       29.227       32.769        1.257      342.570       18.072      870.960
05/02/2013  12:24:00      143.796      184.373      152.003       99.701       77.277       76.332     9940.253     5971.723     5826.606        4.975        1.087      233.817       67.288        0.083      341.936       16.991      870.946
05/02/2013  12:25:00       92.806       67.313       92.945      104.410      115.292       80.897    10901.439    13292.320     6544.308        2.626        1.537      114.648       72.058        0.395      341.910       16.950      870.902
05/02/2013  12:26:00       50.081      105.687      134.333       76.278      101.223       70.163     5818.385    10246.032     4922.816        2.635        1.049      116.953       63.056        0.291      342.495       17.944      870.879
05/02/2013  12:27:00      176.570      148.935      141.545      148.475      100.627       83.539    22044.751    10125.872     6978.804        5.626        1.957      230.994       74.503        0.104      342.167       17.385      870.852
05/02/2013  12:28:00       51.662      -37.698       43.052       73.377      111.706       65.957     5384.159    12478.337     4350.362        1.407        1.111       63.954       63.982        1.001      342.468       17.898      870.856
05/02/2013  12:29:00      100.989     -138.712       19.661      142.673      196.435      104.145    20355.562    38586.558    10846.115        4.980        3.489      171.580      129.491        0.570      342.781       18.429      870.836
05/02/2013  12:30:00       35.996      -80.407       53.447       82.037      128.756       61.034     6730.100    16578.054     3725.094        1.882        1.352       88.097       70.166        0.634      342.853       18.552      870.849
05/02/2013  12:31:00       24.738        5.165       92.618       54.128       86.617       57.530     2929.887     7502.514     3309.661        1.148        0.687       25.271       36.119        2.043      342.613       18.146      870.847
05/02/2013  12:32:00      -18.883      -43.707       63.323       72.446       76.705       50.822     5248.420     5883.658     2582.910        0.999        0.686       47.611       50.013        1.103      342.847       18.544      870.845
05/02/2013  12:33:00       -8.476      -61.290       24.915       77.778       68.217       51.165     6049.407     4653.539     2617.860        0.888        0.666       61.874       48.432        0.613      342.764       18.402      870.825
05/02/2013  12:34:00      206.766       93.323       56.413       91.386       74.295       66.881     8351.446     5519.777     4473.127        3.649        0.917      226.851       52.990        0.055      342.297       17.604      870.797
05/02/2013  12:35:00       48.774      -31.794       57.418       89.351      155.032       69.742     7983.531    24034.886     4863.903        2.178        1.844       58.221       78.956        1.839      342.619       18.155      870.787
05/02/2013  12:36:00      163.182     -164.078        9.387      132.049      174.525      109.352    17436.917    30458.802    11957.824        5.674        2.993      231.409      115.101        0.247      342.499       17.949      870.738
05/02/2013  12:37:00       42.762      -87.632        3.831       86.144       94.006       61.446     7420.736     8837.105     3775.607        1.477        1.002       97.509       60.480        0.385      342.745       18.369      870.782
05/02/2013  12:38:00       10.615        3.646       25.822       55.338       50.577       40.597     3062.331     2558.041     1648.101        0.403        0.363       11.224       24.962        4.946      342.474       17.908      870.769
05/02/2013  12:39:00        2.609      -46.563       17.592       77.074       66.629       49.439     5940.395     4439.441     2444.228        0.765        0.641       46.636       38.589        0.685      342.594       18.114      870.749
05/02/2013  12:40:00       23.143        6.559       34.427       56.392       52.703       37.486     3180.109     2777.598     1405.205        0.456        0.368       24.055       35.517        2.180      342.576       18.082      870.742
05/02/2013  12:41:00       -9.388       24.351      -22.476       22.663       41.732       17.740      513.610     1741.589      314.702        0.188        0.128       26.098        8.140        0.097      342.445       17.859      870.734
05/02/2013  12:42:00      -81.455       -7.824        2.735       55.663       56.022       34.993     3098.314     3138.430     1224.525        0.708        0.373       81.830       30.874        0.142      342.714       18.317      870.724
05/02/2013  12:43:00       75.001      -14.671       32.053       67.569       79.636       48.981     4565.569     6341.835     2399.161        1.008        0.665       76.422       43.958        0.331      342.832       18.517      870.729
05/02/2013  12:44:00      142.461      149.128      102.838      121.678      148.954      133.783    14805.490    22187.362    17897.815        5.399        2.745      206.238      110.585        0.288      342.776       18.420      870.665
05/02/2013  12:45:00      139.774      -91.645       62.916      131.948      128.734       97.746    17410.159    16572.411     9554.376        3.771        2.177      167.140       77.326        0.214      342.787       18.439      870.669
05/02/2013  12:46:00      138.373       65.263      105.418      131.699      167.343       99.398    17344.658    28003.590     9879.998        4.486        2.761      152.992       99.795        0.425      342.524       17.992      870.654
05/02/2013  12:47:00      195.165      130.370       86.290      130.039       85.676       85.875    16910.186     7340.355     7374.470        4.707        1.581      234.703       65.532        0.078      342.293       17.598      870.647
05/02/2013  12:48:00      172.392      143.684      143.279      156.339      117.339       97.770    24441.818    13768.429     9558.979        5.932        2.388      224.419       96.169        0.184      342.503       17.955      870.624
05/02/2013  12:49:00      131.222       20.226       15.126      108.494       91.884       63.131    11770.960     8442.700     3985.550        2.102        1.210      132.771       55.262        0.173      342.761       18.396      870.624
05/02/2013  12:50:00       97.982       73.058       87.192      113.488      103.006       72.845    12879.425    10610.200     5306.451        2.566        1.440      122.221       67.839        0.308      342.908       18.645      870.605
05/02/2013  12:51:00      180.427      137.837       90.270      152.961       94.646       65.647    23397.101     8957.886     4309.569        4.818        1.833      227.053       57.667        0.065      342.670       18.241      870.596
05/02/2013  12:52:00       84.719       66.182       79.560       98.744       75.531       56.840     9750.423     5704.954     3230.741        1.828        0.934      107.505       42.942        0.160      342.737       18.354      870.600
05/02/2013  12:53:00       88.719       65.267       28.443       68.018       55.805       55.551     4626.499     3114.170     3085.892        1.188        0.541      110.140       28.203        0.066      342.375       17.740      870.599
05/02/2013  12:54:00       59.848       43.325       52.359       57.677       58.213       39.888     3326.658     3388.794     1591.046        0.825        0.415       73.884       31.760        0.185      342.442       17.855      870.589
05/02/2013  12:55:00      135.177     -216.199      -31.894      100.959      142.841       56.249    10192.814    20403.506     3163.989        4.989        1.688      254.980       69.048        0.073      342.478       17.915      870.588
05/02/2013  12:56:00      136.779      -28.669       52.847      134.952      207.194      103.717    18212.149    42929.273    10757.170        4.710        3.595      139.751      104.581        0.560      342.729       18.340      870.562
05/02/2013  12:57:00      189.379      108.613      108.776      137.524      115.113       79.825    18912.735    13251.021     6372.083        4.901        1.927      218.315       73.587        0.114      342.712       18.310      870.582
05/02/2013  12:58:00      139.010      117.456      140.827      139.919      123.648       96.925    19577.393    15288.891     9394.472        4.860        2.213      181.989       94.726        0.271      342.898       18.626      870.602
05/02/2013  12:59:00      161.515      102.899       75.059      107.347      102.315       70.534    11523.372    10468.416     4975.029        3.463        1.348      191.508       62.549        0.107      342.585       18.095      870.591
05/02/2013  13:00:00      202.878      123.334       33.467       69.184       51.308       53.988     4786.413     2632.477     2914.709        3.391        0.517      237.426       38.664        0.027      342.573       18.073      870.558
05/02/2013  13:01:00       38.225        4.981       43.394       71.917      108.415       61.951     5172.011    11753.808     3837.922        1.206        1.038       38.548       14.061        0.133      342.882       18.602      870.510
05/02/2013  13:02:00      100.517      104.047       32.264       97.486       80.234       71.810     9503.498     6437.432     5156.668        2.153        1.055      144.670       26.707        0.034      342.850       18.547      870.476
05/02/2013  13:03:00      131.229       86.142       36.146       92.153       56.990       52.355     8492.217     3247.828     2741.075        2.021        0.724      156.976       39.041        0.062      342.798       18.457      870.474
05/02/2013  13:04:00      104.821       69.461       64.331       99.566      107.269       94.451     9913.349    11506.737     8921.042        2.514        1.517      125.747       79.138        0.396      343.235       19.202      870.470
05/02/2013  13:05:00      227.196      125.841      128.231      176.430      131.733      103.578    31127.431    17353.628    10728.461        7.154        2.960      259.719       98.894        0.145      342.613       18.140      870.457
05/02/2013  13:06:00      104.672       60.706       97.329      117.472      104.877       76.647    13799.771    10999.100     5874.769        2.739        1.534      121.002       73.887        0.373      342.671       18.243      870.459
05/02/2013  13:07:00      275.609      155.766      131.629      156.358      120.046      105.538    24447.945    14411.118    11138.364        8.377        2.500      316.581       77.702        0.060      342.645       18.196      870.443
05/02/2013  13:08:00      156.065      107.055      133.279      127.115       85.105       69.546    16158.346     7242.850     4836.658        4.090        1.412      189.254       49.403        0.068      342.681       18.258      870.479
05/02/2013  13:09:00      100.349       56.091      100.834      112.878      110.680       67.270    12741.547    12250.110     4525.314        2.645        1.476      114.961       68.023        0.350      342.510       17.967      870.473
05/02/2013  13:10:00      213.566      162.773      105.309      131.148       75.875       74.425    17199.858     5756.958     5539.130        5.584        1.425      268.524       64.630        0.058      342.659       18.221      870.455
05/02/2013  13:11:00      139.241      112.265       16.367       97.929      104.341       50.907     9590.133    10887.139     2591.543        2.766        1.153      178.861       34.416        0.037      342.653       18.212      870.471
05/02/2013  13:12:00      100.665       74.376       81.390       94.931       76.539       61.843     9011.980     5858.152     3824.586        2.049        0.935      125.161       53.671        0.184      342.689       18.273      870.451
05/02/2013  13:13:00      115.061      121.058       45.210       88.901       74.451       79.171     7903.448     5542.977     6267.983        2.482        0.986      167.016       55.030        0.109      342.571       18.071      870.430
05/02/2013  13:14:00       51.589      -10.336       58.869       59.696      143.339       82.139     3563.562    20546.103     6746.874        1.854        1.543       52.614       91.204        3.005      342.945       18.710      870.394
05/02/2013  13:15:00       91.207       71.346       46.036       91.540       59.322       57.447     8379.558     3519.122     3300.150        1.536        0.760      115.797       43.669        0.142      343.235       19.203      870.388
05/02/2013  13:16:00      172.163      119.817       32.845       84.054       75.767       63.215     7065.114     5740.602     3996.124        3.094        0.840      209.752       27.514        0.017      342.721       18.327      870.380
05/02/2013  13:17:00       77.029       77.802       20.197       84.353       70.557       45.063     7115.485     4978.349     2030.689        1.326        0.706      109.484       32.273        0.087      342.860       18.564      870.361
05/02/2013  13:18:00      199.241      138.153       54.892       83.862       63.612       74.246     7032.868     4046.535     5512.533        3.919        0.830      242.453       38.561        0.025      342.868       18.574      870.348
05/02/2013  13:19:00      182.317      148.193       35.999      104.259       65.824       61.733    10870.010     4332.742     3810.988        3.775        0.951      234.949       39.906        0.029      342.934       18.689      870.315
05/02/2013  13:20:00      174.506      102.336       74.697       94.588       88.069       88.389     8946.843     7756.138     7812.695        3.551        1.226      202.299       57.709        0.081      343.110       18.987      870.311
05/02/2013  13:21:00      193.730       79.607       60.289      105.674      101.756       84.013    11167.042    10354.215     7058.199        3.804        1.429      209.448       55.242        0.070      342.638       18.184      870.334
05/02/2013  13:22:00       84.799       69.229       33.502       74.713       65.360       52.567     5581.994     4271.895     2763.264        1.286        0.631      109.469       40.059        0.134      342.800       18.463      870.315
05/02/2013  13:23:00       43.669       82.406        0.701       72.171       67.125       36.801     5208.634     4505.819     1354.289        0.988        0.553       93.262       26.249        0.079      342.929       18.683      870.283
05/02/2013  13:24:00        5.753       28.915       24.614       60.648       54.577       32.865     3678.135     2978.623     1080.083        0.460        0.387       29.482       28.928        0.963      343.445       19.563      870.265
05/02/2013  13:25:00       23.048       92.625      -15.250       34.610       73.128       25.493     1197.883     5347.777      649.878        0.827        0.360       95.449       28.124        0.087      343.127       19.020      870.270
05/02/2013  13:26:00      -41.532      -34.570      -18.578       73.930       72.144       33.344     5465.605     5204.753     1111.815        0.752        0.589       54.037       32.867        0.370      343.301       19.317      870.274
05/02/2013  13:27:00      108.186      -58.451       37.030      111.631       98.359       64.387    12461.565     9674.420     4145.624        2.138        1.314      122.966       60.597        0.243      343.371       19.435      870.235
05/02/2013  13:28:00       41.292      -48.640        7.133       48.806       73.411       32.648     2382.031     5389.223     1065.903        0.648        0.442       63.803       25.520        0.160      343.449       19.568      870.227
05/02/2013  13:29:00       53.360      -61.825       21.052       44.567       79.523       47.735     1986.179     6323.886     2278.677        0.885        0.529       81.668       46.352        0.322      343.580       19.791      870.220
05/02/2013  13:30:00      -13.075        7.468       75.315       73.673       85.388       75.642     5427.736     7291.062     5721.679        1.217        0.922       15.058       61.757       16.821      343.752       20.085      870.193
05/02/2013  13:31:00       -6.746      -37.918       62.918       57.073       69.882       57.205     3257.312     4883.549     3272.456        0.843        0.571       38.513       46.731        1.472      343.544       19.729      870.194
05/02/2013  13:32:00       -0.117     -129.206        6.971       73.203       65.801       49.483     5358.610     4329.756     2448.553        1.444        0.607      129.206       35.192        0.074      343.583       19.797      870.210
05/02/2013  13:33:00      122.442     -188.126      -16.580      102.166      106.984       58.661    10437.988    11445.504     3441.068        3.799        1.266      224.462       55.767        0.062      343.180       19.109      870.183
05/02/2013  13:34:00      208.376     -353.757      -27.445       95.843       80.943       52.634     9185.918     6551.772     2770.303        9.391        0.925      410.566       55.809        0.018      342.717       18.318      870.180
05/02/2013  13:35:00       65.193     -141.334       14.465       70.170       91.133       53.244     4923.850     8305.210     2834.953        2.025        0.803      155.645       51.413        0.109      343.157       19.070      870.178
05/02/2013  13:36:00       34.032     -143.297        7.957       72.916      122.078       73.068     5316.740    14903.040     5338.877        2.365        1.278      147.283       69.162        0.221      343.413       19.503      870.156
05/02/2013  13:37:00        1.874     -157.254      -17.454      115.408       76.041       55.277    13318.934     5782.195     3055.582        2.359        1.108      157.265       61.365        0.152      343.480       19.618      870.143
05/02/2013  13:38:00      -44.996     -111.878       21.434       99.804       92.202       57.188     9960.779     8501.215     3270.455        1.836        1.087      120.587       46.955        0.152      343.780       20.132      870.128
05/02/2013  13:39:00      -84.717      -59.352        1.293       46.229       65.035       29.520     2137.085     4229.517      871.457        0.897        0.362      103.439       20.613        0.040      343.331       19.368      870.162
05/02/2013  13:40:00      -38.160      -32.599        6.348       38.691       35.921       20.865     1496.992     1290.320      435.362        0.289        0.161       50.189       14.662        0.085      343.359       19.415      870.170
05/02/2013  13:41:00      -53.219       18.819       13.194       27.199       25.139       19.673      739.774      631.988      387.014        0.256        0.088       56.448       14.013        0.062      343.349       19.399      870.167
05/02/2013  13:42:00      -39.333        7.175        5.764       34.842       23.040       18.838     1213.974      530.855      354.858        0.187        0.105       39.982       13.422        0.113      343.258       19.242      870.140
05/02/2013  13:43:00       72.274       50.034        6.622       99.017       60.495       40.016     9804.459     3659.632     1601.270        1.142        0.753       87.903       35.751        0.165      343.478       19.618      870.128
05/02/2013  13:44:00      187.433      120.850       27.666       65.267       46.991       54.770     4259.819     2208.110     2999.732        2.998        0.473      223.015       39.078        0.031      342.984       18.772      870.101
05/02/2013  13:45:00      112.086      113.246       11.545      102.649       67.436       55.216    10536.818     4547.549     3048.771        2.182        0.907      159.336       36.741        0.053      343.251       19.229      870.086
05/02/2013  13:46:00      152.221      148.894        0.712       73.083       83.331       70.245     5341.138     6943.990     4934.426        3.128        0.861      212.933       55.878        0.069      343.020       18.834      870.076
05/02/2013  13:47:00      120.283       78.942       24.345       68.678       47.623       43.919     4716.673     2267.927     1928.899        1.510        0.446      143.875       23.404        0.026      343.190       19.127      870.063
05/02/2013  13:48:00      107.129       65.606        8.624       65.080       50.582       29.093     4235.443     2558.497      846.405        1.175        0.382      125.622       21.238        0.029      343.172       19.096      870.058
05/02/2013  13:49:00      -15.458      -42.701      -17.343       70.337       99.183       33.548     4947.351     9837.218     1125.500        0.913        0.796       45.413       29.843        0.432      343.164       19.084      870.018
05/02/2013  13:50:00       -7.180       12.129       31.000       39.429       65.132       32.480     1554.620     4242.185     1054.920        0.400        0.343       14.095       23.961        2.890      343.616       19.853      869.986
05/02/2013  13:51:00      -57.089       99.634       -6.926       39.725       60.951       41.600     1578.106     3715.027     1730.545        1.013        0.351      114.831       33.995        0.088      343.357       19.412      869.969
05/02/2013  13:52:00     -161.268       13.765      -35.021       59.821       73.094       39.249     3578.495     5342.736     1540.486        1.894        0.523      161.854       27.206        0.028      343.211       19.163      869.927
05/02/2013  13:53:00      -33.589       44.457       13.654       50.572       44.119       36.652     2557.528     1946.530     1343.381        0.457        0.292       55.719       34.215        0.377      343.917       20.366      869.901
05/02/2013  13:54:00        8.476      -34.412       21.955       25.726       28.771       19.854      661.852      827.768      394.165        0.181        0.094       35.441       14.929        0.177      344.164       20.788      869.918
05/02/2013  13:55:00       91.300     -207.915      -28.606       84.442       66.960       38.550     7130.419     4483.672     1486.098        3.274        0.655      227.077       27.041        0.014      343.397       19.476      869.913
05/02/2013  13:56:00       46.584      -44.482       55.366       83.830      124.062       91.816     7027.466    15391.425     8430.188        1.903        1.542       64.410       89.570        1.934      343.777       20.126      869.900
05/02/2013  13:57:00       11.367      -15.363       85.529       97.078      111.591       77.949     9424.157    12452.523     6075.975        1.781        1.398       19.111       67.078       12.319      343.810       20.183      869.895
05/02/2013  13:58:00      111.860       49.185       75.448       96.236       98.504       85.973     9261.294     9703.063     7391.392        2.349        1.318      122.196       77.346        0.401      343.403       19.489      869.925
05/02/2013  13:59:00      249.784      145.072       30.069      114.838       79.167       72.622    13187.807     6267.463     5274.012        5.453        1.236      288.856       68.088        0.056      343.402       19.484      869.888
05/02/2013  14:00:00       91.560      114.175       85.927      110.881      116.809       91.950    12294.520    13644.349     8454.799        3.159        1.720      146.353       73.202        0.250      343.507       19.664      869.893
05/02/2013  14:01:00      111.664       64.913       34.709      106.508      100.856       56.478    11343.849    10171.933     3189.715        2.129        1.235      129.161       48.852        0.143      343.422       19.521      869.886
05/02/2013  14:02:00       45.614      -44.686        4.729       67.112       43.527       36.855     4504.040     1894.589     1358.318        0.593        0.388       63.855       27.768        0.189      343.496       19.648      869.895
05/02/2013  14:03:00      101.792      -73.310       19.230       89.877       77.306       61.756     8077.830     5976.270     3813.831        1.698        0.893      125.443       59.778        0.227      343.546       19.732      869.888
05/02/2013  14:04:00      157.505       -5.933       91.000      112.474      125.617       88.700    12650.403    15779.588     7867.699        3.470        1.815      157.617       87.560        0.309      343.454       19.574      869.900
05/02/2013  14:05:00      132.516        3.115       36.100      124.421      113.585       64.107    15480.586    12901.517     4109.730        2.568        1.625      132.553       57.822        0.190      343.413       19.504      869.898
05/02/2013  14:06:00       56.506      -25.732       28.086       71.355      113.502       55.748     5091.495    12882.789     3107.810        1.286        1.054       62.089       30.192        0.236      344.027       20.552      869.892
05/02/2013  14:07:00       51.806      -14.059        0.331       61.928       97.199       33.920     3835.129     9447.602     1150.560        0.866        0.722       53.680       28.539        0.283      343.623       19.866      869.903
05/02/2013  14:08:00       -1.425      -93.367       -2.877       36.278       56.624       26.632     1316.058     3206.265      709.256        0.698        0.262       93.378       21.270        0.052      343.784       20.140      869.882
05/02/2013  14:09:00      -93.663     -153.978      -17.400      119.526       81.935       50.363    14286.535     6713.275     2536.403        2.816        1.177      180.227       44.340        0.061      343.420       19.517      869.866
05/02/2013  14:10:00     -196.758      -38.810      -27.619       61.721       53.975       44.286     3809.500     2913.267     1961.275        2.483        0.434      200.549       26.724        0.018      343.376       19.442      869.818
05/02/2013  14:11:00     -165.903      -50.454       -0.886       79.285       72.550       41.447     6286.188     5263.521     1717.858        2.167        0.663      173.405       36.914        0.045      343.449       19.566      869.779
05/02/2013  14:12:00      -53.961      -25.399      -16.704       59.220       33.018       18.775     3506.974     1090.205      352.509        0.439        0.247       59.640       17.050        0.082      343.280       19.281      869.797
05/02/2013  14:13:00      -16.268      -23.939       -0.011       39.688       38.657       24.999     1575.114     1494.366      624.925        0.227        0.185       28.944        9.751        0.113      343.423       19.524      869.783
05/02/2013  14:14:00      -96.082       10.105       -1.643       49.156       39.336       28.789     2416.312     1547.356      828.789        0.706        0.240       96.612       30.866        0.102      343.682       19.967      869.757
05/02/2013  14:15:00      -14.270       23.029      -10.517       64.746       47.991       38.063     4192.029     2303.165     1448.773        0.439        0.397       27.092       42.624        2.475      343.729       20.047      869.739
05/02/2013  14:16:00       57.778       84.802       40.043       46.125       38.291       36.830     2127.488     1466.194     1356.461        0.854        0.248      102.615       26.831        0.068      343.614       19.850      869.724
05/02/2013  14:17:00       73.190       11.916       46.535       93.906       59.212       61.201     8818.397     3506.114     3745.574        1.186        0.804       74.154       41.356        0.311      344.122       20.716      869.716
05/02/2013  14:18:00      104.221       64.514       42.471      103.770       80.437       58.530    10768.271     6470.173     3425.798        1.874        1.033      122.573       25.246        0.042      344.080       20.644      869.698
05/02/2013  14:19:00      187.214      109.641       25.141      123.093       97.560       65.495    15151.910     9517.991     4289.649        3.833        1.448      216.956       43.715        0.041      343.901       20.336      869.679
05/02/2013  14:20:00      104.130       86.963       17.484       94.080       78.278       63.630     8851.095     6127.436     4048.821        1.887        0.951      135.667       46.678        0.118      343.961       20.439      869.664
05/02/2013  14:21:00       88.777      108.286      100.400      111.388      130.711      104.345    12407.263    17085.496    10887.788        3.503        2.019      140.026       89.138        0.405      344.243       20.921      869.653
05/02/2013  14:22:00      246.367      -45.550       91.672      159.711      157.491      108.296    25507.578    24803.566    11728.062        6.660        3.102      250.542      110.418        0.194      343.583       19.793      869.646
05/02/2013  14:23:00      177.852       76.440       95.450      119.337       89.773       81.201    14241.250     8059.201     6593.600        3.773        1.445      193.583       69.130        0.128      343.279       19.277      869.699
05/02/2013  14:24:00       50.585      113.133      119.312       82.427       72.409       58.108     6794.249     5243.022     3376.588        2.250        0.771      123.927       55.644        0.202      343.190       19.125      869.693
05/02/2013  14:25:00      145.912       96.108       81.222      116.466       85.966       70.705    13564.414     7390.171     4999.152        3.153        1.298      174.720       68.673        0.154      343.315       19.338      869.685
05/02/2013  14:26:00      118.481      -75.739       22.875      122.477      129.431       78.759    15000.502    16752.364     6202.983        2.912        1.898      140.621       84.352        0.360      343.675       19.952      869.664
05/02/2013  14:27:00      123.654       28.156       79.624       92.617      129.122       67.763     8577.909    16672.475     4591.884        2.613        1.492      126.820       66.114        0.272      343.713       20.017      869.657
05/02/2013  14:28:00       63.105      -87.792        5.391       60.699       75.102       53.995     3684.347     5640.372     2915.481        1.198        0.612      108.119       39.633        0.134      343.591       19.809      869.657
05/02/2013  14:29:00       58.497      -58.514       30.322       52.409      115.994       46.965     2746.663    13454.686     2205.706        1.308        0.920       82.740       49.141        0.353      343.916       20.363      869.620
05/02/2013  14:30:00      128.628       15.093       66.234       80.283      113.044       68.662     6445.401    12778.920     4714.490        2.255        1.197      129.511       69.874        0.291      343.525       19.696      869.617
05/02/2013  14:31:00      274.782      124.017       26.599      106.847      102.058       67.829    11416.334    10415.753     4600.731        5.901        1.322      301.472       52.172        0.030      343.417       19.511      869.624
05/02/2013  14:32:00       24.930      -27.131        7.532       47.293       45.188       29.409     2236.653     2041.941      864.905        0.328        0.257       36.846       28.349        0.592      343.419       19.517      869.642
05/02/2013  14:33:00       -6.896       17.310       20.519       57.205       26.635       39.005     3272.457      709.416     1521.367        0.313        0.275       18.633       39.992        4.607      343.778       20.131      869.578
05/02/2013  14:34:00      -39.074      137.699      -15.442       45.552       94.373       32.860     2075.003     8906.286     1079.749        1.639        0.603      143.136       31.681        0.049      343.577       19.786      869.548
05/02/2013  14:35:00       18.770      -40.529       24.110       20.065       46.869       18.510      402.590     2196.739      342.603        0.276        0.147       44.664       11.953        0.072      343.917       20.367      869.527
05/02/2013  14:36:00       38.736     -100.665      -15.028       49.063       50.061       39.793     2407.225     2506.082     1583.470        0.918        0.325      107.861       13.445        0.016      343.822       20.205      869.489
05/02/2013  14:37:00      -54.324       16.924       20.276       65.028      105.578       55.442     4228.599    11146.637     3073.771        1.105        0.922       56.900       27.766        0.238      344.150       20.764      869.447
05/02/2013  14:38:00     -105.621       91.189      -21.510       36.182       69.823       28.241     1309.104     4875.224      797.582        1.346        0.349      139.539       20.012        0.021      343.625       19.868      869.413
05/02/2013  14:39:00     -174.172       -3.264      -18.494       56.987       58.635       26.074     3247.501     3438.065      679.867        1.903        0.368      174.203       10.995        0.004      343.814       20.191      869.367
05/02/2013  14:40:00     -104.887      -46.771        0.557       59.788       39.176       26.130     3574.558     1534.735      682.760        0.949        0.290      114.843       23.462        0.042      343.827       20.213      869.347
05/02/2013  14:41:00       -1.776       17.763       20.955       28.268       14.676       18.538      799.059      215.393      343.666        0.106        0.068       17.852       18.806        1.110      344.355       21.115      869.345
05/02/2013  14:42:00      -25.153       32.644       25.942       36.661       35.281       32.743     1344.011     1244.746     1072.074        0.302        0.183       41.211       23.933        0.337      344.656       21.630      869.317
05/02/2013  14:43:00      -86.730       73.901      -26.979       80.266       84.028       36.113     6442.595     7060.641     1304.166        1.426        0.740      113.945       31.081        0.074      344.337       21.084      869.277
05/02/2013  14:44:00       95.276      119.872        3.568      152.357      190.651      120.764    23212.674    36347.858    14583.835        4.879        3.707      153.123       68.936        0.203      344.391       21.173      869.223
05/02/2013  14:45:00      137.398      170.959      153.350      114.016       93.334       57.661    12999.562     8711.197     3324.769        4.832        1.252      219.329       47.705        0.047      344.567       21.475      869.237
05/02/2013  14:46:00      269.190      207.507      140.574      185.929      133.890      120.450    34569.600    17926.435    14508.318       10.113        3.350      339.886       95.413        0.079      343.786       20.139      869.218
05/02/2013  14:47:00       93.574       87.473       70.119      103.581       78.509       78.000    10729.117     6163.598     6084.074        2.215        1.149      128.093       46.193        0.130      343.837       20.230      869.233
05/02/2013  14:48:00      264.016      161.325       85.873      151.859      103.874       92.924    23061.204    10789.792     8634.778        7.279        2.124      309.403       81.153        0.069      343.918       20.364      869.207
05/02/2013  14:49:00      316.880      201.094       35.730       95.624       82.455       74.863     9143.937     6798.811     5604.469        8.183        1.077      375.302       54.987        0.021      343.806       20.175      869.227
05/02/2013  14:50:00      250.182      159.734       20.216       72.770       60.015       56.228     5295.427     3601.817     3161.574        5.028        0.603      296.826       28.697        0.009      343.569       19.768      869.228
05/02/2013  14:51:00      118.985       74.523       13.427       48.316       39.369       27.057     2334.392     1549.881      732.065        1.225        0.231      140.396        9.578        0.005      343.483       19.626      869.209
05/02/2013  14:52:00       54.128       -8.917        3.665       59.644       55.261       36.650     3557.395     3053.732     1343.190        0.549        0.398       54.858       26.338        0.231      343.965       20.448      869.182
05/02/2013  14:53:00      112.938       80.836       27.795       62.188       52.555       42.206     3867.379     2762.068     1781.387        1.423        0.421      138.886       24.009        0.030      343.690       19.979      869.154
05/02/2013  14:54:00       85.293       83.728        1.691       38.049       28.116       27.125     1447.715      790.490      735.756        0.863        0.149      119.521       21.455        0.032      343.603       19.832      869.131
05/02/2013  14:55:00       28.298       21.585       -7.194       54.793       40.034       26.166     3002.239     1602.727      684.652        0.330        0.264       35.590       14.594        0.168      343.744       20.073      869.141
05/02/2013  14:56:00       -3.502       60.091       -8.780       43.870       60.569       29.773     1924.602     3668.603      886.456        0.509        0.324       60.193       33.059        0.302      344.147       20.760      869.127
05/02/2013  14:57:00       73.722      114.612       -3.946       77.442       79.629       49.818     5997.239     6340.837     2481.829        1.670        0.741      136.275       43.001        0.100      344.219       20.882      869.105
05/02/2013  14:58:00       33.330      121.160      -11.392       58.056       95.304       45.187     3370.451     9082.866     2041.826        1.521        0.725      125.661       51.638        0.169      344.199       20.848      869.087
05/02/2013  14:59:00       63.822      151.680       -2.664       80.397      114.860       53.547     6463.704    13192.756     2867.318        2.480        1.126      164.560       56.781        0.119      344.112       20.697      869.073
05/02/2013  15:00:00       69.257      -24.059       55.578       77.614      104.293       59.024     6023.979    10877.000     3483.872        1.442        1.019       73.317       53.558        0.534      344.066       20.621      869.038
05/02/2013  15:01:00       62.919       74.112       27.357       78.705       66.540       39.848     6194.416     4427.532     1587.861        1.120        0.610       97.218       43.830        0.203      344.046       20.586      869.017
05/02/2013  15:02:00      106.336       79.574       -0.092       81.449       85.823       47.877     6634.018     7365.658     2292.229        1.696        0.815      132.814       27.068        0.042      344.200       20.850      869.011
05/02/2013  15:03:00      117.006       58.142       68.094      122.932      130.842       66.134    15112.172    17119.562     4373.719        2.915        1.830      130.655       66.571        0.260      344.331       21.073      868.992
05/02/2013  15:04:00       49.168       70.608       95.856       79.197       68.259       50.860     6272.117     4659.336     2586.722        1.505        0.676       86.040       32.265        0.141      344.404       21.197      868.957
05/02/2013  15:05:00       42.846       10.598       18.285       48.615       55.947       36.655     2363.434     3130.055     1343.610        0.456        0.342       44.137       17.606        0.159      344.007       20.520      868.948
05/02/2013  15:06:00       19.660      -67.074        3.994       47.572      104.354       31.031     2263.067    10889.819      962.901        0.951        0.706       69.896       39.740        0.323      344.071       20.629      868.927
05/02/2013  15:07:00      147.768     -236.730      -28.996       90.117       76.250       57.765     8121.014     5813.992     3336.852        4.799        0.864      279.064       50.227        0.032      344.201       20.849      868.862
05/02/2013  15:08:00       42.433      -85.276        8.695       74.894      129.457       62.742     5609.038    16759.122     3936.603        1.772        1.315       95.250       79.532        0.697      344.521       21.398      868.840
05/02/2013  15:09:00       38.936       56.210       98.097       56.470       60.444       45.586     3188.824     3653.483     2078.082        1.161        0.446       68.378       33.691        0.243      344.225       20.892      868.820
05/02/2013  15:10:00       59.740       97.248      106.175       78.578       80.181       66.361     6174.508     6429.053     4403.832        2.065        0.850      114.132       49.367        0.187      344.315       21.044      868.796
05/02/2013  15:11:00      171.393      123.070      117.962      144.031      136.065       93.406    20745.037    18513.691     8724.682        5.320        2.399      211.002       82.002        0.151      344.106       20.687      868.785
05/02/2013  15:12:00       77.056      -41.482        2.189       97.394       88.318       44.027     9485.653     7800.039     1938.406        1.344        0.961       87.512       29.928        0.117      343.893       20.324      868.817
05/02/2013  15:13:00       19.203      -55.006      -14.582       32.592       31.744       25.641     1062.219     1007.691      657.436        0.317        0.136       58.262       15.861        0.074      343.562       19.761      868.751
05/02/2013  15:14:00       62.121        2.408       39.333       56.598       69.319       50.923     3203.284     4805.114     2593.155        0.800        0.530       62.168       44.234        0.506      343.746       20.074      868.704
05/02/2013  15:15:00      113.158       -2.206       23.980      116.993      123.079       58.899    13687.269    15148.377     3469.146        2.284        1.615      113.180       56.682        0.251      344.187       20.826      868.663
05/02/2013  15:16:00      351.492      199.611       83.610      138.264       92.168      108.903    19116.858     8494.900    11859.908       10.492        1.974      404.217       77.097        0.036      344.334       21.076      868.630
05/02/2013  15:17:00      332.523      155.810       32.757      163.139      108.204       92.907    26614.422    11708.100     8631.666        9.143        2.348      367.217       76.170        0.043      344.283       20.989      868.609
05/02/2013  15:18:00      122.592      -10.908        4.426      117.124      111.736       61.781    13718.063    12484.962     3816.908        2.259        1.501      123.076       45.345        0.136      344.290       21.002      868.653
05/02/2013  15:19:00       12.959      -55.191       10.673       39.106       57.182       36.521     1529.242     3269.777     1333.771        0.473        0.307       56.692       16.222        0.082      344.382       21.162      868.633
05/02/2013  15:20:00       15.230      -38.470        4.562       30.119       62.033       36.150      907.137     3848.038     1306.814        0.390        0.303       41.375       36.350        0.772      343.957       20.435      868.622
05/02/2013  15:21:00       64.454      -97.195        4.992       62.687       48.327       37.173     3929.633     2335.493     1381.845        1.064        0.382      116.624       33.412        0.082      343.827       20.213      868.616
05/02/2013  15:22:00       30.621       -3.292       46.593       32.357       46.896       25.012     1046.953     2199.281      625.584        0.349        0.194       30.797        9.836        0.102      344.201       20.852      868.607
05/02/2013  15:23:00      194.238       80.811       29.301      103.501       91.989       64.498    10712.386     8461.900     4160.000        3.422        1.167      210.378       28.593        0.018      344.246       20.928      868.622
05/02/2013  15:24:00      264.055      148.626       58.472      138.268      132.205       81.162    19118.079    17478.066     6587.211        6.920        2.159      303.010       59.699        0.039      344.450       21.275      868.610
05/02/2013  15:25:00      309.651      180.811       50.075      151.467      121.035       81.115    22942.152    14649.573     6579.637        8.762        2.209      358.575       45.368        0.016      344.440       21.257      868.601
05/02/2013  15:26:00      324.587      215.930       50.465      126.277       85.356       86.731    15945.933     7285.649     7522.260        9.264        1.538      389.850       21.902        0.003      344.188       20.827      868.600
05/02/2013  15:27:00      246.811      160.039       35.809      131.155       98.561       83.355    17201.683     9714.321     6947.975        6.083        1.693      294.157       31.975        0.012      344.259       20.948      868.592
05/02/2013  15:28:00      268.078      135.803       39.894      112.401       97.932       75.189    12633.914     9590.598     5653.378        5.988        1.394      300.514       43.618        0.021      344.238       20.911      868.591
05/02/2013  15:29:00      239.963      139.500       32.455       84.895       80.630       73.762     7207.147     6501.119     5440.871        4.862        0.957      277.565       51.567        0.035      344.242       20.918      868.599
05/02/2013  15:30:00      194.375      151.146       30.949      124.220       85.876       77.637    15430.706     7374.626     6027.472        4.520        1.442      246.225       49.554        0.041      344.301       21.021      868.609
05/02/2013  15:31:00       48.508      152.747       -6.060       70.530      110.842       71.565     4974.454    12286.042     5121.517        2.405        1.119      160.264       72.334        0.204      344.312       21.040      868.598
05/02/2013  15:32:00       70.312      127.046       -0.670       79.867       77.480       60.277     6378.741     6003.123     3633.359        1.855        0.801      145.206       50.437        0.121      344.268       20.964      868.584
05/02/2013  15:33:00       60.075       99.186       11.318       67.106       68.819       59.015     4503.249     4736.068     3482.772        1.315        0.636      115.961       47.369        0.167      344.486       21.339      868.569
05/02/2013  15:34:00       84.734       87.000       11.997       65.123       49.288       45.652     4241.052     2429.308     2084.108        1.182        0.438      121.445       32.376        0.071      344.368       21.136      868.574
05/02/2013  15:35:00       70.839       44.406       48.890       68.084       92.399       59.447     4635.413     8537.521     3533.973        1.304        0.835       83.606       46.306        0.307      344.239       20.917      868.551
05/02/2013  15:36:00      254.487      172.895       15.928      120.908       72.684       82.279    14618.690     5283.010     6769.884        6.079        1.334      307.663       29.542        0.009      344.447       21.269      868.530
05/02/2013  15:37:00       87.321      106.121        2.487       88.859       84.574       64.976     7895.926     7152.795     4221.854        1.908        0.964      137.428       54.424        0.157      344.354       21.112      868.528
05/02/2013  15:38:00      160.926      100.487       36.149      121.904       65.898       64.971    14860.691     4342.549     4221.182        3.036        1.171      189.723       48.933        0.067      344.282       20.988      868.501
05/02/2013  15:39:00      146.265       -5.882       87.254      139.155      148.807       85.929    19364.032    22143.660     7383.780        3.896        2.445      146.383       92.143        0.396      344.333       21.076      868.462
05/02/2013  15:40:00      221.054     -348.352      -49.864      105.374       85.887       48.893    11103.726     7376.509     2390.491        9.678        1.044      412.570       47.936        0.013      344.337       21.081      868.450
05/02/2013  15:41:00      158.078     -236.203      -17.423       71.550      100.668       45.315     5119.375    10134.110     2053.490        4.919        0.865      284.219       48.249        0.029      344.315       21.043      868.462
05/02/2013  15:42:00       85.136        1.094       97.330       98.070      156.277       85.206     9617.717    24422.569     7260.037        2.900        2.065       85.144      104.410        1.504      344.484       21.332      868.457
05/02/2013  15:43:00       61.198      -21.231       47.776       81.104       88.419       55.344     6577.858     7817.873     3062.981        1.197        0.873       64.776       57.687        0.793      344.488       21.342      868.445
05/02/2013  15:44:00       77.247       20.780       26.891       75.352       76.048       47.743     5677.918     5783.275     2279.437        1.043        0.687       79.993       11.362        0.020      344.426       21.235      868.444
05/02/2013  15:45:00       75.227       96.622       13.543       70.565      104.404       53.177     4979.406    10900.298     2827.754        1.694        0.935      122.454       60.400        0.243      344.674       21.658      868.425
05/02/2013  15:46:00       50.695      127.827      -10.283       51.994       80.512       32.593     2703.365     6482.176     1062.326        1.463        0.512      137.512       36.986        0.072      344.317       21.049      868.412
05/02/2013  15:47:00      -11.711       -9.460       14.073       61.931       62.314       27.576     3835.394     3883.079      760.418        0.445        0.424       15.055       25.154        2.792      344.703       21.710      868.394
05/02/2013  15:48:00       69.298       37.739       58.745       98.517       84.521       29.021     9705.517     7143.844      842.210        1.368        0.885       78.907       32.460        0.169      344.672       21.658      868.358
05/02/2013  15:49:00       30.950      -47.146        0.343       68.898       58.579       51.888     4746.888     3431.490     2692.395        0.702        0.544       56.397       34.493        0.374      344.249       20.933      868.358
05/02/2013  15:50:00       80.369      -68.627       24.334       53.281       76.666       36.754     2838.813     5877.677     1350.836        1.091        0.503      105.683       41.583        0.155      344.184       20.824      868.351
05/02/2013  15:51:00      -16.442        6.338       16.497       61.860       36.803       25.572     3826.689     1354.454      653.919        0.321        0.292       17.622       18.407        1.091      344.599       21.531      868.326
05/02/2013  15:52:00      -89.893      -10.752       -2.455       31.955       34.766       25.125     1021.153     1208.654      631.260        0.553        0.143       90.533       18.824        0.043      344.545       21.439      868.301
05/02/2013  15:53:00      -80.777       14.350        9.853       45.872       35.503       29.242     2104.197     1260.450      855.097        0.552        0.211       82.041       31.034        0.143      344.479       21.326      868.276
05/02/2013  15:54:00      -31.463       -4.053        5.075       48.205       39.246       32.223     2323.680     1540.267     1038.308        0.297        0.245       31.723       22.042        0.483      344.819       21.909      868.245
05/02/2013  15:55:00        0.973      -17.622       25.410       55.770       51.952       30.384     3110.323     2698.973      923.217        0.384        0.337       17.649       28.639        2.633      344.720       21.738      868.222
05/02/2013  15:56:00       22.798       23.530       13.600       32.761       32.057       26.210     1073.289     1027.640      686.969        0.202        0.139       32.763       11.642        0.126      344.331       21.075      868.212
05/02/2013  15:57:00      -12.728       55.015       23.161       48.273       39.026       33.604     2330.327     1523.001     1129.200        0.435        0.249       56.468       25.149        0.198      344.691       21.689      868.210
05/02/2013  15:58:00      -12.800       74.348       10.212      125.270      100.981       59.979    15692.480    10197.086     3597.482        1.764        1.474       75.442       73.953        0.961      344.746       21.783      868.191
05/02/2013  15:59:00      -68.908       43.167       11.357      140.249      224.373       91.662    19669.909    50343.357     8401.956        4.256        3.921       81.313      106.947        1.730      345.163       22.496      868.136
05/02/2013  16:00:00       20.253      -10.533       13.630       38.476       63.135       30.709     1480.437     3986.043      943.045        0.356        0.320       22.828       27.434        1.444      345.208       22.575      868.156
05/02/2013  16:01:00      -13.943        0.952       26.636       18.244       32.658       21.447      332.837     1066.514      459.969        0.138        0.093       13.976        9.906        0.502      345.100       22.390      868.144
05/02/2013  16:02:00        1.755       -6.127        5.359       25.487       35.805       25.161      649.608     1282.033      633.073        0.132        0.128        6.374       20.499       10.344      344.883       22.018      868.142
05/02/2013  16:03:00       41.193       12.518       12.803       29.017       27.638       26.597      841.970      763.854      707.397        0.216        0.116       43.053        6.519        0.023      344.268       20.968      868.136
05/02/2013  16:04:00       37.657       -5.839       24.101       31.990       31.879       20.708     1023.351     1016.239      428.810        0.225        0.123       38.107       18.221        0.229      344.288       20.999      868.126
05/02/2013  16:05:00       45.112       -1.920       29.472       51.019       63.767       44.760     2602.918     4066.251     2003.463        0.579        0.434       45.153       15.886        0.124      344.291       21.007      868.124
05/02/2013  16:06:00      141.100       22.714       39.598      126.696      124.875       56.137    16051.952    15593.743     3151.327        2.839        1.740      142.917       30.299        0.045      344.413       21.212      868.113
05/02/2013  16:07:00       53.446       82.138       78.668       56.230       63.461       54.058     3161.828     4027.307     2922.310        1.295        0.506       97.996       37.764        0.149      344.416       21.219      868.096
05/02/2013  16:08:00      105.193       18.951       20.960       93.502       81.276       45.744     8742.704     6605.759     2092.518        1.465        0.872      106.887       27.764        0.067      344.313       21.043      868.082
05/02/2013  16:09:00      182.265       86.699       30.109      104.123       82.134       49.999    10841.599     6745.939     2499.875        3.086        1.004      201.835       32.139        0.025      344.881       22.012      868.089
05/02/2013  16:10:00       78.086       91.945       86.716       72.388       52.907       55.837     5239.979     2799.143     3117.783        1.661        0.558      120.628       46.187        0.147      344.402       21.196      868.092
05/02/2013  16:11:00       28.579       27.671       29.472       36.158       35.078       33.193     1307.426     1230.459     1101.790        0.304        0.182       39.780       28.277        0.505      344.578       21.496      868.075
05/02/2013  16:12:00       29.756      -74.645      -10.356       36.312       60.596       27.767     1318.561     3671.874      771.019        0.616        0.288       80.358       22.532        0.079      344.232       20.904      868.060
05/02/2013  16:13:00       25.477       44.589       17.788       26.775       22.959       25.577      716.905      527.108      654.173        0.243        0.095       51.354       19.196        0.140      344.128       20.728      868.043
05/02/2013  16:14:00       40.838      -14.730       -0.217       22.639       19.620       17.858      512.538      384.932      318.892        0.155        0.061       43.414       16.028        0.136      343.937       20.400      868.025
05/02/2013  16:15:00       -1.641        9.089        0.315       20.141       22.916       18.633      405.663      525.131      347.177        0.068        0.064        9.236        9.116        0.974      344.372       21.144      868.010
05/02/2013  16:16:00        0.416       73.349        8.997       18.595       48.059       23.605      345.756     2309.660      557.209        0.434        0.161       73.350       29.755        0.165      344.452       21.281      868.013
05/02/2013  16:17:00        4.395       82.133      -11.145       28.962       51.945       23.888      838.805     2698.289      570.629        0.550        0.205       82.251       26.748        0.106      344.743       21.778      868.012
05/02/2013  16:18:00      -24.361      193.799      -29.781       55.017       73.491       32.296     3026.828     5400.921     1043.037        2.425        0.474      195.324       41.094        0.044      344.727       21.748      868.005
05/02/2013  16:19:00       47.879       53.737        8.496       73.372       70.872       32.822     5383.517     5022.847     1077.253        0.837        0.574       71.973       25.297        0.124      344.823       21.914      868.021
05/02/2013  16:20:00        0.684       53.378       -5.236       25.531       50.814       15.006      651.807     2582.017      225.190        0.317        0.173       53.382       14.499        0.074      344.884       22.019      868.022
05/02/2013  16:21:00        0.166       68.215       -1.961       23.367       41.009       17.599      545.999     1681.738      309.739        0.360        0.127       68.216       16.842        0.061      344.783       21.846      867.999
05/02/2013  16:22:00       50.984      -17.995        2.975       30.379       24.563       34.477      922.859      603.323     1188.679        0.282        0.136       54.066       19.488        0.130      344.245       20.928      867.988
05/02/2013  16:23:00      121.346       57.118       45.298       77.923       61.962       40.923     6071.994     3839.313     1674.729        1.581        0.579      134.116       17.887        0.018      344.790       21.858      867.977
05/02/2013  16:24:00       48.021       50.669       65.603       71.205       86.367       56.758     5070.160     7459.182     3221.443        1.246        0.788       69.809       48.146        0.476      344.521       21.399      867.957
05/02/2013  16:25:00       39.296      -53.894       22.208       52.015      101.198       53.801     2705.533    10241.103     2894.571        1.039        0.792       66.699       57.517        0.744      344.806       21.885      867.929
05/02/2013  16:26:00      107.828       69.492       25.372       68.026       65.847       35.540     4627.529     4335.881     1263.060        1.366        0.511      128.281       19.110        0.022      344.724       21.746      867.927
05/02/2013  16:27:00      107.257       69.953       63.935      107.382       57.441       50.706    11530.925     3299.497     2571.134        1.894        0.870      128.053       57.109        0.199      344.499       21.361      867.923
05/02/2013  16:28:00      175.106       92.875        7.350       81.297       55.340       49.625     6609.189     3062.554     2462.628        2.574        0.607      198.211       33.194        0.028      344.600       21.530      867.900
05/02/2013  16:29:00       16.831       75.459      -12.278       37.831       69.207       21.124     1431.188     4789.671      446.242        0.640        0.333       77.313       30.970        0.160      344.708       21.721      867.894
05/02/2013  16:30:00       -5.110       62.316      -23.934       25.680       51.265       22.142      659.454     2628.087      490.288        0.413        0.189       62.525       19.880        0.101      344.946       22.126      867.857
05/02/2013  16:31:00      -31.467      140.545       -9.985       56.425       66.025       36.385     3183.735     4359.246     1323.853        1.485        0.443      144.025       36.522        0.064      344.911       22.065      867.835
05/02/2013  16:32:00       40.772       76.147      -14.417       56.889       61.306       26.103     3236.318     3758.460      681.376        0.767        0.384       86.375       18.519        0.046      344.881       22.016      867.826
05/02/2013  16:33:00       22.189       56.523       10.686       43.161       44.910       29.133     1862.858     2016.945      848.731        0.426        0.236       60.723       27.647        0.207      344.952       22.136      867.823
05/02/2013  16:34:00       31.729      -48.307       17.838       49.242       38.931       33.619     2424.806     1515.609     1130.205        0.436        0.254       57.795       24.201        0.175      344.800       21.875      867.806
05/02/2013  16:35:00       63.571      -69.846       23.540       38.631       64.833       36.203     1492.331     4203.376     1310.667        0.824        0.350       94.445       28.249        0.089      344.775       21.832      867.785
05/02/2013  16:36:00       65.254       -2.017       42.361       70.345       87.259       46.448     4948.389     7614.074     2157.399        1.039        0.736       65.286       36.822        0.318      344.844       21.952      867.772
05/02/2013  16:37:00       22.749       -2.145       26.383       31.417       45.032       28.557      987.027     2027.873      815.483        0.252        0.192       22.850       19.982        0.765      344.868       21.993      867.770
05/02/2013  16:38:00       43.513      -61.562       14.863       46.889       50.914       30.211     2198.546     2592.257      912.680        0.580        0.285       75.387       19.825        0.069      344.565       21.475      867.745
05/02/2013  16:39:00       88.667      -51.217        4.028       74.952       86.396       43.729     5617.825     7464.233     1912.265        1.275        0.750      102.397       46.144        0.203      344.691       21.690      867.733
05/02/2013  16:40:00       28.749      -62.291        1.518       54.327       51.866       30.059     2951.464     2690.088      903.522        0.563        0.327       68.606       31.125        0.206      345.119       22.422      867.721
05/02/2013  16:41:00       54.656     -172.863       -2.631       45.779       58.453       31.850     2095.733     3416.699     1014.436        1.970        0.326      181.297       25.652        0.020      345.245       22.636      867.708
05/02/2013  16:42:00       94.201       23.776       30.185       72.515      134.425       51.904     5258.418    18070.064     2694.049        1.818        1.301       97.155       46.810        0.232      345.079       22.353      867.693
05/02/2013  16:43:00       74.532       89.025       17.089       86.285       93.684       49.721     7445.036     8776.781     2472.194        1.623        0.935      116.105       38.094        0.108      344.837       21.937      867.738
05/02/2013  16:44:00       81.044      109.654        8.997      115.311       94.801       53.371    13296.586     8987.191     2848.491        2.190        1.257      136.353       43.864        0.103      345.020       22.252      867.739
05/02/2013  16:45:00      223.526      139.118       24.651      114.544      101.951       62.987    13120.304    10394.097     3967.347        4.870        1.374      263.283       49.152        0.035      344.975       22.172      867.700
05/02/2013  16:46:00      160.090      122.375       24.883      110.277       74.454       64.121    12160.960     5543.334     4111.514        3.152        1.091      201.506       47.817        0.056      345.051       22.303      867.696
05/02/2013  16:47:00      185.437      145.177       19.262      132.201       77.343       81.876    17477.169     5981.869     6703.598        4.299        1.508      235.506       45.318        0.037      345.019       22.246      867.694
05/02/2013  16:48:00      155.716      131.816        4.219       85.199       66.245       57.786     7258.845     4388.409     3339.259        2.831        0.749      204.017       39.744        0.038      344.899       22.044      867.717
05/02/2013  16:49:00      117.544       88.015       13.832       62.840       51.102       38.188     3948.879     2611.411     1458.359        1.489        0.401      146.845       22.127        0.023      344.769       21.821      867.713
05/02/2013  16:50:00       58.833       17.323       15.501       37.514       44.605       25.823     1407.297     1989.574      666.818        0.403        0.203       61.330       15.954        0.068      344.667       21.649      867.700
05/02/2013  16:51:00       48.700       35.221       18.387       39.760       26.348       19.053     1580.881      694.200      363.026        0.329        0.132       60.102       11.110        0.034      344.774       21.832      867.695
05/02/2013  16:52:00       52.350       59.765        6.687       66.464       38.257       34.340     4417.450     1463.606     1179.243        0.671        0.353       79.450       25.807        0.106      344.849       21.960      867.687
05/02/2013  16:53:00       25.668       -8.039       20.158       28.712       41.229       23.370      824.398     1699.792      546.161        0.210        0.154       26.897        3.548        0.017      344.691       21.690      867.675
05/02/2013  16:54:00      146.080       93.488       45.483       74.816       59.915       51.639     5597.429     3589.775     2666.561        2.200        0.593      173.434       40.411        0.054      344.394       21.180      867.653
05/02/2013  16:55:00       25.126       45.449       53.689       43.462       52.577       44.776     1888.955     2764.375     2004.932        0.612        0.333       51.932       43.720        0.709      344.983       22.189      867.647
05/02/2013  16:56:00       39.116      -48.974       -3.267       27.460       37.265       19.663      754.078     1388.693      386.635        0.323        0.126       62.678       15.923        0.065      344.859       21.977      867.630
05/02/2013  16:57:00       22.031       -6.662       -0.581       38.976       31.800       23.660     1519.099     1011.249      559.796        0.181        0.155       23.016       20.034        0.758      344.550       21.448      867.600
05/02/2013  16:58:00       14.512      -18.160       -8.012       26.978       25.348       22.914      727.795      642.539      525.047        0.125        0.095       23.246       18.910        0.662      344.817       21.906      867.589
05/02/2013  16:59:00       55.463       51.235       14.725       51.403       67.915       40.123     2642.316     4612.466     1609.889        0.739        0.443       75.506       26.329        0.122      344.618       21.566      867.570
05/02/2013  17:00:00      110.540       84.849       73.438       88.527       51.056       62.468     7837.067     2606.745     3902.266        1.958        0.717      139.350       56.018        0.162      344.774       21.832      867.574
05/02/2013  17:01:00      112.676       93.533        4.371       65.256       47.819       39.904     4258.365     2286.631     1592.353        1.480        0.407      146.439       25.626        0.031      344.977       22.179      867.549
05/02/2013  17:02:00       69.235      116.795       20.232       69.410       69.141       48.553     4817.735     4780.448     2357.365        1.540        0.598      135.774       39.490        0.085      344.965       22.157      867.552
05/02/2013  17:03:00      181.704       94.471       29.486       76.464       58.572       50.290     5846.784     3430.701     2529.051        2.731        0.590      204.795       34.174        0.028      344.963       22.152      867.550
05/02/2013  17:04:00      118.683       78.052       41.904       57.002       44.291       31.785     3249.258     1961.727     1010.292        1.408        0.311      142.049       18.870        0.018      344.967       22.161      867.541
05/02/2013  17:05:00      136.932       90.542       36.697      114.916       75.005       53.109    13205.666     5625.773     2820.593        2.497        1.083      164.160       27.512        0.028      345.163       22.495      867.513
05/02/2013  17:06:00      142.729       83.265       93.089      115.204      145.990       90.852    13271.916    21313.145     8254.149        3.940        2.142      165.241       65.631        0.158      344.936       22.107      867.479
05/02/2013  17:07:00      141.892      103.824       80.396       59.308       65.608       60.219     3517.436     4304.422     3626.308        2.441        0.572      175.820       37.751        0.046      344.806       21.883      867.516
05/02/2013  17:08:00       64.390       70.392       62.338       78.952       45.264       46.479     6233.415     2048.817     2160.316        1.171        0.522       95.399       51.260        0.289      344.803       21.879      867.518
05/02/2013  17:09:00        8.758        0.842       30.654       54.283       78.849       50.896     2946.665     6217.140     2590.408        0.638        0.588        8.799       52.734       35.921      344.608       21.548      867.516
05/02/2013  17:10:00       28.222      -19.962       18.536       65.478       83.891       36.512     4287.377     7037.629     1333.092        0.710        0.633       34.568       35.855        1.076      344.800       21.877      867.516
05/02/2013  17:11:00       41.668       -2.227        3.461       51.954       91.101       37.799     2699.264     8299.424     1428.728        0.709        0.621       41.727       21.528        0.266      344.892       22.033      867.523
05/02/2013  17:12:00      185.310      101.490        9.582       67.765       64.379       42.063     4592.055     4144.647     1769.307        2.762        0.525      211.282       17.163        0.007      345.015       22.243      867.514
05/02/2013  17:13:00       70.626      108.653       -0.794       64.728       81.149       55.086     4189.767     6585.131     3034.490        1.530        0.690      129.590       52.813        0.166      344.992       22.203      867.514
05/02/2013  17:14:00       60.922       30.775       -8.450       68.659       75.753       34.228     4714.083     5738.523     1171.559        0.818        0.581       68.254       14.468        0.045      344.970       22.166      867.527
05/02/2013  17:15:00      -37.459      103.228      -19.772       30.549       27.085       13.883      933.244      733.575      192.732        0.715        0.093      109.814        9.960        0.008      345.016       22.244      867.522
05/02/2013  17:16:00      -43.215       77.965      -18.587       31.303       21.121       17.753      979.888      446.113      315.157        0.502        0.087       89.141       14.366        0.026      345.004       22.225      867.518
05/02/2013  17:17:00      -76.257       -3.799      -18.368       31.357       41.014       13.817      983.244     1682.155      190.898        0.451        0.143       76.351       11.381        0.022      345.067       22.334      867.496
05/02/2013  17:18:00     -154.643       50.875      -23.066       29.927       41.586       23.988      895.613     1729.433      575.445        1.512        0.160      162.796       14.733        0.008      345.194       22.551      867.475
05/02/2013  17:19:00      -19.384       29.045       11.396       64.063       31.723       28.388     4104.038     1006.349      805.862        0.363        0.296       34.919       24.918        0.509      345.269       22.679      867.466
05/02/2013  17:20:00       86.223       79.849        7.134       39.084       45.642       27.899     1527.571     2083.226      778.333        0.912        0.219      117.517       15.450        0.017      345.006       22.229      867.469
05/02/2013  17:21:00      110.881       61.869       30.600       72.520       43.618       44.575     5259.101     1902.530     1986.913        1.310        0.457      126.974       31.805        0.063      345.023       22.257      867.452
05/02/2013  17:22:00       37.429        0.293       25.222       56.751       63.410       41.562     3220.694     4020.877     1727.433        0.550        0.448       37.430       33.861        0.818      344.802       21.880      867.447
05/02/2013  17:23:00       46.586       11.584       12.638       28.536       60.359       27.271      814.298     3643.150      743.711        0.383        0.260       48.005       21.845        0.207      344.597       21.529      867.438
05/02/2013  17:24:00       16.357       11.988       10.160       18.247       11.686       16.310      332.958      136.562      266.015        0.062        0.037       20.280       11.596        0.327      344.712       21.725      867.432
05/02/2013  17:25:00       45.258        9.068       11.811       36.480       25.719       34.480     1330.786      661.489     1188.889        0.273        0.159       46.157       21.433        0.216      344.592       21.520      867.434
05/02/2013  17:26:00      177.140      111.560       22.512       64.905       71.427       56.795     4212.704     5101.863     3225.659        2.843        0.627      209.342       30.174        0.021      345.060       22.319      867.437
05/02/2013  17:27:00      250.938      111.388       16.378       85.549       59.081       61.803     7318.658     3490.537     3819.616        4.513        0.731      274.549       46.324        0.028      345.180       22.524      867.435
05/02/2013  17:28:00      124.379       54.355       12.977      103.299       56.582       43.912    10670.669     3201.561     1928.284        1.719        0.790      135.737       19.805        0.021      345.240       22.628      867.435
05/02/2013  17:29:00       89.635      130.896       10.961       83.742       66.878       50.205     7012.698     4472.609     2520.513        1.964        0.700      158.645       41.312        0.068      345.077       22.348      867.431
05/02/2013  17:30:00      102.306       38.509       25.865       58.630       50.206       30.900     3437.496     2520.613      954.811        0.976        0.346      109.314       31.727        0.084      344.798       21.874      867.441
05/02/2013  17:31:00       38.140       54.222       -0.467       45.584       59.644       35.590     2077.891     3557.457     1266.649        0.565        0.345       66.292        8.881        0.018      345.165       22.500      867.438
05/02/2013  17:32:00       55.446       87.635      -11.221       29.660       48.619       33.023      879.728     2363.830     1090.513        0.761        0.217      103.702       18.554        0.032      345.099       22.388      867.436
05/02/2013  17:33:00       44.678      -35.166      -29.403       52.910       72.678       48.480     2799.467     5282.062     2350.294        0.726        0.522       56.857       45.073        0.628      345.155       22.484      867.438
05/02/2013  17:34:00       47.933       16.742       18.430       48.641       53.711       40.506     2365.983     2884.861     1640.770        0.490        0.345       50.773       29.094        0.328      345.147       22.469      867.424
05/02/2013  17:35:00        2.574      124.911      -13.000       40.130       55.964       31.153     1610.416     3131.924      970.534        1.074        0.286      124.937       28.665        0.053      345.229       22.610      867.407
05/02/2013  17:36:00       18.951       19.106        9.475       44.604       46.115       24.553     1989.543     2126.634      602.826        0.277        0.236       26.911       13.701        0.259      345.097       22.384      867.390
05/02/2013  17:37:00       66.679        1.989        7.844       63.983       40.756       31.931     4093.795     1661.087     1019.589        0.564        0.339       66.709        6.627        0.010      344.690       21.687      867.390
05/02/2013  17:38:00       64.512       46.877        7.717       60.300       40.865       32.351     3636.053     1669.987     1046.604        0.638        0.318       79.744       26.598        0.111      344.730       21.756      867.364
05/02/2013  17:39:00       79.387       39.636       17.852       52.213       38.482       31.803     2726.165     1480.840     1011.452        0.670        0.261       88.731       20.349        0.053      345.122       22.426      867.340
05/02/2013  17:40:00       80.185      102.985        7.398       71.620       66.012       46.152     5129.382     4357.594     2129.965        1.435        0.581      130.521       38.617        0.088      345.209       22.576      867.329
05/02/2013  17:41:00       39.434      152.346      -18.618       56.044       70.815       40.541     3140.924     5014.775     1643.534        1.745        0.490      157.367       38.925        0.061      345.044       22.293      867.333
05/02/2013  17:42:00       -3.593      118.749      -18.828       45.877       54.276       21.136     2104.688     2945.936      446.748        0.998        0.275      118.803       13.958        0.014      345.103       22.395      867.337
05/02/2013  17:43:00       85.416       85.824        7.460       64.807       46.903       40.948     4199.893     2199.926     1676.767        1.140        0.404      121.085       29.386        0.059      345.086       22.366      867.337
05/02/2013  17:44:00       77.077      101.320       11.221       87.140       65.831       44.184     7593.371     4333.676     1952.242        1.510        0.694      127.305       40.047        0.099      345.008       22.232      867.337
05/02/2013  17:45:00        8.853      124.419      -12.662       62.733       76.357       38.306     3935.410     5830.438     1467.380        1.347        0.562      124.733       44.880        0.129      345.035       22.277      867.326
05/02/2013  17:46:00       46.217      217.766      -23.154       74.259       94.534       46.288     5514.437     8936.764     2142.619        3.334        0.830      222.616       39.140        0.031      345.178       22.520      867.321
05/02/2013  17:47:00       54.000       74.790       -5.340       65.821       42.586       31.726     4332.392     1813.534     1006.524        0.784        0.358       92.247       24.460        0.070      345.139       22.457      867.322
05/02/2013  17:48:00       29.106       29.965        9.351       34.572       39.772       26.515     1195.197     1581.851      703.027        0.266        0.174       41.774       20.307        0.236      344.966       22.159      867.323
05/02/2013  17:49:00      132.892       68.498       40.640       96.990       54.451       36.812     9407.031     2964.881     1355.147        1.886        0.686      149.507       31.458        0.044      345.006       22.226      867.312
05/02/2013  17:50:00      152.768      108.507       28.072       65.713       62.669       47.600     4318.156     3927.431     2265.750        2.320        0.526      187.382       19.948        0.011      345.219       22.591      867.313
05/02/2013  17:51:00      113.548       70.134       37.914       74.667       57.161       51.549     5575.106     3267.420     2657.321        1.537        0.575      133.461       14.138        0.011      345.153       22.481      867.311
05/02/2013  17:52:00      105.150       67.557       44.835       63.272       50.616       37.944     4003.328     2561.961     1439.715        1.282        0.400      124.982       16.269        0.017      345.022       22.254      867.312
05/02/2013  17:53:00      126.187       72.187       25.716       92.951       63.667       49.204     8639.810     4053.549     2421.064        1.845        0.756      145.376       34.649        0.057      345.168       22.505      867.298
05/02/2013  17:54:00       78.683       17.237       18.427       43.351       63.181       42.323     1879.314     3991.820     1791.237        0.724        0.383       80.549       40.194        0.249      344.774       21.833      867.270
05/02/2013  17:55:00       76.925       54.120       50.330       87.389       73.268       56.686     7636.758     5368.141     3213.253        1.380        0.811       94.056       54.654        0.338      344.565       21.471      867.249
05/02/2013  17:56:00      137.953      103.954       45.098       84.868       55.249       74.638     7202.572     3052.493     5570.871        2.385        0.791      172.735       60.446        0.122      344.838       21.939      867.241
05/02/2013  17:57:00      105.222       52.157       23.182       84.075       43.720       38.640     7068.623     1911.465     1493.015        1.240        0.524      117.439       26.286        0.050      345.039       22.284      867.238
05/02/2013  17:58:00      152.687       84.912       34.378       75.121       50.876       43.346     5643.191     2588.382     1878.879        2.091        0.506      174.710       32.645        0.035      345.028       22.263      867.232
05/02/2013  17:59:00      159.513       81.184       27.095       88.060       57.653       45.551     7754.488     3323.868     2074.935        2.296        0.658      178.984       25.071        0.020      345.128       22.435      867.216
05/02/2013  18:00:00      106.272       95.634       22.464       51.476       44.043       39.681     2649.825     1939.824     1574.582        1.355        0.308      142.967       23.432        0.027      345.079       22.353      867.218
05/02/2013  18:01:00      196.198      119.025       22.575       91.470       59.255       49.359     8366.726     3511.208     2436.327        3.374        0.716      229.479       33.178        0.021      345.254       22.650      867.200
05/02/2013  18:02:00      111.646       85.384        9.143       92.128       88.880       59.487     8487.598     7899.674     3538.735        1.988        0.996      140.553       38.217        0.074      345.245       22.636      867.201
05/02/2013  18:03:00       82.398       60.330        3.220       58.205       39.932       45.754     3387.830     1594.603     2093.400        0.876        0.354      102.123       31.986        0.098      345.135       22.449      867.194
05/02/2013  18:04:00      129.625       83.723       18.991       66.454       54.295       33.442     4416.133     2947.919     1118.348        1.633        0.424      154.312       20.257        0.017      345.113       22.411      867.168
05/02/2013  18:05:00      162.413      134.144       17.564       85.918       61.092       54.316     7381.837     3732.193     2950.210        2.937        0.703      210.648       36.054        0.029      345.188       22.537      867.159
05/02/2013  18:06:00      179.782      141.924       24.051       98.864       83.160       78.585     9774.125     6915.659     6175.562        3.795        1.143      229.050       59.043        0.066      345.159       22.487      867.146
05/02/2013  18:07:00      237.340      154.483       24.653       90.124       68.271       60.098     8122.422     4660.988     3611.789        4.860        0.820      283.188       27.322        0.009      345.055       22.309      867.132
05/02/2013  18:08:00      149.026      122.276       18.714      108.524       69.217       61.722    11777.395     4791.033     3809.560        2.894        1.019      192.770       34.377        0.032      345.069       22.334      867.131
05/02/2013  18:09:00      114.521       93.932        0.590       80.543       58.400       40.188     6487.254     3410.608     1615.059        1.672        0.576      148.116       30.887        0.043      345.131       22.441      867.118
05/02/2013  18:10:00       77.403       41.123       22.228       71.212       54.597       46.004     5071.204     2980.785     2116.335        0.917        0.508       87.649       43.051        0.241      345.014       22.243      867.109
05/02/2013  18:11:00      144.134       94.666       10.307       94.151       55.009       46.230     8864.353     3025.990     2137.227        2.193        0.701      172.442       37.287        0.047      345.116       22.414      867.091
05/02/2013  18:12:00      137.361       94.929       16.077       60.761       43.231       42.380     3691.913     1868.907     1796.075        1.775        0.368      166.972       13.593        0.007      345.091       22.372      867.082
05/02/2013  18:13:00      174.695      120.899       46.503       69.020       51.076       53.976     4763.692     2608.753     2913.395        2.879        0.514      212.450       24.068        0.013      345.212       22.578      867.067
05/02/2013  18:14:00      251.699      148.167       54.250       95.810       78.325       59.452     9179.634     6134.816     3534.497        5.355        0.942      292.072       29.477        0.010      345.198       22.553      867.057
05/02/2013  18:15:00      229.102      119.112       33.815       66.330       67.507       53.467     4399.680     4557.248     2858.769        3.982        0.591      258.216       34.781        0.018      345.177       22.517      867.068
05/02/2013  18:16:00      169.539      126.638       49.562       79.802       66.449       57.907     6368.313     4415.503     3353.278        3.068        0.707      211.614       34.572        0.027      345.197       22.552      867.071
05/02/2013  18:17:00      132.581       52.935       12.483       96.769       42.107       47.487     9364.299     1772.983     2255.063        1.696        0.670      142.758       29.703        0.043      344.907       22.058      867.060
05/02/2013  18:18:00       34.080       98.887       -8.388       37.830       53.922       31.588     1431.129     2907.589      997.779        0.817        0.267      104.595       32.061        0.094      344.974       22.176      867.054
05/02/2013  18:19:00      104.341       93.882       11.305       48.456       42.388       53.348     2347.952     1796.706     2845.956        1.341        0.350      140.360       22.275        0.025      345.056       22.313      867.051
05/02/2013  18:20:00       80.676       70.850       26.480       63.021       51.829       37.651     3971.610     2686.243     1417.611        1.015        0.404      107.370       25.726        0.057      345.113       22.410      867.039
05/02/2013  18:21:00      150.530      112.705       29.728       82.831       58.063       46.553     6860.955     3371.298     2167.177        2.432        0.620      188.047       30.253        0.026      345.088       22.368      867.030
05/02/2013  18:22:00       87.844       65.570       25.268       61.240       35.271       35.789     3750.358     1244.075     1280.830        0.946        0.314      109.617       26.932        0.060      345.116       22.416      867.044
05/02/2013  18:23:00      -20.681       63.271      -14.137       39.025       28.897       19.211     1522.924      835.027      369.060        0.368        0.136       66.565       15.782        0.056      345.126       22.435      867.036
05/02/2013  18:24:00       -7.646       37.432      -14.411       24.783       37.136       19.343      614.219     1379.101      374.166        0.202        0.118       38.205       13.004        0.116      345.274       22.686      867.018
05/02/2013  18:25:00       62.221       52.361        8.048       50.085       39.589       33.740     2508.477     1567.294     1138.406        0.595        0.261       81.322       19.431        0.057      344.671       21.656      867.019
05/02/2013  18:26:00      118.579       81.627       10.815       61.967       52.986       43.127     3839.945     2807.556     1859.974        1.467        0.425      143.958       20.951        0.021      344.875       22.003      867.018
05/02/2013  18:27:00       91.351       65.739       23.111       70.528       33.594       27.149     4974.206     1128.548      737.083        1.002        0.342      112.546       23.796        0.045      345.074       22.344      867.010
05/02/2013  18:28:00      120.097       74.275       42.253       50.558       34.621       25.597     2556.145     1198.622      655.206        1.307        0.220      141.209       13.640        0.009      345.092       22.375      867.002
05/02/2013  18:29:00      127.683      113.113       28.867       75.405       58.625       60.043     5685.845     3436.866     3605.130        2.133        0.636      170.580        7.423        0.002      345.083       22.358      866.998
05/02/2013  18:30:00      128.227       72.436       22.795       57.352       50.061       44.966     3289.284     2506.089     2021.899        1.501        0.391      147.272       32.426        0.048      345.058       22.317      866.987
05/02/2013  18:31:00      111.130       62.471       63.689      121.607       82.023       69.215    14788.205     6727.794     4790.680        2.330        1.315      127.485       67.583        0.281      344.548       21.444      866.971
05/02/2013  18:32:00       33.752       41.222       60.553       66.041       79.435       47.747     4361.464     6309.937     2279.729        0.973        0.648       53.278       46.218        0.753      344.408       21.206      866.973
05/02/2013  18:33:00      136.445      113.470       71.696       68.092       65.646       51.552     4636.513     4309.402     2657.583        2.412        0.580      177.461       41.597        0.055      344.791       21.859      866.965
05/02/2013  18:34:00       91.938       74.379       28.056       96.376       55.946       41.500     9288.369     3129.950     1722.256        1.445        0.707      118.257       23.272        0.039      345.041       22.289      866.953
05/02/2013  18:35:00       82.321       99.853        1.626       95.058       53.884       39.413     9036.080     2903.517     1553.416        1.512        0.675      129.412       31.875        0.061      345.109       22.405      866.940
05/02/2013  18:36:00      105.476      109.477       11.417       82.395       53.027       42.796     6788.965     2811.820     1831.478        1.733        0.572      152.021       36.990        0.059      345.106       22.399      866.929
05/02/2013  18:37:00       57.430       72.284        5.521       75.545       67.999       42.078     5707.089     4623.846     1770.572        1.033        0.605       92.321       24.393        0.070      345.048       22.301      866.919
05/02/2013  18:38:00       98.721       63.126       12.703       65.683       33.772       30.579     4314.241     1140.570      935.102        1.014        0.319      117.178       29.240        0.062      344.784       21.849      866.911
05/02/2013  18:39:00       84.380       55.787       16.847       57.985       36.598       32.163     3362.313     1339.403     1034.482        0.813        0.287      101.154       17.991        0.032      344.959       22.147      866.905
05/02/2013  18:40:00       45.237       43.410       -3.921       37.729       40.300       20.003     1423.471     1624.129      400.132        0.370        0.172       62.697       17.456        0.078      344.922       22.086      866.904
05/02/2013  18:41:00      145.172       80.216       16.444       59.538       45.037       43.660     3544.780     2028.295     1906.170        1.763        0.374      165.860       19.771        0.014      345.133       22.445      866.905
05/02/2013  18:42:00      146.072       42.723       27.650       86.051       48.912       45.181     7404.787     2392.426     2041.340        1.788        0.592      152.192       36.586        0.058      344.756       21.800      866.893
05/02/2013  18:43:00       14.203       12.094       36.139       41.962       59.683       39.308     1760.829     3562.002     1545.128        0.426        0.343       18.654       29.582        2.515      344.188       20.830      866.876
05/02/2013  18:44:00       75.954       28.714       10.306       88.594       77.381       34.933     7848.825     5987.879     1220.294        1.088        0.753       81.200       28.183        0.120      344.620       21.567      866.867
05/02/2013  18:45:00      157.799      103.197       26.374       41.948       38.713       48.827     1759.658     1498.711     2384.028        2.094        0.282      188.548       12.643        0.004      345.056       22.314      866.858
05/02/2013  18:46:00       83.279       57.565       13.916       57.094       38.175       35.146     3259.698     1457.331     1235.229        0.820        0.298      101.238       26.265        0.067      345.027       22.267      866.850
05/02/2013  18:47:00       63.226       46.056        8.720       39.726       36.431       23.471     1578.169     1327.190      550.877        0.482        0.173       78.222       19.466        0.062      345.043       22.292      866.834
05/02/2013  18:48:00       54.735       34.513       20.259       51.634       31.316       30.643     2666.021      980.687      939.007        0.459        0.229       64.707       15.876        0.060      344.750       21.790      866.825
05/02/2013  18:49:00      128.590       86.748       16.425       45.740       33.476       33.500     2092.178     1120.620     1122.270        1.433        0.217      155.115       23.108        0.022      345.051       22.306      866.818
05/02/2013  18:50:00       78.743       67.543       10.512       46.029       36.426       32.704     2118.706     1326.840     1069.584        0.769        0.226      103.743       26.362        0.065      345.047       22.299      866.818
05/02/2013  18:51:00        5.582        0.770       14.416       20.084       20.966       16.146      403.350      439.571      260.692        0.067        0.055        5.635       13.795        5.993      345.057       22.317      866.825
05/02/2013  18:52:00       41.709       -7.403        0.144       24.843       22.575       19.565      617.182      509.610      382.773        0.165        0.075       42.361       15.058        0.126      344.592       21.520      866.830
05/02/2013  18:53:00       36.873       -5.552        0.114       36.227       34.736       26.966     1312.421     1206.581      727.146        0.232        0.162       37.288       15.201        0.166      344.207       20.863      866.829
05/02/2013  18:54:00       33.291       14.378       -4.031       21.034       28.291       17.021      442.411      800.361      289.716        0.143        0.077       36.264       14.525        0.160      344.244       20.925      866.826
05/02/2013  18:55:00       35.044       47.496        7.282       26.587       34.006       21.820      706.886     1156.425      476.103        0.294        0.117       59.025       12.717        0.046      344.656       21.630      866.820
05/02/2013  18:56:00       58.249       45.375        3.927       35.069       33.277       27.901     1229.811     1107.372      778.476        0.429        0.156       73.837       22.748        0.095      344.521       21.400      866.816
05/02/2013  18:57:00       68.011       16.260       17.309       31.856       39.424       35.065     1014.779     1554.265     1229.540        0.449        0.190       69.928       25.089        0.129      344.081       20.647      866.812
05/02/2013  18:58:00       64.021      -20.069        7.912       56.623       77.581       42.680     3206.176     6018.793     1821.561        0.780        0.552       67.093       20.973        0.098      344.394       21.182      866.793
05/02/2013  18:59:00      101.419       51.543       38.372       68.651       48.006       48.593     4712.977     2304.599     2361.245        1.190        0.469      113.765       30.486        0.072      344.902       22.050      866.792
05/02/2013  19:00:00       90.790       79.961       58.185       57.545       49.357       44.811     3311.393     2436.094     2007.992        1.289        0.388      120.981       30.612        0.064      344.626       21.579      866.799
05/02/2013  19:01:00      127.570       97.033       53.357       59.703       50.034       42.054     3564.415     2503.400     1768.524        1.819        0.392      160.279       15.559        0.009      344.895       22.037      866.799
05/02/2013  19:02:00      105.421      109.258       77.937       50.418       46.732       48.084     2542.005     2183.845     2312.075        1.808        0.352      151.825       32.517        0.046      344.614       21.558      866.801
05/02/2013  19:03:00      115.003       55.314       37.985       70.367       42.978       36.336     4951.495     1847.139     1320.331        1.292        0.406      127.614       31.938        0.063      344.682       21.673      866.797
05/02/2013  19:04:00       34.545       62.062       74.831       46.714       55.425       34.973     2182.205     3071.885     1223.097        0.856        0.324       71.028       26.349        0.138      344.754       21.797      866.790
05/02/2013  19:05:00      139.330      103.146       60.933       60.081       47.132       47.616     3609.724     2221.398     2267.294        2.093        0.405      173.355       28.108        0.026      344.741       21.774      866.783
05/02/2013  19:06:00      162.302      107.091       52.674       67.916       60.456       52.391     4612.527     3654.906     2744.813        2.580        0.551      194.449       41.673        0.046      344.859       21.975      866.780
05/02/2013  19:07:00      110.352       76.865       42.749       59.052       41.099       45.405     3487.165     1689.098     2061.631        1.357        0.362      134.484       22.917        0.029      344.474       21.319      866.778
05/02/2013  19:08:00      150.233       97.702       45.561       66.129       40.625       42.419     4372.997     1650.387     1799.374        2.101        0.391      179.208       33.204        0.034      344.740       21.771      866.768
05/02/2013  19:09:00       35.660       10.403       38.987       38.373       36.983       25.071     1472.512     1367.725      628.560        0.318        0.173       37.146       18.226        0.241      344.416       21.219      866.768
05/02/2013  19:10:00       50.695       -7.546        8.252       30.894       42.417       22.914      954.411     1799.223      525.063        0.299        0.164       51.254       21.334        0.173      343.808       20.181      866.765
05/02/2013  19:11:00       67.239       17.970       39.309       61.416       72.736       41.861     3771.945     5290.488     1752.355        0.860        0.541       69.599       47.195        0.460      344.019       20.541      866.748
05/02/2013  19:12:00       37.981       14.553       47.131       62.239       46.464       31.521     3873.663     2158.941      993.570        0.545        0.351       40.674       35.273        0.752      344.234       20.907      866.734
05/02/2013  19:13:00        6.684        0.796       16.977       21.512       40.742       20.470      462.779     1659.929      419.034        0.144        0.127        6.731       23.481       12.169      344.220       20.884      866.736
05/02/2013  19:14:00       56.255      -10.081        5.723       28.233       39.131       27.999      797.093     1531.234      783.959        0.321        0.156       57.151       21.445        0.141      343.963       20.446      866.734
05/02/2013  19:15:00       91.596       88.382       61.471       85.949       36.499       42.251     7387.219     1332.158     1785.140        1.524        0.525      127.284       31.066        0.060      344.209       20.864      866.728
05/02/2013  19:16:00      135.112       64.402       45.344       72.235       61.392       45.275     5217.874     3768.946     2049.814        1.775        0.552      149.676       44.375        0.088      344.694       21.695      866.722
05/02/2013  19:17:00       99.036       64.763       44.749       64.202       36.079       37.764     4121.833     1301.728     1426.090        1.143        0.342      118.332       33.569        0.080      344.414       21.215      866.723
05/02/2013  19:18:00      105.925       69.575       32.973       44.903       41.962       37.088     2016.235     1760.831     1375.555        1.115        0.258      126.731       19.944        0.025      344.569       21.481      866.724
05/02/2013  19:19:00      105.136       55.525       19.328       61.183       47.594       38.618     3743.337     2265.168     1491.389        1.100        0.375      118.897       29.214        0.060      344.490       21.347      866.723
05/02/2013  19:20:00       63.322       67.602       61.193       40.906       41.935       34.391     1673.317     1758.527     1182.760        0.847        0.231       92.627       26.464        0.082      344.269       20.967      866.719
05/02/2013  19:21:00       67.337       93.879       75.304       41.547       40.630       33.413     1726.146     1650.793     1116.403        1.176        0.225      115.532       17.585        0.023      344.281       20.989      866.717
05/02/2013  19:22:00       64.366       49.195       51.058       58.578       47.309       40.733     3431.340     2238.186     1659.152        0.825        0.366       81.013       24.834        0.094      344.189       20.831      866.720
05/02/2013  19:23:00       40.262       31.881       41.742       37.541       50.257       36.154     1409.335     2525.808     1307.109        0.481        0.262       51.356       25.338        0.243      344.235       20.910      866.715
05/02/2013  19:24:00       36.948       46.795       39.171       46.232       43.885       28.518     2137.395     1925.882      813.276        0.498        0.244       59.623        9.499        0.025      344.047       20.588      866.715
05/02/2013  19:25:00       49.748       51.711       52.875       49.935       38.803       27.731     2493.521     1505.645      768.982        0.636        0.238       71.756       22.885        0.102      344.233       20.905      866.706
05/02/2013  19:26:00      110.538       87.674       52.664       51.751       40.871       45.007     2678.140     1670.412     2025.627        1.453        0.319      141.087       31.971        0.051      344.385       21.165      866.701
05/02/2013  19:27:00      141.991       85.915       38.533       50.107       49.655       44.620     2510.694     2465.648     1990.922        1.800        0.348      165.960       13.568        0.007      344.519       21.394      866.695
05/02/2013  19:28:00       96.308       93.284       49.363       56.320       47.633       44.967     3171.975     2268.864     2021.997        1.394        0.373      134.079       26.372        0.039      344.310       21.037      866.693
05/02/2013  19:29:00      123.661       56.529       18.454       53.548       38.638       41.343     2867.352     1492.867     1709.256        1.245        0.303      135.969       33.259        0.060      344.064       20.619      866.702
05/02/2013  19:30:00      102.598       67.998       32.660       29.107       30.745       41.841      847.195      945.244     1750.676        0.988        0.177      123.085       15.880        0.017      343.810       20.184      866.704
05/02/2013  19:31:00      101.442       86.287       58.401       65.848       37.162       38.113     4335.991     1381.038     1452.599        1.416        0.358      133.177       23.793        0.032      344.010       20.525      866.708
05/02/2013  19:32:00      119.208       76.802       67.725       77.937       56.322       43.527     6074.181     3172.213     1894.619        1.792        0.557      141.806       32.084        0.051      344.351       21.108      866.694
05/02/2013  19:33:00      110.145       79.729       45.047       49.783       49.311       46.188     2478.331     2431.536     2133.324        1.378        0.352      135.973       30.631        0.051      344.023       20.547      866.692
05/02/2013  19:34:00      130.635       78.643       42.041       62.207       53.474       44.991     3869.699     2859.480     2024.168        1.688        0.438      152.480       35.095        0.053      344.228       20.897      866.691
05/02/2013  19:35:00      131.014      108.735       69.547       65.338       61.750       58.152     4269.037     3813.003     3381.658        2.264        0.573      170.259       29.374        0.030      344.048       20.588      866.694
05/02/2013  19:36:00      227.534      123.110       47.176       97.855       69.435       61.304     9575.569     4821.271     3758.158        4.365        0.908      258.704       54.607        0.045      344.267       20.961      866.690
05/02/2013  19:37:00      237.307      139.706       50.384       91.033       82.038       62.193     8287.004     6730.291     3867.927        4.862        0.944      275.377       49.255        0.032      344.296       21.012      866.676
05/02/2013  19:38:00      210.698      107.084       34.220       84.839       79.075       58.446     7197.665     6252.784     3415.934        3.695        0.843      236.348       46.775        0.039      344.389       21.168      866.687
05/02/2013  19:39:00      152.112       87.535       32.046       98.029       63.415       55.803     9609.760     4021.475     3113.958        2.428        0.837      175.501       38.184        0.047      344.174       20.804      866.688
05/02/2013  19:40:00      141.253       78.928       35.086       63.933       37.107       34.526     4087.433     1376.927     1192.074        1.703        0.333      161.809       20.145        0.015      343.831       20.219      866.691
05/02/2013  19:41:00      150.581       99.880       41.272       53.873       43.100       46.312     2902.292     1857.609     2144.834        2.063        0.345      180.694       30.673        0.029      344.123       20.718      866.708
05/02/2013  19:42:00      149.670       99.638       58.655       54.742       47.710       46.411     2996.688     2276.224     2154.008        2.160        0.371      179.802       24.142        0.018      344.243       20.920      866.702
05/02/2013  19:43:00      138.268       76.285       18.076       43.959       38.736       38.629     1932.394     1500.455     1492.174        1.509        0.246      157.916       21.468        0.018      344.048       20.590      866.708
05/02/2013  19:44:00      149.267       97.434       39.475       57.422       38.835       37.665     3297.273     1508.175     1418.688        1.978        0.311      178.253       12.714        0.005      344.282       20.988      866.717
05/02/2013  19:45:00      155.124      104.642       53.136       52.106       40.495       46.837     2715.069     1639.829     2193.704        2.219        0.327      187.119       27.032        0.021      344.101       20.678      866.719
05/02/2013  19:46:00      104.787       67.765       29.002       34.674       24.400       32.082     1202.312      595.353     1029.263        0.962        0.141      124.789       13.969        0.013      343.905       20.346      866.727
05/02/2013  19:47:00       81.353       50.838        7.315       35.980       25.479       36.326     1294.533      649.179     1319.581        0.626        0.163       95.932       22.115        0.053      343.748       20.079      866.732
05/02/2013  19:48:00       84.199       47.809       20.716       38.378       26.900       30.763     1472.897      723.586      946.364        0.647        0.157       96.826        9.070        0.009      343.479       19.619      866.741
05/02/2013  19:49:00       78.523       59.173       18.797       40.013       31.439       36.348     1601.050      988.438     1321.171        0.697        0.196       98.323       21.888        0.050      343.559       19.756      866.740
05/02/2013  19:50:00      129.504       84.315       38.389       55.050       48.928       41.644     3030.526     2393.974     1734.214        1.626        0.358      154.533       34.594        0.050      343.798       20.162      866.745
05/02/2013  19:51:00      111.560       91.446       52.078       44.384       40.466       30.971     1969.980     1637.464      959.215        1.404        0.228      144.249       18.063        0.016      343.864       20.275      866.739
05/02/2013  19:52:00      107.931       68.600       25.029       38.741       32.630       27.858     1500.848     1064.710      776.042        1.016        0.167      127.887       18.557        0.021      343.797       20.162      866.757
05/02/2013  19:53:00      110.991       73.086       18.208       44.245       35.380       32.533     1957.608     1251.728     1058.409        1.113        0.213      132.893       17.031        0.016      343.975       20.466      866.755
05/02/2013  19:54:00      124.957       79.015       19.549       55.367       42.196       39.965     3065.501     1780.543     1597.234        1.434        0.322      147.843       19.945        0.018      343.791       20.153      866.762
05/02/2013  19:55:00       92.854       67.811       36.250       30.779       27.121       32.025      947.320      735.541     1025.593        0.862        0.135      114.979        9.154        0.006      343.618       19.857      866.772
05/02/2013  19:56:00      136.295      107.441       38.524       42.711       30.578       29.972     1824.263      935.028      898.338        1.763        0.183      173.551       13.343        0.006      344.123       20.721      866.776
05/02/2013  19:57:00       97.846       72.652       27.428       37.468       29.272       32.922     1403.835      856.826     1083.885        0.947        0.167      121.870       17.814        0.021      344.055       20.603      866.777
05/02/2013  19:58:00       38.882       60.627        0.327       28.509       31.657       20.892      812.774     1002.168      436.477        0.372        0.113       72.024       13.343        0.034      343.626       19.871      866.792
05/02/2013  19:59:00       96.683       67.968       25.135       55.514       36.742       32.085     3081.775     1349.950     1029.456        1.003        0.273      118.183       24.940        0.045      344.043       20.582      866.788
05/02/2013  20:00:00       96.740       81.303       17.541       52.157       43.165       31.463     2720.342     1863.207      989.896        1.092        0.279      126.367       20.077        0.025      343.954       20.431      866.794
05/02/2013  20:01:00      119.763       94.092       11.400       63.933       47.453       35.852     4087.454     2251.792     1285.353        1.547        0.381      152.304       22.586        0.022      343.922       20.375      866.798
05/02/2013  20:02:00      153.424       91.936       46.066       47.577       39.394       40.961     2263.589     1551.858     1677.797        1.980        0.275      178.860       17.815        0.010      343.874       20.292      866.801
05/02/2013  20:03:00      157.163       97.740       41.151       64.946       43.875       38.967     4218.017     1925.057     1518.431        2.180        0.383      185.077       28.431        0.024      343.986       20.483      866.807
05/02/2013  20:04:00      123.228       80.150       20.348       52.799       43.235       31.048     2787.706     1869.233      963.954        1.382        0.281      147.000       21.434        0.021      343.765       20.107      866.814
05/02/2013  20:05:00      109.104       79.293       20.150       45.996       35.524       44.851     2115.603     1261.963     2011.570        1.199        0.269      134.874       29.829        0.049      343.823       20.207      866.816
05/02/2013  20:06:00       78.212       59.210       20.195       34.483       31.020       30.936     1189.084      962.239      957.047        0.657        0.155       98.097       17.313        0.031      343.599       19.824      866.812
05/02/2013  20:07:00      108.995       93.958       21.021       67.074       44.381       31.346     4498.974     1969.632      982.543        1.430        0.373      143.903       23.798        0.027      343.729       20.044      866.812
05/02/2013  20:08:00      114.960       76.377       28.484       47.039       27.238       27.709     2212.689      741.923      767.783        1.179        0.186      138.019       15.817        0.013      343.742       20.068      866.817
05/02/2013  20:09:00      104.800       78.344       23.275       49.882       40.033       41.305     2488.233     1602.641     1706.113        1.173        0.290      130.846       28.285        0.047      343.719       20.030      866.814
05/02/2013  20:10:00       89.550       63.995       15.082       42.568       27.618       31.426     1812.064      762.771      987.585        0.795        0.178      110.067       17.449        0.025      343.644       19.899      866.815
05/02/2013  20:11:00       96.612       73.522       26.870       57.144       40.160       34.720     3265.452     1612.828     1205.488        1.077        0.304      121.406       29.045        0.057      343.647       19.906      866.820
05/02/2013  20:12:00       78.788       51.634       27.291       38.790       29.794       22.428     1504.667      887.661      503.003        0.626        0.145       94.200       17.041        0.033      343.355       19.409      866.826
05/02/2013  20:13:00       67.727       45.967       26.682       41.113       33.242       26.965     1690.295     1105.021      727.109        0.547        0.176       81.853       19.622        0.057      343.505       19.665      866.832
05/02/2013  20:14:00       55.781       45.641       23.099       40.880       32.143       31.938     1671.202     1033.145     1020.061        0.473        0.186       72.073       15.603        0.047      343.279       19.279      866.845
05/02/2013  20:15:00      103.852       74.060       33.297       48.326       29.835       28.585     2335.362      890.143      817.077        1.071        0.202      127.554       16.834        0.017      343.460       19.589      866.857
05/02/2013  20:16:00       94.139       74.453       24.074       36.339       28.647       26.447     1320.518      820.649      699.448        0.891        0.142      120.022       20.983        0.031      343.674       19.951      866.871
05/02/2013  20:17:00      110.932       63.102       24.169       49.626       38.823       29.818     2462.742     1507.238      889.101        1.086        0.243      127.623       15.012        0.014      343.330       19.365      866.891
05/02/2013  20:18:00       63.261       55.608        9.289       32.807       32.602       27.762     1076.283     1062.874      770.716        0.504        0.145       84.227       19.462        0.053      343.506       19.666      866.909
05/02/2013  20:19:00       58.939       62.361        7.242       34.758       33.273       26.154     1208.087     1107.077      684.057        0.521        0.150       85.806       22.044        0.066      343.584       19.798      866.913
05/02/2013  20:20:00       67.635       61.928       -0.763       42.178       42.254       40.778     1778.983     1785.379     1662.880        0.682        0.261       91.703       31.297        0.116      343.644       19.902      866.922
05/02/2013  20:21:00       35.543       49.848        5.009       31.590       30.718       24.575      997.901      943.611      603.931        0.316        0.127       61.222       20.288        0.110      343.576       19.785      866.938
05/02/2013  20:22:00       61.123       58.218        6.594       33.736       29.625       27.178     1138.115      877.647      738.631        0.496        0.138       84.412       21.247        0.063      343.543       19.728      866.944
05/02/2013  20:23:00       19.262       92.183       -3.724       28.741       61.216       25.190      826.037     3747.369      634.555        0.704        0.260       94.174       31.178        0.110      343.542       19.728      866.963
05/02/2013  20:24:00       10.328      110.588       -2.828       32.395       48.687       29.453     1049.413     2370.445      867.487        0.832        0.214      111.069       27.684        0.062      343.513       19.677      866.967
05/02/2013  20:25:00       52.561       72.588       -0.820       34.600       54.606       36.467     1197.130     2981.848     1329.820        0.677        0.275       89.620       34.895        0.152      343.438       19.550      866.972
05/02/2013  20:26:00       67.613       65.001        0.695       39.265       30.842       29.825     1541.778      951.218      889.558        0.609        0.169       93.791       22.178        0.056      343.427       19.532      866.969
05/02/2013  20:27:00       80.877       72.487       11.324       42.959       28.735       33.922     1845.499      825.727     1150.709        0.787        0.191      108.607       22.583        0.043      343.473       19.607      866.963
05/02/2013  20:28:00       73.851       83.299        9.005       44.111       35.569       31.028     1945.763     1265.163      962.753        0.832        0.209      111.322       25.220        0.051      343.475       19.613      866.965
05/02/2013  20:29:00       29.853       73.720        8.638       45.748       42.836       37.351     2092.922     1834.912     1395.086        0.586        0.266       79.535       31.612        0.158      343.432       19.539      866.963
05/02/2013  20:30:00       12.046       91.351       -2.142       28.100       41.422       25.905      789.602     1715.777      671.094        0.584        0.159       92.142       23.769        0.067      343.515       19.681      866.970
05/02/2013  20:31:00       13.058      103.745       -7.874       27.300       41.799       21.026      745.265     1747.191      442.073        0.696        0.147      104.564       18.153        0.030      343.524       19.697      866.973
05/02/2013  20:32:00        9.605      105.073       -4.292       30.846       35.648       23.430      951.453     1270.772      548.945        0.696        0.139      105.511       21.372        0.041      343.535       19.716      866.986
05/02/2013  20:33:00        6.741       99.304       -7.907       24.412       22.209       12.358      595.942      493.259      152.717        0.561        0.062       99.533        9.536        0.009      343.603       19.831      866.996
05/02/2013  20:34:00       17.574       60.908        7.205       37.379       33.159       22.604     1397.175     1099.536      510.935        0.354        0.150       63.393       15.660        0.061      343.448       19.566      867.013
05/02/2013  20:35:00       17.574       89.501      -10.841       23.458       26.290       18.098      550.290      691.161      327.521        0.500        0.078       91.210       14.914        0.027      343.528       19.703      867.030
05/02/2013  20:36:00        5.767      117.296      -10.156       19.702       16.462       10.110      388.157      270.985      102.212        0.733        0.038      117.437        8.497        0.005      343.530       19.707      867.040
05/02/2013  20:37:00      -11.258      111.705      -16.554       24.805       24.643       12.406      615.266      607.260      153.921        0.713        0.069      112.270       10.509        0.009      343.510       19.673      867.050
05/02/2013  20:38:00       -9.139      133.348      -15.158       20.911       31.138       12.615      437.283      969.589      159.129        0.983        0.078      133.661       13.423        0.010      343.454       19.578      867.068
05/02/2013  20:39:00      -26.889      154.421      -19.221       21.227       40.139       13.032      450.566     1611.117      169.836        1.358        0.112      156.744       10.904        0.005      343.459       19.587      867.078
05/02/2013  20:40:00      -34.772      137.247      -17.177       23.974       38.876       20.135      574.754     1511.362      405.429        1.142        0.125      141.583       19.800        0.020      343.360       19.418      867.095
05/02/2013  20:41:00      -36.720      165.344      -23.508       24.737       28.444       13.978      611.914      809.039      195.398        1.543        0.081      169.372       11.211        0.004      343.370       19.433      867.102
05/02/2013  20:42:00      -40.170      118.077      -20.519       24.553       37.522       19.273      602.848     1407.879      371.456        0.918        0.119      124.723       19.927        0.026      343.329       19.363      867.110
05/02/2013  20:43:00      -20.890      153.579      -20.393       24.906       28.040       14.168      620.301      786.219      200.746        1.302        0.080      154.993       14.062        0.008      343.342       19.386      867.114
05/02/2013  20:44:00      -29.159      108.506      -16.778       21.776       30.120       13.959      474.185      907.231      194.860        0.724        0.079      112.355       11.876        0.011      343.275       19.271      867.123
05/02/2013  20:45:00      -11.596      135.602      -15.653       24.843       28.744       14.429      617.153      826.235      208.208        1.021        0.083      136.097       12.790        0.009      343.255       19.240      867.123
05/02/2013  20:46:00       -2.098      121.494      -13.595       22.360       34.417       20.023      499.962     1184.559      400.934        0.852        0.104      121.512       21.027        0.030      343.195       19.135      867.127
05/02/2013  20:47:00        0.334       95.635       -6.063       33.171       30.797       18.703     1100.339      948.451      349.817        0.579        0.120       95.636       17.055        0.032      343.173       19.098      867.126
05/02/2013  20:48:00       13.164      137.049      -16.883       24.117       26.990       15.167      581.636      728.442      230.036        1.039        0.077      137.680        8.713        0.004      343.160       19.076      867.131
05/02/2013  20:49:00       11.862      114.733      -12.474       29.956       42.279       20.924      897.385     1787.534      437.804        0.829        0.156      115.345       24.100        0.044      343.077       18.935      867.135
05/02/2013  20:50:00       -3.212       95.959       -2.405       34.351       39.474       20.260     1179.973     1558.173      410.464        0.619        0.157       96.013       20.709        0.047      343.065       18.914      867.140
05/02/2013  20:51:00      -17.942      103.575       -4.483       28.028       23.783       17.745      785.569      565.618      314.874        0.637        0.083      105.118       11.239        0.011      343.011       18.821      867.152
05/02/2013  20:52:00        7.022      120.074      -16.407       25.897       20.738       11.339      670.680      430.065      128.582        0.798        0.061      120.279        5.914        0.002      343.032       18.857      867.163
05/02/2013  20:53:00        0.947      116.905      -14.022       27.170       20.602       12.801      738.222      424.455      163.874        0.760        0.066      116.909       12.471        0.011      343.024       18.845      867.173
05/02/2013  20:54:00      -32.533      118.509      -15.571       24.701       20.340       14.056      610.131      413.724      197.583        0.828        0.061      122.893       10.179        0.007      343.019       18.836      867.183
05/02/2013  20:55:00      -17.403      104.071       -2.869       26.906       39.419       20.741      723.924     1553.863      430.170        0.692        0.135      105.516       19.756        0.035      342.900       18.633      867.182
05/02/2013  20:56:00      -30.585      130.681      -13.699       26.067       23.768       14.624      679.506      564.897      213.866        0.983        0.073      134.212        7.583        0.003      342.888       18.614      867.192
05/02/2013  20:57:00      -43.560      136.393      -19.754       27.408       36.169       18.443      751.199     1308.221      340.159        1.164        0.120      143.180       11.514        0.006      342.845       18.540      867.188
05/02/2013  20:58:00      -56.285      147.528      -21.262       45.223       51.891       30.800     2045.095     2692.668      948.640        1.553        0.284      157.900       30.129        0.036      342.834       18.520      867.199
05/02/2013  20:59:00      -27.602      161.794      -17.031       29.153       39.993       21.085      849.889     1599.456      444.589        1.506        0.145      164.132       18.535        0.013      342.965       18.744      867.191
05/02/2013  21:00:00      -40.877      111.250      -13.772       36.998       49.492       23.494     1368.873     2449.470      551.948        0.930        0.219      118.522       22.866        0.037      342.860       18.566      867.208
05/02/2013  21:01:00      -18.386      132.149      -15.839       31.212       38.739       24.455      974.216     1500.726      598.033        1.056        0.154      133.422       22.854        0.029      342.911       18.652      867.214
05/02/2013  21:02:00      -48.463       85.696      -16.657       32.887       53.885       18.553     1081.530     2903.549      344.199        0.715        0.216       98.451        9.162        0.009      342.769       18.410      867.221
05/02/2013  21:03:00      -48.296       34.906       -4.558       31.995       31.420       25.767     1023.668      987.232      663.952        0.312        0.134       59.590       24.035        0.163      342.723       18.331      867.227
05/02/2013  21:04:00      -47.169       15.503       -9.311       27.726       28.384       13.057      768.716      805.657      170.487        0.215        0.087       49.651       13.218        0.071      342.730       18.345      867.236
05/02/2013  21:05:00      -42.104       55.938      -13.223       32.020       43.398       21.342     1025.295     1883.389      455.479        0.422        0.168       70.013       22.347        0.102      342.902       18.638      867.237
05/02/2013  21:06:00      -55.195       22.418      -10.178       28.031       27.606       13.553      785.725      762.079      183.676        0.269        0.087       59.574       10.746        0.033      342.772       18.414      867.243
05/02/2013  21:07:00      -59.738       40.477       -9.970       21.531       25.791       14.197      463.571      665.193      201.558        0.332        0.067       72.159       11.080        0.024      342.769       18.411      867.251
05/02/2013  21:08:00      -43.082       30.274       -3.077       31.730       31.361       15.908     1006.814      983.537      253.066        0.251        0.112       52.656       15.410        0.086      342.765       18.403      867.256
05/02/2013  21:09:00      -86.779        4.049      -12.618       26.596       32.284       13.931      707.345     1042.239      194.073        0.482        0.097       86.873       12.688        0.021      342.572       18.076      867.265
05/02/2013  21:10:00      -72.688       -2.821      -10.772       20.537       19.934       13.154      421.769      397.355      173.037        0.320        0.050       72.742        8.496        0.014      342.460       17.885      867.271
05/02/2013  21:11:00      -73.938       24.443      -12.166       29.541       25.206       17.727      872.648      635.357      314.259        0.402        0.091       77.873       14.598        0.035      342.743       18.366      867.274
05/02/2013  21:12:00     -120.208       63.767      -21.515       41.660       35.375       23.900     1735.555     1251.398      571.211        1.127        0.178      136.074       12.183        0.008      342.755       18.387      867.288
05/02/2013  21:13:00     -107.320       89.465      -22.321       42.654       47.439       29.263     1819.389     2250.421      856.301        1.247        0.246      139.720       27.072        0.038      342.771       18.413      867.295
05/02/2013  21:14:00     -127.569      111.638      -36.848       27.459       29.579       23.850      754.018      874.920      568.804        1.615        0.110      169.520       18.245        0.012      342.818       18.494      867.318
05/02/2013  21:15:00     -108.793      103.321      -19.260       51.148       50.956       31.157     2616.134     2596.498      970.729        1.453        0.309      150.037       25.250        0.028      342.737       18.356      867.323
05/02/2013  21:16:00     -107.193       55.251      -16.662       35.432       52.270       25.200     1255.410     2732.111      635.031        0.972        0.231      120.594       21.532        0.032      342.646       18.202      867.337
05/02/2013  21:17:00      -93.942       31.919      -10.707       39.607       23.369       20.369     1568.738      546.096      414.914        0.624        0.126       99.216       19.853        0.040      342.556       18.047      867.339
05/02/2013  21:18:00      -86.852       18.482       -9.199       27.650       22.472       19.314      764.516      505.004      373.050        0.481        0.082       88.797       16.815        0.036      342.443       17.856      867.342
05/02/2013  21:19:00      -83.701       16.938       -9.397       31.130       33.342       20.403      969.053     1111.663      416.274        0.494        0.125       85.398       16.748        0.038      342.500       17.954      867.348
05/02/2013  21:20:00     -111.105       -8.615      -10.647       29.736       27.638       17.931      884.222      763.832      321.519        0.725        0.098      111.439       16.248        0.021      342.368       17.728      867.341
05/02/2013  21:21:00     -106.415       -5.018      -12.953       32.723       30.133       16.862     1070.818      907.972      284.339        0.689        0.113      106.534        6.331        0.004      342.328       17.661      867.342
05/02/2013  21:22:00     -111.916       12.198       -6.465       30.681       32.711       18.507      941.297     1070.023      342.495        0.753        0.118      112.579       12.112        0.012      342.394       17.772      867.344
05/02/2013  21:23:00      -79.167       -5.289       -1.633       22.155       44.091       25.853      490.857     1944.001      668.352        0.470        0.155       79.343       21.224        0.072      342.430       17.834      867.338
05/02/2013  21:24:00      -68.068       -0.575       -7.345       29.467       32.231       18.244      868.289     1038.811      332.828        0.346        0.112       68.071        9.354        0.019      342.340       17.680      867.324
05/02/2013  21:25:00      -57.830       16.817       -1.037       29.487       40.123       20.526      869.489     1609.877      421.320        0.326        0.145       60.226       18.800        0.097      342.400       17.784      867.331
05/02/2013  21:26:00      -64.643       33.271       -5.230       25.152       19.136       16.173      632.648      366.183      261.580        0.329        0.063       72.702       12.044        0.027      342.441       17.852      867.320
05/02/2013  21:27:00      -93.419       57.067      -23.076       17.021       37.295       14.666      289.701     1390.894      215.082        0.721        0.095      109.470       11.964        0.012      342.508       17.966      867.315
05/02/2013  21:28:00      -78.647      -10.419       -9.953       12.841       20.161       10.292      164.902      406.483      105.926        0.354        0.034       79.334        8.718        0.012      342.315       17.639      867.309
05/02/2013  21:29:00      -68.639       -8.061      -11.998       17.417       19.893        9.530      303.335      395.722       90.814        0.285        0.039       69.110        7.827        0.013      342.217       17.473      867.310
05/02/2013  21:30:00      -81.628       18.240      -12.809       20.088       19.701       12.173      403.538      388.145      148.176        0.405        0.047       83.641        5.748        0.005      342.339       17.680      867.317
05/02/2013  21:31:00      -71.660        8.544      -10.197       16.359       21.350       12.047      267.623      455.839      145.128        0.309        0.043       72.167       10.315        0.020      342.265       17.553      867.319
05/02/2013  21:32:00      -78.175       11.537       -9.499       14.410       18.639        9.990      207.644      347.411       99.802        0.349        0.033       79.022        6.288        0.006      342.271       17.565      867.338
05/02/2013  21:33:00      -88.407       12.327       -8.893       22.934       19.618       11.410      525.979      384.866      130.188        0.454        0.052       89.262       10.431        0.014      342.104       17.281      867.338
05/02/2013  21:34:00      -99.771        6.341      -12.405       21.783       25.724       12.755      474.482      661.749      162.678        0.572        0.065       99.972        5.378        0.003      342.079       17.237      867.340
05/02/2013  21:35:00      -83.265        8.342       -7.659       26.811       29.330       13.642      718.848      860.277      186.105        0.441        0.088       83.682       12.606        0.023      342.024       17.145      867.335
05/02/2013  21:36:00      -70.413      -15.091       -8.353       28.480       18.795       15.324      811.115      353.259      234.830        0.333        0.070       72.012       12.501        0.030      341.904       16.940      867.346
05/02/2013  21:37:00      -77.979       -6.919       -8.062       29.100       17.820       13.998      846.834      317.546      195.930        0.378        0.068       78.285       15.472        0.039      341.914       16.958      867.353
05/02/2013  21:38:00      -87.391      -13.710      -11.150       20.482       13.696       11.302      419.523      187.589      127.744        0.434        0.037       88.460       10.128        0.013      341.900       16.934      867.358
05/02/2013  21:39:00      -92.563      -11.058      -11.289       29.245       15.732       14.633      855.275      247.508      214.120        0.507        0.066       93.221        8.745        0.009      341.871       16.885      867.365
05/02/2013  21:40:00     -105.777      -15.401      -19.176       31.273       26.073       22.006      977.994      679.789      484.255        0.697        0.107      106.892       18.206        0.029      341.725       16.636      867.363
05/02/2013  21:41:00     -120.168       -1.717      -17.591       30.076       16.643       19.682      904.549      277.006      387.371        0.816        0.078      120.180       18.360        0.023      341.601       16.426      867.375
05/02/2013  21:42:00     -115.617      -17.054      -14.504       31.358       30.267       19.598      983.348      916.080      384.089        0.808        0.114      116.868       15.213        0.017      341.510       16.273      867.377
05/02/2013  21:43:00     -116.166      -15.073      -17.713       21.783       19.343       13.717      474.478      374.161      188.158        0.754        0.052      117.140        8.301        0.005      341.481       16.224      867.380
05/02/2013  21:44:00     -114.601      -29.212      -16.769       23.862       21.451       13.491      569.399      460.164      182.004        0.774        0.061      118.265        7.166        0.004      341.399       16.084      867.389
05/02/2013  21:45:00     -122.095      -42.525       -7.090       26.912       25.140       13.648      724.259      632.042      186.279        0.915        0.077      129.289       15.130        0.014      341.367       16.030      867.388
05/02/2013  21:46:00     -105.179      -21.072       -4.393       45.614       30.209       23.231     2080.667      912.580      539.667        0.753        0.177      107.269       23.468        0.048      341.331       15.970      867.393
05/02/2013  21:47:00     -127.082      -14.382      -12.291       35.861       31.322       20.102     1285.989      981.098      404.094        0.959        0.134      127.893       18.951        0.022      341.383       16.058      867.388
05/02/2013  21:48:00      -98.324      -18.097       -3.405       37.425       32.500       20.578     1400.621     1056.274      423.447        0.644        0.144       99.976       18.782        0.035      341.336       15.978      867.393
05/02/2013  21:49:00     -105.018      -34.816       -7.004       32.501       22.147       17.627     1056.322      490.499      310.695        0.707        0.093      110.639       16.229        0.022      341.318       15.948      867.390
05/02/2013  21:50:00      -85.726      -32.244       -2.156       34.965       23.981       17.418     1222.527      575.069      303.383        0.525        0.105       91.589       20.016        0.048      341.321       15.952      867.395
05/02/2013  21:51:00      -35.936      -27.960        7.163       38.563       28.807       18.890     1487.119      829.849      356.848        0.240        0.134       45.532       19.719        0.188      341.302       15.919      867.388
05/02/2013  21:52:00     -106.884      -24.320       -6.898       31.992       22.893       17.058     1023.463      524.096      290.985        0.695        0.092      109.616       15.693        0.020      341.290       15.900      867.392
05/02/2013  21:53:00      -96.627      -30.332       -4.918       25.155       25.429       15.287      632.782      646.619      233.701        0.590        0.076      101.276       10.835        0.011      341.299       15.914      867.393
05/02/2013  21:54:00      -73.805      -43.463        6.457       24.427       21.300       15.245      596.656      453.690      232.418        0.433        0.064       85.652       12.591        0.022      341.309       15.931      867.397
05/02/2013  21:55:00      -56.865      -54.240       -0.270       35.364       41.520       18.166     1250.631     1723.877      329.998        0.474        0.165       78.585       16.035        0.042      341.302       15.920      867.397
05/02/2013  21:56:00     -101.336      -65.837       -0.088       33.039       29.458       20.786     1091.589      867.761      432.043        0.850        0.120      120.845       16.627        0.019      341.350       16.001      867.397
05/02/2013  21:57:00      -74.816      -85.321        6.607       58.326       50.840       34.516     3401.919     2584.743     1191.385        1.005        0.359      113.478       31.148        0.075      341.223       15.788      867.401
05/02/2013  21:58:00     -145.402      -87.179        4.701       42.261       43.471       28.326     1785.968     1889.746      802.348        1.662        0.224      169.534       24.660        0.021      341.196       15.739      867.403
05/02/2013  21:59:00     -107.302     -100.410        4.104       70.873       44.486       32.634     5022.921     1978.981     1065.005        1.484        0.403      146.955       36.147        0.061      341.126       15.623      867.410
05/02/2013  22:00:00     -120.375      -88.358       -5.460       59.608       40.956       31.569     3553.126     1677.432      996.616        1.428        0.311      149.323       26.132        0.031      341.203       15.752      867.410
05/02/2013  22:01:00     -110.727      -84.653        1.295       63.044       56.278       35.290     3974.577     3167.175     1245.350        1.391        0.419      139.379       31.978        0.053      341.139       15.644      867.420
05/02/2013  22:02:00     -109.087      -57.689        2.964       61.695       27.911       29.112     3806.298      779.051      847.529        1.033        0.272      123.402       31.114        0.064      341.140       15.647      867.418
05/02/2013  22:03:00      -57.537      -37.067        7.021       60.267       38.909       30.992     3632.158     1513.929      960.525        0.542        0.305       68.443       32.300        0.223      341.113       15.602      867.413
05/02/2013  22:04:00     -108.578      -61.136       -0.164       41.921       36.853       21.092     1757.410     1358.144      444.891        0.954        0.178      124.606       18.263        0.021      341.144       15.652      867.409
05/02/2013  22:05:00     -109.333      -53.697       -5.978       45.687       39.781       26.152     2087.310     1582.553      683.923        0.961        0.218      121.808       18.144        0.022      341.187       15.726      867.414
05/02/2013  22:06:00     -118.013      -33.482       -7.959       36.049       31.882       22.988     1299.525     1016.454      528.442        0.898        0.142      122.671       20.962        0.029      341.174       15.703      867.411
05/02/2013  22:07:00      -82.333      -42.502       -1.635       39.679       37.964       20.432     1574.412     1441.253      417.479        0.601        0.172       92.657       15.161        0.027      341.219       15.780      867.410
05/02/2013  22:08:00     -127.104      -39.122       -4.262       60.958       34.199       25.018     3715.919     1169.538      625.890        1.161        0.276      132.989       27.263        0.042      341.136       15.639      867.412
05/02/2013  22:09:00     -172.866      -45.452      -12.653       36.575       40.619       22.935     1337.743     1649.908      526.026        1.781        0.176      178.741       17.108        0.009      341.094       15.568      867.407
05/02/2013  22:10:00     -127.757      -48.336      -11.080       50.173       43.377       18.407     2517.362     1881.523      338.808        1.176        0.237      136.595       21.567        0.025      341.104       15.586      867.403
05/02/2013  22:11:00      -92.902      -51.610        0.088       53.207       34.938       24.457     2831.002     1220.669      598.143        0.797        0.232      106.275       22.828        0.046      341.052       15.497      867.390
05/02/2013  22:12:00      -59.019      -28.770        3.076       47.584       32.591       22.068     2264.241     1062.170      486.976        0.407        0.191       65.658       25.409        0.150      341.050       15.492      867.389
05/02/2013  22:13:00      -42.900      -65.813        8.478       64.437       40.605       32.346     4152.154     1648.745     1046.288        0.654        0.342       78.560       33.811        0.185      341.049       15.492      867.385
05/02/2013  22:14:00      -75.238      -40.834       -2.125       32.635       23.931       18.147     1065.048      572.681      329.315        0.465        0.098       85.605       10.282        0.014      341.099       15.578      867.379
05/02/2013  22:15:00     -100.460      -49.587       -7.608       38.046       23.845       21.580     1447.478      568.590      465.677        0.754        0.124      112.031       16.093        0.021      341.214       15.770      867.379
05/02/2013  22:16:00     -136.341      -49.448       -9.516       65.864       47.036       24.296     4338.082     2212.355      590.277        1.413        0.357      145.031       26.453        0.033      341.301       15.917      867.375
05/02/2013  22:17:00     -133.648      -68.604       -2.880       57.881       42.143       31.696     3350.239     1776.012     1004.615        1.435        0.307      150.228       31.570        0.044      341.235       15.807      867.371
05/02/2013  22:18:00     -194.836      -44.572       -9.389       37.589       42.745       23.841     1412.915     1827.167      568.380        2.192        0.190      199.870       18.697        0.009      341.175       15.705      867.368
05/02/2013  22:19:00     -167.996      -59.641       -4.928       43.361       32.847       19.061     1880.176     1078.898      363.315        1.756        0.166      178.268       15.351        0.007      341.205       15.756      867.361
05/02/2013  22:20:00     -142.079      -45.120       -2.502       45.558       37.937       20.258     2075.504     1439.217      410.369        1.308        0.196      149.072       19.426        0.017      341.189       15.730      867.363
05/02/2013  22:21:00     -188.901      -53.410      -18.231       29.656       28.104       20.283      879.477      789.837      411.414        2.047        0.104      196.306       14.228        0.005      341.221       15.784      867.356
05/02/2013  22:22:00     -185.086      -45.966      -15.820       26.755       31.671       17.839      715.848     1003.033      318.245        1.933        0.102      190.708        9.905        0.003      341.163       15.685      867.361
05/02/2013  22:23:00     -142.218      -32.356       -5.719       48.284       33.146       24.301     2331.323     1098.677      590.516        1.266        0.201      145.852       21.504        0.022      341.114       15.603      867.350
05/02/2013  22:24:00     -142.356      -31.234       -0.484       50.025       37.410       30.358     2502.478     1399.541      921.602        1.303        0.241      145.742       30.394        0.043      341.249       15.830      867.361
05/02/2013  22:25:00     -159.239      -13.303      -11.576       52.733       33.493       26.970     2780.728     1121.765      727.374        1.515        0.231      159.794       26.420        0.027      341.303       15.922      867.363
05/02/2013  22:26:00     -174.118       34.219       -8.798       47.650       43.876       23.476     2270.498     1925.134      551.103        1.816        0.237      177.449       23.635        0.018      341.185       15.721      867.365
05/02/2013  22:27:00     -156.144       36.213       -9.820       49.965       29.624       19.386     2496.545      877.585      375.836        1.477        0.187      160.288       21.091        0.017      341.180       15.715      867.366
05/02/2013  22:28:00     -163.406       16.698      -15.073       54.076       46.170       32.538     2924.245     2131.694     1058.748        1.666        0.306      164.257       35.082        0.046      341.252       15.835      867.359
05/02/2013  22:29:00     -161.188       31.071      -12.922       54.574       33.139       21.133     2978.349     1098.209      446.611        1.582        0.226      164.156       24.291        0.022      341.438       16.152      867.355
05/02/2013  22:30:00     -122.397      -38.273       -9.687       30.989       52.215       23.548      960.342     2726.439      554.526        1.039        0.212      128.242       15.144        0.014      341.250       15.833      867.338
05/02/2013  22:31:00     -102.083      -53.897        4.345       32.681       40.388       22.878     1068.062     1631.220      523.391        0.828        0.161      115.438       14.123        0.015      341.130       15.630      867.332
05/02/2013  22:32:00     -126.909      -80.123      -11.406       46.406       37.986       22.266     2153.524     1442.945      495.783        1.337        0.205      150.086       19.011        0.016      340.949       15.324      867.317
05/02/2013  22:33:00     -116.702      -42.883       -9.583       37.062       40.670       20.488     1373.562     1654.014      419.748        0.950        0.172      124.331       10.070        0.007      340.864       15.180      867.301
05/02/2013  22:34:00     -127.344      -46.918       -2.122       32.348       26.604       18.340     1046.382      707.754      336.338        1.026        0.105      135.712       15.265        0.013      340.851       15.156      867.290
05/02/2013  22:35:00     -105.530      -58.349       -8.253       37.285       31.590       24.630     1390.166      997.901      606.615        0.880        0.150      120.587        3.076        0.001      340.878       15.203      867.273
05/02/2013  22:36:00     -124.425      -62.183       -8.183       34.508       35.594       20.368     1190.816     1266.932      414.863        1.114        0.144      139.098       17.909        0.017      340.724       14.941      867.276
05/02/2013  22:37:00     -106.947      -45.430      -13.825       32.611       20.579       17.797     1063.474      423.496      316.735        0.775        0.090      116.196       14.479        0.016      340.877       15.201      867.267
05/02/2013  22:38:00      -84.330      -64.079       -3.179       30.871       31.559       24.237      953.011      995.981      587.421        0.688        0.127      105.914       15.876        0.022      340.829       15.119      867.261
05/02/2013  22:39:00      -82.749      -48.784        2.456       48.854       25.519       22.460     2386.760      651.226      504.442        0.639        0.177       96.058       23.245        0.059      340.850       15.155      867.266
05/02/2013  22:40:00     -115.141      -60.480      -15.899       32.947       26.225       16.045     1085.528      687.753      257.457        0.960        0.102      130.059       11.793        0.008      340.807       15.082      867.263
05/02/2013  22:41:00     -126.761      -44.185      -13.225       21.019       20.305       17.633      441.798      412.310      310.932        0.968        0.058      134.241       14.528        0.012      340.748       14.983      867.254
05/02/2013  22:42:00     -119.117      -46.463       -3.929       27.416       29.508       14.189      751.636      870.702      201.331        0.909        0.091      127.858       12.167        0.009      340.804       15.077      867.261
05/02/2013  22:43:00     -120.964      -47.531       -4.666       21.362       20.223       14.553      456.327      408.985      211.787        0.899        0.054      129.967        8.654        0.004      340.845       15.146      867.249
05/02/2013  22:44:00      -65.796      -38.793       -3.669       44.725       22.002       20.958     2000.323      484.068      439.221        0.439        0.146       76.381       16.098        0.044      340.726       14.944      867.240
05/02/2013  22:45:00      -90.043      -56.876       -1.678       39.061       21.256       17.138     1525.795      451.833      293.714        0.681        0.114      106.502       10.411        0.010      340.625       14.774      867.240
05/02/2013  22:46:00     -133.945      -34.145       -2.171       35.680       22.634       16.056     1273.091      512.288      257.810        1.058        0.102      138.229       12.881        0.009      340.725       14.944      867.232
05/02/2013  22:47:00     -122.843      -28.417       -0.730       34.745       24.459       22.072     1207.208      598.257      487.155        0.910        0.115      126.087       20.354        0.026      340.576       14.692      867.239
05/02/2013  22:48:00     -118.804      -37.967       -5.650       25.952       23.886       16.235      673.517      570.521      263.568        0.855        0.075      124.723       14.522        0.014      340.521       14.599      867.234
05/02/2013  22:49:00     -103.791      -57.301       -4.148       39.134       26.433       19.810     1531.460      698.717      392.425        0.835        0.131      118.558       12.344        0.011      340.521       14.598      867.234
05/02/2013  22:50:00      -92.721      -33.049        1.750       28.316       26.587       17.272      801.784      706.860      298.320        0.575        0.090       98.435       14.322        0.021      340.464       14.501      867.248
05/02/2013  22:51:00      -97.264      -34.359       -4.602       39.248       35.215       16.501     1540.408     1240.080      272.291        0.686        0.153      103.154       16.923        0.027      340.491       14.548      867.247
05/02/2013  22:52:00      -60.715      -50.829       -1.198       39.730       25.400       22.817     1578.434      645.172      520.636        0.451        0.137       79.182       13.546        0.029      340.514       14.586      867.238
05/02/2013  22:53:00      -81.384      -70.619        3.572       49.271       37.432       27.972     2427.604     1401.130      782.420        0.812        0.231      107.752       26.262        0.059      340.437       14.456      867.233
05/02/2013  22:54:00      -62.653      -53.358        7.994       43.135       44.781       28.406     1860.623     2005.309      806.915        0.575        0.234       82.295       28.869        0.123      340.430       14.446      867.237
05/02/2013  22:55:00     -104.948      -68.587       -3.713       55.849       27.781       16.925     3119.086      771.810      286.449        0.995        0.209      125.373       17.569        0.020      340.431       14.446      867.228
05/02/2013  22:56:00     -105.392      -63.876       -2.642       58.812       28.634       17.143     3458.843      819.902      293.892        0.988        0.229      123.238        9.675        0.006      340.440       14.462      867.232
05/02/2013  22:57:00      -83.110      -62.039        5.767       44.933       34.346       25.247     2018.931     1179.660      637.386        0.731        0.192      103.712       24.782        0.057      340.328       14.273      867.233
05/02/2013  22:58:00      -78.760      -51.325        0.658       43.666       36.736       19.437     1906.692     1349.522      377.791        0.624        0.182       94.007       15.203        0.026      340.251       14.142      867.225
05/02/2013  22:59:00      -71.817      -53.224        0.452       54.008       39.799       25.224     2916.816     1583.989      636.236        0.656        0.257       89.390       25.812        0.083      340.247       14.135      867.230
05/02/2013  23:00:00      -83.766      -64.997        5.248       51.500       34.763       28.614     2652.249     1208.455      818.771        0.797        0.234      106.025       28.382        0.072      340.305       14.233      867.217
05/02/2013  23:01:00     -101.045      -83.635       -6.193       39.682       32.616       23.833     1574.682     1063.794      567.989        1.022        0.160      131.168       24.419        0.035      340.323       14.265      867.208
05/02/2013  23:02:00     -131.402      -50.289       -2.866       25.174       26.319       16.981      633.736      692.687      288.358        1.071        0.081      140.696       10.332        0.005      340.251       14.141      867.202
05/02/2013  23:03:00     -146.469      -55.269       -3.303       36.900       22.418       23.542     1361.580      502.557      554.222        1.347        0.121      156.549       21.203        0.018      340.311       14.245      867.196
05/02/2013  23:04:00     -142.184      -54.721       -1.756       35.481       25.037       20.210     1258.927      626.871      408.451        1.275        0.115      152.351       18.337        0.014      340.274       14.181      867.195
05/02/2013  23:05:00     -146.410      -60.481       -7.201       21.635       24.249       16.199      468.075      588.010      262.405        1.323        0.066      158.410       10.812        0.005      340.249       14.138      867.200
05/02/2013  23:06:00     -160.856      -51.167       -3.180       35.972       33.275       17.362     1294.016     1107.216      301.451        1.560        0.135      168.798       13.347        0.006      340.247       14.134      867.196
05/02/2013  23:07:00     -127.229      -66.814        0.696       55.759       33.943       27.286     3109.059     1152.154      744.543        1.283        0.250      143.705       27.503        0.037      340.138       13.952      867.193
05/02/2013  23:08:00     -131.364      -59.599        1.124       51.154       36.750       24.319     2616.728     1350.588      591.434        1.268        0.228      144.252       23.650        0.027      340.081       13.856      867.204
05/02/2013  23:09:00     -124.907      -57.171       -5.376       39.509       31.061       22.713     1560.932      964.802      515.901        1.097        0.152      137.369       13.009        0.009      340.085       13.862      867.192
05/02/2013  23:10:00     -144.400      -67.760       -4.403       38.298       35.283       23.625     1466.719     1244.892      558.119        1.437        0.163      159.508       19.339        0.015      340.066       13.830      867.188
05/02/2013  23:11:00     -130.479      -67.120       -0.754       35.490       33.990       23.105     1259.550     1155.303      533.860        1.224        0.147      146.730       19.825        0.018      340.027       13.763      867.195
05/02/2013  23:12:00     -104.010      -19.873       -2.651       44.940       34.550       22.108     2019.577     1193.701      488.747        0.746        0.185      105.891       24.470        0.053      339.912       13.571      867.188
05/02/2013  23:13:00     -130.092      -35.743       -7.174       34.804       31.975       18.454     1211.303     1022.402      340.533        1.041        0.129      134.913       17.836        0.017      339.884       13.522      867.184
05/02/2013  23:14:00     -156.076      -13.435       -9.564       39.451       27.638       23.432     1556.346      763.860      549.068        1.375        0.143      156.653       22.520        0.021      339.887       13.529      867.174
05/02/2013  23:15:00     -172.907      -20.796      -19.499       22.336       25.119       16.172      498.890      630.955      261.548        1.605        0.070      174.153       12.530        0.005      339.938       13.614      867.166
05/02/2013  23:16:00     -157.996      -24.289      -23.422       19.142       22.695       17.965      366.427      515.047      322.739        1.365        0.060      159.852       13.452        0.007      339.833       13.437      867.166
05/02/2013  23:17:00     -151.641      -59.115       -8.327       29.093       20.467       17.204      846.428      418.895      295.970        1.406        0.078      162.756       12.033        0.005      339.908       13.562      867.165
05/02/2013  23:18:00     -158.105      -82.126      -13.575       19.933       23.091       18.174      397.317      533.181      330.295        1.659        0.063      178.162        9.874        0.003      339.930       13.599      867.154
05/02/2013  23:19:00     -161.989      -84.266       -9.863       23.676       22.772       15.753      560.539      518.553      248.169        1.738        0.066      182.596       11.716        0.004      339.971       13.671      867.162
05/02/2013  23:20:00     -106.868      -59.861        2.411       67.901       37.994       25.005     4610.508     1443.529      625.275        1.084        0.334      122.492       31.480        0.066      339.904       13.556      867.153
05/02/2013  23:21:00      -54.857      -51.600       10.632       56.461       41.037       29.624     3187.877     1684.044      877.575        0.577        0.287       75.312       29.588        0.154      339.785       13.357      867.155
05/02/2013  23:22:00      -86.154      -77.697        5.708       60.029       48.830       29.847     3603.488     2384.378      890.873        1.018        0.344      116.014       29.331        0.064      339.836       13.443      867.148
05/02/2013  23:23:00     -137.335      -92.462        2.557       59.470       44.674       27.417     3536.628     1995.736      751.716        1.685        0.314      165.560       27.545        0.028      339.871       13.500      867.141
05/02/2013  23:24:00     -118.970      -48.832        3.709       51.079       34.319       24.833     2609.075     1177.794      616.684        1.048        0.220      128.602       24.368        0.036      339.886       13.527      867.136
05/02/2013  23:25:00      -89.283      -33.113       -3.917       38.007       29.168       15.069     1444.530      850.748      227.074        0.580        0.126       95.226        9.672        0.010      339.976       13.678      867.129
05/02/2013  23:26:00      -99.286      -49.910       -1.517       54.784       35.634       23.234     3001.308     1269.758      539.835        0.858        0.241      111.125       28.139        0.064      340.073       13.841      867.133
05/02/2013  23:27:00     -117.381      -74.658       -3.835       45.504       43.802       21.359     2070.602     1918.573      456.201        1.191        0.222      139.112       19.148        0.019      340.110       13.904      867.116
05/02/2013  23:28:00     -119.313      -52.743        0.288       37.235       27.826       18.761     1386.449      774.285      351.977        0.976        0.126      130.451       20.648        0.025      340.061       13.823      867.116
05/02/2013  23:29:00      -81.230      -39.814       -0.266       43.567       31.218       21.454     1898.057      974.541      460.283        0.576        0.167       90.462       18.894        0.044      339.961       13.654      867.107
05/02/2013  23:30:00      -67.748      -65.477       -0.893       32.350       36.625       25.982     1046.508     1341.407      675.043        0.597        0.153       94.218       18.548        0.039      340.093       13.875      867.095
05/02/2013  23:31:00      -83.415      -66.830        4.364       41.118       32.313       23.913     1690.730     1044.119      571.810        0.737        0.165      106.885       20.723        0.038      340.089       13.868      867.099
05/02/2013  23:32:00      -33.235      -37.748        9.899       42.756       28.768       22.000     1828.068      827.577      484.006        0.288        0.157       50.294       17.464        0.121      340.020       13.753      867.084
05/02/2013  23:33:00      -73.548      -53.004        4.710       55.746       35.935       23.592     3107.563     1291.349      556.569        0.660        0.248       90.658       27.618        0.093      339.924       13.590      867.089
05/02/2013  23:34:00      -95.012      -61.182        3.207       41.314       26.197       21.125     1706.818      686.270      446.259        0.781        0.142      113.007       20.681        0.033      339.893       13.539      867.082
05/02/2013  23:35:00      -83.446      -61.455        3.756       29.852       29.199       19.922      891.165      852.585      396.887        0.645        0.107      103.634       16.971        0.027      339.890       13.532      867.070
05/02/2013  23:36:00      -95.763      -46.914        0.598       33.095       23.338       20.767     1095.272      544.652      431.249        0.672        0.104      106.637       18.877        0.031      339.875       13.508      867.067
05/02/2013  23:37:00     -111.502      -44.020       -6.548       22.765       16.947       12.233      518.246      287.191      149.655        0.768        0.048      119.876       11.582        0.009      339.838       13.447      867.055
05/02/2013  23:38:00      -88.901      -66.499       -2.855       28.481       22.799       14.960      811.195      519.803      223.813        0.694        0.078      111.021       14.071        0.016      339.894       13.541      867.051
05/02/2013  23:39:00     -112.736      -55.470       -9.441       23.240       22.847       14.948      540.120      521.971      223.456        0.858        0.064      125.644       10.482        0.007      339.781       13.351      867.039
05/02/2013  23:40:00      -95.084      -49.825       -7.025       26.745       15.405       16.141      715.278      237.313      260.539        0.639        0.061      107.348       14.041        0.017      339.741       13.284      867.039
05/02/2013  23:41:00     -124.107      -71.424       -8.795       19.501       26.485       17.717      380.308      701.438      313.885        1.099        0.070      143.192       12.629        0.008      339.716       13.240      867.047
05/02/2013  23:42:00     -149.343      -66.693      -10.751       17.959       22.460       13.938      322.528      504.458      194.275        1.394        0.051      163.559        9.785        0.004      339.638       13.110      867.043
05/02/2013  23:43:00     -164.652      -69.049      -14.176       17.907       20.092       11.956      320.667      403.683      142.944        1.647        0.043      178.545        9.981        0.003      339.652       13.133      867.048
05/02/2013  23:44:00     -131.608      -50.229        4.291       33.847       30.711       19.228     1145.591      943.186      369.722        1.116        0.123      140.867       19.735        0.020      339.602       13.048      867.055
05/02/2013  23:45:00     -141.638      -57.496       -0.683       35.118       26.197       19.321     1233.292      686.260      373.300        1.283        0.115      152.864       18.839        0.015      339.642       13.114      867.057
05/02/2013  23:46:00     -164.322      -46.992       -2.451       48.280       38.940       24.983     2330.955     1516.302      624.172        1.684        0.224      170.909       26.437        0.024      339.725       13.255      867.069
05/02/2013  23:47:00     -147.607      -32.183        0.675       56.551       34.705       24.351     3197.964     1204.411      592.957        1.391        0.250      151.075       23.913        0.025      339.765       13.323      867.068
05/02/2013  23:48:00     -160.623      -49.403        1.710       37.886       40.514       27.438     1435.351     1641.412      752.838        1.604        0.191      168.048       20.746        0.015      339.747       13.291      867.065
05/02/2013  23:49:00     -132.547      -48.723       -2.817       63.664       36.669       26.141     4053.128     1344.605      683.359        1.301        0.304      141.218       28.950        0.042      339.750       13.298      867.067
05/02/2013  23:50:00     -157.948      -63.829       -1.971       40.976       34.953       24.127     1679.043     1221.715      582.117        1.625        0.174      170.358       23.973        0.020      339.668       13.159      867.061
05/02/2013  23:51:00     -120.095      -77.148      -11.254       37.215       33.539       19.723     1384.945     1124.885      389.008        1.170        0.145      142.740       11.950        0.007      339.630       13.096      867.069
05/02/2013  23:52:00     -151.942      -53.794      -10.015       22.389       23.977       14.091      501.263      574.918      198.560        1.368        0.064      161.184       11.156        0.005      339.584       13.019      867.074
05/02/2013  23:53:00     -139.622      -38.628       -4.439       38.661       35.719       20.285     1494.694     1275.838      411.464        1.209        0.159      144.867       18.093        0.016      339.515       12.900      867.071
05/02/2013  23:54:00     -139.106        6.820      -13.593       38.763       30.361       22.564     1502.542      921.776      509.131        1.126        0.147      139.273       21.770        0.024      339.408       12.721      867.078
05/02/2013  23:55:00     -108.962      -26.365       -1.075       55.077       36.530       30.571     3033.482     1334.425      934.589        0.893        0.265      112.106       32.543        0.084      339.315       12.565      867.084
05/02/2013  23:56:00      -73.906       -1.045       -0.690       47.842       42.222       25.347     2288.850     1782.686      642.467        0.509        0.236       73.914       23.846        0.104      339.303       12.544      867.077
05/02/2013  23:57:00     -111.964      -12.218       -0.281       63.876       45.985       27.320     4080.151     2114.596      746.379        0.981        0.347      112.629       30.950        0.076      339.254       12.461      867.088
05/02/2013  23:58:00      -84.102        0.930        5.117       37.964       42.127       22.090     1441.253     1774.695      487.989        0.540        0.185       84.107        7.289        0.008      339.236       12.431      867.091
05/02/2013  23:59:00      -57.812      -22.606       -1.014       36.978       26.060       17.183     1367.398      679.104      295.249        0.310        0.117       62.075        8.341        0.018      339.226       12.413      867.095
